[[[{"header":{"parameterUnit":"kt","parameterCategory":2,"dx":1,"dy":1,"la1":29.587661999999998,"la2":31.0,"lo1":-88.76705300000003,"lo2":-86.6583820000003,"nx":115,"ny":88,"refTime":"2022-10-12T06:00:00:Z","depth":0,"parameterNumber":1,"parameterNumberName":"U-component_of_WINDS"},"data":[11.3153,11.3835,11.4142,11.5268,11.6791,11.7331,11.7729,11.7815,11.8324,11.864,11.864,11.864,11.8489,11.8186,11.8186,11.8338,11.8652,11.8027,11.8235,11.8374,11.7681,11.7993,11.7993,11.7462,11.7347,11.6056,11.441,11.3651,11.4278,11.392,11.3888,11.4688,11.3494,11.4449,11.6326,11.6156,11.5576,11.5268,11.5644,11.6156,11.5883,11.5746,11.5644,11.5234,11.4211,11.3938,11.2948,11.0218,10.9351,10.9116,10.9523,10.994,11.0639,11.156,11.2249,11.2897,11.3471,11.394,11.4409,11.4644,11.4711,11.4711,11.4711,11.4711,11.4678,11.4678,11.4208,11.4074,11.2803,11.1804,11.0271,10.8045,10.698,10.6253,10.5859,10.5006,10.4289,10.3502,10.2446,10.2221,10.24,10.3156,10.4086,10.4551,10.5221,10.6228,10.6826,10.7361,10.7487,10.7613,10.7707,10.7707,10.7707,10.7707,10.7707,10.7707,10.7707,10.7707,10.7198,10.6035,10.4711,10.3385,10.1997,10.0787,10.0278,9.9734,9.9581,9.9581,9.9552,9.9158,9.8975,9.8606,9.8236,9.7893,9.7332,11.1617,11.0867,11.2129,11.4245,11.6565,11.6928,11.7331,11.7729,11.7643,11.7815,11.8221,11.8019,11.7984,11.8068,11.8186,11.8489,11.8432,11.7993,11.7264,11.7126,11.7126,11.7507,11.7854,11.8027,11.7472,11.6319,11.4958,11.4721,11.4498,11.4449,11.435,11.4844,11.5303,11.5814,11.5576,11.5541,11.5371,11.4552,11.4654,11.503,11.4961,11.4791,11.5541,11.578,11.5234,11.3869,11.2504,11.073,10.9229,10.9044,10.9029,10.9218,10.9703,11.0707,11.1636,11.2159,11.27,11.3705,11.4476,11.4543,11.4711,11.4711,11.4711,11.4678,11.4644,11.4342,11.3672,11.2867,11.146,11.0125,10.8464,10.6774,10.6108,10.5508,10.5382,10.5089,10.4675,10.4159,10.297,10.1806,10.2175,10.2527,10.304,10.3414,10.4182,10.541,10.6196,10.6794,10.7235,10.7298,10.755,10.7707,10.7707,10.7707,10.7707,10.7707,10.7707,10.7707,10.7517,10.6716,10.5738,10.4206,10.2695,10.1469,10.0608,10.0097,9.9916,9.9734,9.9341,9.8946,9.8606,9.8294,9.7922,9.7519,9.6955,10.9584,10.9194,11.1344,11.3631,11.5576,11.6778,11.7243,11.7608,11.7608,11.7695,11.766,11.7453,11.7574,11.7934,11.8019,11.8172,11.8617,11.7923,11.7403,11.7542,11.7993,11.7576,11.7889,11.8444,11.7542,11.6779,11.5626,11.4672,11.3996,11.4292,11.4555,11.4673,11.4142,11.462,11.6087,11.5473,11.4825,11.3699,11.4415,11.4757,11.4757,11.4176,11.4415,11.5883,11.5405,11.3938,11.2402,11.0832,10.9365,10.8649,10.8362,10.8234,10.8451,10.9446,11.0009,11.0608,11.1594,11.2666,11.3471,11.4141,11.4711,11.4711,11.4711,11.4342,11.4342,11.2834,11.2197,11.1493,11.0085,10.9154,10.7495,10.6367,10.57,10.5308,10.5182,10.5056,10.4802,10.4256,10.3172,10.1953,10.1503,10.1907,10.174,10.1971,10.2545,10.3741,10.5504,10.6196,10.6669,10.692,10.7392,10.7707,10.7707,10.7707,10.7707,10.7707,10.7707,10.7707,10.7707,10.7198,10.6716,10.4878,10.3385,10.2377,10.1351,10.0637,10.0278,10.0097,9.9705,9.8685,9.8249,9.7779,9.7735,9.7332,9.602,10.8126,10.8171,11.073,11.2948,11.4791,11.6504,11.7243,11.7399,11.7487,11.7453,11.7243,11.7086,11.7174,11.7677,11.7368,11.7413,11.7705,11.7126,11.7611,11.7264,11.775,11.7299,11.7507,11.7472,11.7091,11.6363,11.5764,11.4984,11.4662,11.4518,11.4539,11.4995,11.4791,11.4654,11.5814,11.5985,11.4961,11.3665,11.4176,11.4518,11.4176,11.346,11.3665,11.503,11.6053,11.4654,11.3119,11.1515,10.9979,10.8512,10.7837,10.7249,10.6758,10.7283,10.7628,10.8266,10.9884,11.1057,11.2096,11.3136,11.3437,11.3638,11.3806,11.384,11.3136,11.146,11.0286,10.9683,10.8945,10.7989,10.7061,10.6226,10.5433,10.5308,10.5056,10.5056,10.4963,10.4126,10.3172,10.2058,10.1055,10.0744,10.0567,10.0668,10.112,10.2294,10.4025,10.5189,10.5535,10.6259,10.6669,10.6983,10.7172,10.7613,10.7707,10.7707,10.7707,10.7707,10.7707,10.7707,10.7517,10.6361,10.5045,10.3556,10.2057,10.1381,10.0816,10.0637,9.9624,9.8491,9.7857,9.6692,9.6437,9.5724,9.4519,10.7898,10.8068,10.957,11.1856,11.4688,11.6087,11.6983,11.7399,11.7051,11.6894,11.6826,11.6804,11.6969,11.6801,11.6163,11.6067,11.6135,11.5669,11.5357,11.4594,11.605,11.612,11.5808,11.5842,11.5773,11.4906,11.4413,11.4741,11.5618,11.5754,11.5752,11.6565,11.6156,11.578,11.5746,11.5985,11.5507,11.4279,11.4279,11.4313,11.3562,11.3767,11.4688,11.5132,11.561,11.5712,11.4279,11.2914,11.1481,10.9911,10.8669,10.7667,10.7539,10.7775,10.7931,10.8535,10.9247,11.0119,11.0789,11.1929,11.1895,11.1895,11.1929,11.1795,11.1158,10.975,10.8785,10.8149,10.8007,10.7279,10.6685,10.5949,10.519,10.4741,10.4657,10.473,10.4509,10.3864,10.3074,10.2228,10.1259,10.0585,10.0377,10.0005,10.0405,10.1097,10.2388,10.3427,10.4182,10.5221,10.5661,10.6039,10.6637,10.7298,10.7455,10.7707,10.7707,10.7707,10.7707,10.7707,10.7707,10.7198,10.6554,10.4878,10.3213,10.2377,10.1381,10.0787,10.0043,9.8825,9.7339,9.5863,9.4488,9.3374,9.2667,10.7932,10.8,10.8512,10.9945,11.2129,11.4484,11.5541,11.5903,11.6621,11.6224,11.561,11.5541,11.5239,11.4811,11.4429,11.4364,11.4751,11.4032,11.3831,11.3969,11.4836,11.442,11.4455,11.4732,11.449,11.4344,11.4093,11.3799,11.4352,11.5172,11.6347,11.6667,11.6804,11.6395,11.6224,11.6292,11.5951,11.5337,11.4688,11.4347,11.3835,11.346,11.4108,11.4586,11.5098,11.4518,11.3255,11.2812,11.0969,10.8921,10.8478,10.7783,10.7837,10.7488,10.7447,10.7293,10.8208,10.8878,10.9281,11.042,11.0722,11.0789,11.0957,10.9985,10.8878,10.8049,10.7354,10.6852,10.6743,10.6542,10.614,10.5581,10.4856,10.4198,10.4283,10.4398,10.3922,10.3438,10.2778,10.2098,10.1474,10.0631,10.0218,9.9784,9.9807,10.0405,10.1192,10.201,10.2829,10.3521,10.3804,10.478,10.5819,10.6794,10.7424,10.7707,10.7707,10.7707,10.7707,10.7707,10.7707,10.7358,10.7038,10.5871,10.4543,10.3385,10.2551,10.1469,10.0431,9.9152,9.7904,9.5681,9.3588,9.2196,9.1488,10.7522,10.7898,10.7932,10.8751,11.0252,11.2402,11.3631,11.4108,11.503,11.5064,11.4006,11.404,11.3615,11.2739,11.2676,11.2882,11.29,11.2882,11.2854,11.3068,11.3137,11.3102,11.2992,11.2992,11.2992,11.2674,11.2313,11.201,11.2629,11.3733,11.4878,11.6429,11.677,11.6804,11.6702,11.677,11.6702,11.636,11.5746,11.4791,11.3767,11.3562,11.305,11.3255,11.3562,11.3596,11.2539,11.1993,11.0832,10.8785,10.8388,10.7864,10.7749,10.74,10.681,10.6375,10.6766,10.7537,10.7739,10.8878,10.9415,10.9012,10.8819,10.7513,10.6551,10.5858,10.5767,10.55,10.5266,10.5533,10.5274,10.4241,10.3275,10.2729,10.2422,10.227,10.1498,10.1179,10.1108,10.0494,10.0329,9.9789,9.9866,9.9638,9.9555,9.9744,10.0122,10.0625,10.116,10.1223,10.1727,10.3395,10.456,10.5567,10.6354,10.7361,10.7487,10.7644,10.7707,10.7707,10.7707,10.7548,10.7389,10.6747,10.5738,10.4741,10.3466,10.2198,10.0819,9.9783,9.7512,9.512,9.2683,9.1247,9.0219,10.6533,10.783,10.7932,10.8717,10.9843,11.015,11.114,11.2436,11.2573,11.2607,11.2436,11.2436,11.218,11.2294,11.1507,11.1296,11.1346,11.0532,11.029,11.0501,11.1542,11.0879,11.0844,11.0972,11.0972,10.9923,10.953,11.0304,11.0867,11.204,11.3854,11.5732,11.6087,11.6633,11.6736,11.677,11.6667,11.6429,11.5883,11.4757,11.3168,11.3271,11.2487,11.1855,11.1839,11.201,11.1703,11.1071,11.0184,10.9447,10.8776,10.8034,10.768,10.7633,10.7166,10.6724,10.6118,10.6264,10.6498,10.747,10.7672,10.6852,10.6259,10.5641,10.5182,10.5182,10.4857,10.4491,10.4358,10.4557,10.4524,10.3294,10.2031,10.113,10.0816,10.0347,9.9671,9.9256,9.9214,9.9545,9.9443,9.9329,9.9468,9.9638,9.9524,9.965,9.9776,10.009,10.0153,10.0059,10.0342,10.1979,10.3364,10.4371,10.5535,10.6637,10.692,10.7015,10.7204,10.7361,10.7644,10.7707,10.7548,10.7229,10.6747,10.5459,10.3673,10.2198,10.1073,9.8814,9.6442,9.4318,9.3565,9.1634,9.0026,10.585,10.6499,10.7488,10.8205,10.858,10.8348,10.9165,11.0832,11.189,11.1754,11.0969,11.0832,11.0506,10.9963,10.9651,10.9599,10.9895,10.97,10.9634,10.9524,11.0186,10.987,10.948,10.9578,10.9578,10.9117,10.8723,10.8568,10.9278,11.0383,11.1667,11.3016,11.4313,11.5746,11.6565,11.6633,11.6497,11.5814,11.5473,11.4396,11.2741,11.1565,11.1293,11.0866,11.0406,11.0424,11.0493,11.0169,10.972,10.9027,10.8593,10.8431,10.8058,10.7864,10.7434,10.6963,10.645,10.624,10.5962,10.6699,10.6351,10.55,10.5215,10.5056,10.4929,10.4797,10.4305,10.3846,10.4073,10.3376,10.2256,10.3136,10.1642,9.9628,9.9428,9.9564,9.9086,9.8475,9.8434,9.9729,9.9975,9.96,9.9437,9.9449,9.9492,9.9492,9.9492,9.9555,9.9618,9.9052,9.8894,10.072,10.2231,10.2986,10.4056,10.5472,10.6133,10.6417,10.6574,10.67,10.6983,10.7298,10.755,10.7517,10.6728,10.5459,10.3663,10.1498,9.9363,9.7397,9.5139,9.419,9.4082,9.2638,9.0801,10.4432,10.5533,10.6441,10.6646,10.6396,10.6067,10.6692,10.8081,10.9528,11.0157,10.9563,10.9379,10.8959,10.8671,10.8654,10.891,10.913,10.9312,10.9278,10.9061,10.9273,10.8951,10.8841,10.8945,10.88,10.8509,10.8284,10.8092,10.8092,10.9584,10.9979,11.0798,11.3392,11.5064,11.5917,11.6599,11.6497,11.5541,11.4722,11.3816,11.2007,11.0646,10.9727,10.981,10.8876,10.8624,10.8794,10.918,10.89,10.8559,10.8612,10.8474,10.8284,10.8092,10.7633,10.7048,10.681,10.645,10.6085,10.5682,10.5433,10.5182,10.4802,10.4675,10.4414,10.4216,10.3261,10.2539,10.1973,10.1113,9.9899,10.0609,10.0279,9.8459,9.76,9.7771,9.8177,9.7729,9.785,9.9005,9.9815,9.9283,9.9342,9.9575,9.9492,9.9492,9.9492,9.9492,9.8863,9.817,9.7824,9.965,10.0846,10.1538,10.2545,10.4056,10.4906,10.5032,10.5252,10.563,10.6228,10.67,10.6448,10.5506,10.5632,10.5443,10.2717,9.9965,9.7996,9.5581,9.3083,9.174,9.2422,9.2172,9.116,10.225,10.492,10.4827,10.4229,10.3769,10.3462,10.3708,10.4646,10.6139,10.7417,10.8483,10.8363,10.826,10.862,10.8697,10.8697,10.8841,10.8807,10.8697,10.8697,10.8841,10.8697,10.8586,10.8397,10.8431,10.8206,10.8092,10.8012,10.7966,10.9058,10.9775,11.0798,11.2641,11.4449,11.4757,11.6053,11.6736,11.6497,11.5064,11.3816,11.223,11.0255,10.9048,10.847,10.7621,10.7335,10.7691,10.8076,10.8205,10.8206,10.8474,10.8509,10.8319,10.8206,10.7715,10.698,10.6895,10.6537,10.5928,10.5558,10.5308,10.5056,10.4802,10.4381,10.3796,10.2877,10.179,10.0737,9.9881,9.9058,9.798,9.752,9.7412,9.6533,9.5454,9.541,9.6298,9.6466,9.7101,9.7995,9.8356,9.8679,9.9202,9.9461,9.9429,9.9492,9.9492,9.8957,9.8107,9.7541,9.7258,9.8485,9.9303,10.0122,10.1255,10.2703,10.3337,10.3463,10.3651,10.3874,10.4408,10.5067,10.4472,10.3283,10.3189,10.3222,10.095,9.8444,9.6444,9.4391,9.1629,9.0748,9.1196,9.1685,9.1635,10.0952,10.1799,10.2781,10.303,10.3027,10.2993,10.3359,10.379,10.4418,10.5556,10.7148,10.7142,10.7555,10.849,10.8697,10.8697,10.8697,10.8586,10.8474,10.8474,10.8509,10.8397,10.8284,10.8171,10.8206,10.8012,10.7932,10.7932,10.7932,10.8307,10.8921,11.015,11.1958,11.2846,11.3596,11.5268,11.6258,11.5234,11.3952,11.2964,11.2782,11.0115,10.7962,10.911,10.7359,10.6652,10.6929,10.7483,10.783,10.8024,10.8397,10.8543,10.8353,10.8092,10.7715,10.7249,10.6895,10.6537,10.6051,10.5558,10.5274,10.5023,10.4769,10.3918,10.3101,10.244,10.0539,9.9295,9.8999,9.821,9.6205,9.6698,9.6731,9.5853,9.4744,9.4765,9.5522,9.5884,9.6518,9.721,9.7739,9.8425,9.8886,9.9146,9.924,9.9492,9.9461,9.902,9.7887,9.71,9.6674,9.7114,9.7586,9.8528,9.9901,10.0666,10.1364,10.1489,10.1652,10.209,10.2438,10.3034,10.2785,10.1194,10.0418,10.0638,9.9183,9.6839,9.4905,9.3194,9.2594,9.1962,9.2318,9.2129,9.2202,9.9423,10.0041,10.057,10.0928,10.1115,10.1225,10.1585,10.2185,10.284,10.377,10.4486,10.5796,10.6936,10.7692,10.8139,10.8474,10.8474,10.8363,10.8284,10.8171,10.8284,10.8206,10.8126,10.8012,10.8126,10.7898,10.7932,10.7932,10.7864,10.8034,10.841,10.8307,10.8956,11.0389,11.2334,11.3938,11.52,11.4791,11.4347,11.3388,11.3065,11.0502,10.8986,10.9835,10.7427,10.6857,10.6671,10.74,10.7565,10.7646,10.8284,10.8171,10.783,10.7715,10.7249,10.669,10.6657,10.6328,10.5839,10.5682,10.5433,10.5116,10.4365,10.3482,10.2567,10.0922,9.9091,9.8334,9.7618,9.6994,9.5514,9.5974,9.6402,9.5525,9.5184,9.5247,9.5522,9.5529,9.6197,9.7294,9.7809,9.8316,9.8665,9.8894,9.9209,9.9492,9.9398,9.9052,9.7698,9.6548,9.6092,9.6311,9.5367,9.5868,9.7683,9.8496,9.9153,9.9317,9.9416,9.9791,10.0196,10.0638,10.0267,9.8621,9.7597,9.6894,9.6032,9.4654,9.368,9.298,9.256,9.2744,9.2782,9.274,9.2944,9.8177,9.9479,9.8464,9.8317,9.8499,9.8682,9.9028,9.9855,10.1264,10.1536,10.1907,10.4172,10.5727,10.6455,10.7025,10.7599,10.7932,10.7842,10.7842,10.7795,10.7932,10.7898,10.7898,10.7932,10.7932,10.7932,10.7932,10.783,10.7659,10.7318,10.6601,10.5748,10.6533,10.8683,11.073,11.2504,11.3904,11.4825,11.3952,11.3456,11.2951,11.1327,10.9829,10.8683,10.8098,10.7595,10.6786,10.7317,10.7633,10.7471,10.8,10.7978,10.7249,10.698,10.6623,10.6173,10.6173,10.6085,10.5715,10.5558,10.5682,10.5033,10.3892,10.2555,10.1337,9.8885,9.7708,9.7158,9.6369,9.5613,9.5448,9.5317,9.558,9.501,9.4809,9.4803,9.4688,9.4948,9.5958,9.7314,9.7969,9.8444,9.8756,9.8874,9.9251,9.9346,9.9136,9.88,9.7359,9.6983,9.6275,9.5474,9.4332,9.4531,9.6338,9.6494,9.6992,9.7303,9.7155,9.7435,9.7814,9.7571,9.7606,9.6156,9.5358,9.3429,9.2145,9.3102,9.3624,9.2739,9.2316,9.277,9.2871,9.3083,9.3389,9.7982,9.8363,9.8317,9.8222,9.8363,9.875,9.9028,9.9409,9.9993,10.0061,10.0611,10.2124,10.3598,10.4383,10.4858,10.5638,10.6236,10.6123,10.6806,10.7591,10.7932,10.7932,10.7932,10.7932,10.7932,10.7932,10.7932,10.7147,10.6533,10.5987,10.5373,10.4008,10.4451,10.6669,10.899,11.0798,11.23,11.3494,11.2128,11.1817,11.162,10.9547,10.8504,10.7887,10.7269,10.6834,10.7517,10.7691,10.7691,10.7655,10.7944,10.74,10.6537,10.6382,10.6106,10.5615,10.5839,10.5715,10.5433,10.5558,10.5839,10.5404,10.4288,10.2153,10.0148,9.8724,9.7556,9.6172,9.5547,9.5448,9.5284,9.535,9.5229,9.4866,9.44,9.3941,9.3725,9.4715,9.5777,9.6452,9.7054,9.7873,9.8422,9.8696,9.8957,9.9051,9.8809,9.8356,9.8106,9.7981,9.7397,9.693,9.6005,9.5796,9.6564,9.6036,9.5237,9.509,9.4842,9.4881,9.5235,9.5358,9.527,9.4632,9.378,9.2835,9.2686,9.3052,9.3357,9.3324,9.3291,9.3348,9.3324,9.3542,9.377,9.8792,9.7999,9.8537,9.895,9.9422,9.9811,10.0326,10.0595,10.0186,9.9951,10.0019,10.0469,10.1257,10.2444,10.3373,10.4023,10.4554,10.5339,10.6123,10.6703,10.7557,10.7932,10.7898,10.7898,10.7932,10.7932,10.7693,10.6567,10.452,10.3905,10.3394,10.1892,10.2302,10.3871,10.5987,10.8239,10.9877,11.1003,11.1038,11.1036,11.0874,10.9694,10.8537,10.804,10.7403,10.7035,10.7058,10.708,10.7197,10.7068,10.7384,10.6895,10.6051,10.5772,10.5615,10.4989,10.5308,10.5341,10.5023,10.5591,10.5404,10.499,10.3997,10.195,9.9138,9.7499,9.626,9.6073,9.6172,9.6116,9.606,9.5994,9.5454,9.4596,9.3996,9.3465,9.3242,9.4216,9.5019,9.5459,9.592,9.6594,9.7057,9.7786,9.8449,9.8512,9.8269,9.8057,9.815,9.7938,9.7721,9.7628,9.7136,9.6584,9.6237,9.5865,9.4951,9.458,9.4185,9.41,9.4044,9.3742,9.3685,9.3382,9.3235,9.342,9.3476,9.3754,9.3998,9.427,9.439,9.4699,9.5006,9.4911,9.4203,10.017,9.8453,9.9196,10.0122,10.1027,10.1527,10.2205,10.2585,10.1497,10.0733,10.0224,9.945,9.9592,10.0653,10.2131,10.2779,10.3359,10.4144,10.4963,10.5919,10.6874,10.7386,10.7522,10.7625,10.7249,10.6772,10.7215,10.5031,10.2711,10.2677,10.1687,9.9845,9.9811,10.0425,10.3394,10.5168,10.6738,10.9263,11.0867,11.1191,11.0705,11.029,10.911,10.8165,10.7537,10.7269,10.6857,10.6719,10.6874,10.6454,10.6773,10.6295,10.5558,10.5274,10.4896,10.4675,10.4641,10.483,10.469,10.5056,10.5023,10.3716,10.2772,10.1142,9.8853,9.6884,9.6029,9.7059,9.6961,9.6519,9.6141,9.6501,9.5606,9.4423,9.3785,9.3404,9.2596,9.3331,9.3902,9.4303,9.4068,9.4831,9.5871,9.6969,9.8026,9.8057,9.7938,9.8,9.7819,9.7203,9.6925,9.6867,9.65,9.5917,9.5455,9.5332,9.4782,9.4505,9.4444,9.4505,9.4356,9.4264,9.3597,9.3541,9.3328,9.3633,9.4176,9.4574,9.4517,9.4944,9.531,9.5801,9.6351,9.555,9.4692,10.1852,10.0702,10.0556,10.1517,10.2997,10.3134,10.3086,10.3147,10.2653,10.1726,10.0959,10.0442,9.9864,9.9636,9.9981,10.0595,10.1585,10.1926,10.3496,10.4963,10.585,10.6055,10.6021,10.5885,10.5577,10.51,10.5339,10.4281,10.1585,10.1517,10.0595,9.9401,9.8923,9.9913,10.1483,10.3052,10.4588,10.6317,10.7667,10.8064,10.7775,10.7325,10.6756,10.6398,10.6398,10.6867,10.7169,10.6867,10.6867,10.6924,10.6565,10.5805,10.5182,10.4802,10.4418,10.4225,10.4708,10.4232,10.3693,10.3821,10.3582,10.1988,10.058,9.9542,9.7956,9.6586,9.5502,9.5371,9.5511,9.552,9.5437,9.4987,9.4386,9.3753,9.3853,9.3975,9.2673,9.2515,9.311,9.2772,9.2318,9.3106,9.4563,9.5655,9.6708,9.6863,9.7083,9.7176,9.7516,9.6839,9.6685,9.6382,9.6228,9.5646,9.5492,9.5431,9.5277,9.497,9.4847,9.4878,9.4847,9.4755,9.5006,9.4941,9.4728,9.4454,9.5184,9.5702,9.5463,9.5556,9.6107,9.6322,9.6169,9.5646,9.5367,10.2185,10.121,10.1892,10.3162,10.4467,10.4638,10.4562,10.4126,10.3299,10.244,10.1615,10.0758,10.0462,10.0707,10.0639,10.0612,10.1266,10.1647,10.2609,10.3223,10.4144,10.452,10.452,10.4485,10.394,10.3598,10.3155,10.2097,10.0288,10.0664,10.0288,9.9265,9.8923,9.9265,10.022,10.1551,10.2643,10.3556,10.5204,10.6231,10.6115,10.6402,10.6085,10.5962,10.6063,10.6331,10.6867,10.6476,10.6554,10.6766,10.6116,10.5533,10.5056,10.4575,10.3959,10.3398,10.3675,10.3418,10.2342,10.2251,10.1921,10.0398,9.9394,9.8241,9.7056,9.6256,9.5437,9.5273,9.5282,9.5724,9.5188,9.529,9.4332,9.3404,9.3176,9.2684,9.1924,9.2169,9.2117,9.2007,9.2312,9.3096,9.3939,9.4439,9.5363,9.5767,9.6167,9.6628,9.6967,9.6997,9.6905,9.6721,9.6629,9.6352,9.6352,9.6291,9.6199,9.5677,9.54,9.54,9.5339,9.4883,9.5219,9.5854,9.6036,9.5796,9.6223,9.6192,9.6167,9.6199,9.6567,9.666,9.623,9.6046,9.6074,10.1794,10.1027,10.2854,10.4433,10.5621,10.6075,10.5953,10.526,10.4195,10.3301,10.2701,10.1551,10.1686,10.2024,10.243,10.1934,10.1412,10.1879,10.2295,10.237,10.2506,10.2984,10.2984,10.295,10.2711,10.2336,10.1517,10.0284,9.9466,10.0015,9.9845,9.9162,9.8923,9.8923,9.9401,10.0049,10.0971,10.1852,10.3493,10.4759,10.5253,10.5795,10.624,10.5962,10.5962,10.6063,10.6029,10.5995,10.5962,10.5839,10.5558,10.5182,10.4736,10.4216,10.3426,10.276,10.2762,10.2197,10.0929,10.0866,10.0163,9.8927,9.7975,9.699,9.6242,9.549,9.5371,9.5394,9.5961,9.6187,9.594,9.5298,9.4304,9.3176,9.2593,9.2425,9.134,9.11,9.106,9.2157,9.2766,9.3483,9.3582,9.3895,9.4387,9.4513,9.5308,9.6015,9.6721,9.7028,9.7028,9.7028,9.7028,9.7028,9.7028,9.6905,9.6752,9.6137,9.6015,9.6015,9.5801,9.522,9.5219,9.5702,9.6097,9.6128,9.644,9.672,9.669,9.666,9.6813,9.6997,9.6659,9.6506,9.6565,10.102,10.1496,10.2567,10.4212,10.6015,10.6692,10.6905,10.6857,10.6522,10.5069,10.4392,10.4121,10.3093,10.2654,10.2586,10.2464,10.2103,10.2023,10.2007,10.2261,10.192,10.1511,10.134,10.1204,10.0721,9.9218,9.9257,9.9121,9.878,9.8988,9.9193,9.9026,9.8923,9.8818,9.8923,9.9265,9.9772,10.0612,10.208,10.3242,10.426,10.5353,10.5917,10.5928,10.5962,10.5962,10.5962,10.5962,10.5805,10.5433,10.5182,10.4802,10.4249,10.3426,10.2369,10.2237,10.1565,10.0576,9.9494,9.9094,9.8626,9.7125,9.6411,9.6011,9.5944,9.5642,9.5371,9.535,9.5086,9.4797,9.3915,9.3949,9.3372,9.279,9.3325,9.2761,9.1384,9.1153,9.191,9.2828,9.3268,9.3035,9.3072,9.326,9.3291,9.3505,9.4544,9.5554,9.6506,9.7028,9.7028,9.7028,9.7028,9.7028,9.7028,9.6936,9.6936,9.6629,9.6721,9.6721,9.669,9.6045,9.5675,9.6036,9.6097,9.5971,9.6284,9.6565,9.6874,9.7028,9.7028,9.7028,9.7028,9.6874,9.6097,10.0597,10.1244,10.2602,10.4101,10.5499,10.5986,10.6028,10.5911,10.5711,10.5272,10.4614,10.4395,10.453,10.4631,10.4395,10.4362,10.426,10.3228,10.234,10.1446,10.1047,10.0197,9.9796,9.9348,9.9104,9.8351,9.8323,9.8323,9.8182,9.8357,9.8499,9.8431,9.8465,9.8601,9.8465,9.8571,9.9008,9.9572,10.0502,10.1729,10.3015,10.4172,10.5023,10.5794,10.5962,10.5962,10.5962,10.5839,10.5524,10.5108,10.4199,10.3388,10.2742,10.178,10.075,10.0212,9.965,9.8958,9.7709,9.7277,9.6843,9.5878,9.5457,9.5305,9.5251,9.5284,9.5164,9.5131,9.4735,9.4277,9.3653,9.3274,9.2762,9.2532,9.2552,9.2461,9.2032,9.2225,9.3013,9.3853,9.3465,9.2709,9.235,9.2567,9.2658,9.2475,9.3479,9.476,9.5709,9.6261,9.6414,9.6782,9.6875,9.6782,9.6782,9.6844,9.6782,9.6967,9.6997,9.7028,9.6875,9.6412,9.6223,9.6253,9.6097,9.6097,9.6253,9.6565,9.7028,9.7028,9.7028,9.7028,9.6874,9.6534,9.5753,9.9868,10.019,10.2049,10.3343,10.4059,10.4352,10.4542,10.458,10.458,10.4733,10.4902,10.4817,10.5372,10.6261,10.5816,10.6085,10.5891,10.5035,10.3165,10.0728,10.0086,9.9056,9.8344,9.81,9.7923,9.7889,9.7965,9.7965,9.7856,9.7999,9.81,9.8405,9.8818,9.8675,9.9047,9.9538,9.9063,9.87,10.0322,10.1446,10.1956,10.3299,10.4822,10.5258,10.5761,10.5928,10.5839,10.5558,10.4975,10.4117,10.2687,10.1555,10.1099,10.0262,9.9263,9.8492,9.7983,9.7274,9.6378,9.5793,9.5338,9.5251,9.4945,9.4637,9.4594,9.466,9.4791,9.4496,9.4515,9.4277,9.3811,9.3371,9.3176,9.2843,9.2595,9.2714,9.3022,9.3137,9.3422,9.411,9.3746,9.2866,9.3205,9.2112,9.1992,9.1659,9.2478,9.3785,9.4669,9.525,9.5678,9.6137,9.5984,9.5492,9.5677,9.6107,9.6383,9.6844,9.6936,9.6997,9.6445,9.6045,9.6287,9.6253,9.6223,9.6379,9.6409,9.6874,9.7028,9.7028,9.7028,9.6689,9.6192,9.591,9.5248,9.8235,9.848,10.0156,10.0903,10.1077,10.1931,10.3064,10.3991,10.4059,10.4647,10.5501,10.5992,10.5837,10.5928,10.5962,10.5928,10.6085,10.6026,10.4227,10.2154,9.9771,9.8387,9.8084,9.7939,9.7838,9.767,9.7889,9.778,9.7703,9.7991,9.8565,9.9376,9.9748,10.0603,10.1133,10.1686,10.1066,10.0299,10.1918,10.2023,10.1084,10.3113,10.442,10.4286,10.4923,10.5426,10.5437,10.5157,10.3917,10.1111,10.0229,9.9914,9.9624,9.8687,9.804,9.7677,9.6752,9.6025,9.5609,9.5065,9.4669,9.4669,9.4702,9.4431,9.3731,9.3982,9.4146,9.3436,9.3528,9.3839,9.3753,9.4272,9.4131,9.3782,9.4248,9.4773,9.4718,9.2867,9.2175,9.4448,9.3772,9.2132,9.1439,9.126,9.1595,8.9332,9.054,9.1901,9.2964,9.3998,9.4883,9.5249,9.4909,9.4295,9.4755,9.5247,9.58,9.6168,9.6107,9.6137,9.5586,9.6077,9.632,9.6409,9.6409,9.6409,9.6565,9.672,9.6874,9.6874,9.6874,9.6223,9.5535,9.5248,9.4288,9.7889,9.8134,9.9665,10.0197,10.0109,10.0535,10.1417,10.2477,10.2561,10.3433,10.4487,10.4843,10.5313,10.5895,10.5928,10.5962,10.5962,10.6085,10.5501,10.3788,10.1249,9.9534,9.8748,9.8613,9.8177,9.7505,9.7482,9.7482,9.7538,9.839,9.8995,9.9769,10.0475,10.1182,10.1989,10.212,10.16,10.1201,10.1956,10.2326,10.0733,10.2509,10.2945,10.2844,10.2979,10.3347,10.3294,10.2897,10.1908,10.0468,9.8984,9.8276,9.8144,9.7083,9.6325,9.6172,9.5678,9.4977,9.4856,9.4335,9.412,9.399,9.312,9.269,9.2543,9.265,9.3008,9.2445,9.3002,9.3659,9.4207,9.4459,9.4496,9.4576,9.5086,9.5227,9.4541,9.2343,9.1745,9.1714,9.0772,8.8627,8.7831,8.7059,8.6831,8.7168,8.8339,8.9695,9.1296,9.2993,9.3997,9.4117,9.378,9.3624,9.3987,9.3957,9.4295,9.4356,9.4417,9.4725,9.4942,9.5924,9.6198,9.6534,9.6409,9.6409,9.6565,9.672,9.6597,9.632,9.6565,9.6097,9.5119,9.4318,9.3147,9.7434,9.7409,9.9164,9.9591,9.9063,9.9063,9.9789,10.0833,10.0934,10.1772,10.2945,10.318,10.375,10.4722,10.4688,10.5057,10.5224,10.5292,10.5392,10.4956,10.2643,10.0934,10.0096,9.9559,9.8587,9.7347,9.7213,9.738,9.785,9.8755,9.976,10.0531,10.1705,10.2275,10.2643,10.3116,10.2813,10.2208,10.2712,10.2645,10.1369,10.1671,10.1772,10.1202,10.1369,10.1486,10.1301,10.0909,10.0314,9.8999,9.7478,9.6829,9.6641,9.582,9.5174,9.4898,9.4678,9.44,9.4055,9.339,9.3039,9.2849,9.1746,9.0718,9.0704,9.0898,9.1157,9.1261,9.2047,9.2986,9.3784,9.3808,9.4226,9.4928,9.4207,9.3396,9.2241,9.0691,8.9564,8.9657,8.7596,8.6168,8.5322,8.4648,8.3924,8.4534,8.5434,8.6716,8.8244,8.9749,9.0652,9.1435,9.2285,9.2612,9.2912,9.2697,9.2636,9.2728,9.2949,9.3378,9.3997,9.4853,9.5463,9.6504,9.6253,9.6097,9.6253,9.6165,9.558,9.4964,9.4869,9.4306,9.353,9.3147,9.1984,9.6641,9.547,9.839,9.8794,9.746,9.7447,9.8218,9.9325,9.9459,10.0297,10.1403,10.1638,10.1805,10.1839,10.2241,10.2878,10.3716,10.3917,10.3884,10.3414,10.2375,10.1403,10.0967,9.9895,9.8587,9.738,9.7213,9.785,9.8721,9.9325,10.0733,10.2878,10.3347,10.4286,10.5057,10.5593,10.4789,10.3951,10.4856,10.3381,10.0062,10.204,10.2308,9.966,10.0531,10.1017,10.0714,10.0409,9.9172,9.6388,9.5799,9.5492,9.5118,9.502,9.4678,9.4368,9.3996,9.3872,9.3455,9.2462,9.1595,9.1466,9.0363,8.915,8.8255,8.8966,8.9548,8.9281,9.0193,9.1194,9.215,9.2075,9.2816,9.4299,9.2117,9.0362,8.9245,8.7046,8.6401,8.654,8.5697,8.4279,8.3715,8.3439,8.2992,8.3042,8.305,8.4173,8.5511,8.6589,8.7028,8.8157,8.9451,9.029,9.1868,9.1684,9.153,9.163,9.177,9.2228,9.266,9.284,9.3291,9.4995,9.5813,9.5813,9.5662,9.5116,9.4566,9.4058,9.3213,9.1948,9.1523,9.1605,9.097,9.5513,9.5134,9.7225,9.7191,9.5905,9.6844,9.7514,9.795,9.8017,9.8822,9.9962,10.0163,10.0632,10.1369,10.147,10.1872,10.2342,10.2375,10.2342,10.2208,10.1671,10.1504,10.1302,10.0029,9.8587,9.7447,9.7213,9.7514,9.8084,9.976,10.1235,10.261,10.4252,10.5426,10.5895,10.5928,10.5794,10.5325,10.5627,10.4252,10.1705,10.1772,10.0967,9.8554,9.8224,9.8342,9.8259,9.7908,9.6904,9.5721,9.5251,9.5164,9.48,9.4678,9.44,9.3996,9.3714,9.3589,9.3272,9.195,9.1181,9.073,8.9113,8.7651,8.7275,8.7458,8.7823,8.7656,8.838,8.9377,9.0329,9.0224,9.0239,9.0799,8.8738,8.7576,8.7337,8.5357,8.422,8.3902,8.2931,8.1902,8.132,8.1143,8.0978,8.1574,8.1585,8.2173,8.3513,8.4556,8.5676,8.6566,8.7631,8.8953,9.0373,9.0701,9.0547,9.0787,9.0929,9.1327,9.1992,9.2194,9.2572,9.423,9.499,9.499,9.474,9.408,9.3252,9.325,9.2704,9.1101,8.9726,8.9742,8.9341,9.4229,9.4431,9.5838,9.5637,9.4464,9.5336,9.6107,9.6442,9.6509,9.7313,9.8487,9.8688,9.9224,9.9995,10.0163,10.0397,10.0733,9.9827,9.9727,10.0163,10.0632,10.08,10.0531,9.9358,9.842,9.7883,9.7447,9.7213,9.7783,10.0096,10.147,10.204,10.4487,10.566,10.5292,10.5761,10.5962,10.5962,10.5962,10.4487,10.1805,10.1504,10.0129,9.7548,9.6772,9.6477,9.6279,9.5812,9.5457,9.5284,9.5131,9.4889,9.4523,9.4277,9.3769,9.3071,9.2974,9.272,9.1922,9.0634,8.97,8.9378,8.7488,8.6266,8.6105,8.5955,8.5941,8.634,8.6829,8.7726,8.8485,8.8574,8.7744,8.634,8.5014,8.424,8.4435,8.3095,8.2238,8.1831,8.0805,8.0026,7.9763,7.9427,7.961,8.0089,8.0208,8.0418,8.1465,8.2732,8.4095,8.5212,8.6708,8.8078,8.9463,9.0189,9.0596,9.1165,9.0964,9.1198,9.2003,9.2496,9.2922,9.3726,9.3964,9.4024,9.3772,9.3223,9.2203,9.1635,9.0595,8.9337,8.8259,8.754,8.6962,9.2821,9.3056,9.4296,9.4062,9.2922,9.309,9.376,9.4799,9.49,9.5704,9.6777,9.6966,9.6899,9.7213,9.71,9.7917,9.8353,9.6363,9.5928,9.7213,9.8453,9.8989,9.8889,9.7582,9.7447,9.8386,9.7615,9.7012,9.6945,9.9425,10.0867,10.1738,10.3884,10.4554,10.375,10.4856,10.5694,10.5593,10.5493,10.4219,10.1872,10.1336,9.9962,9.7435,9.6772,9.6279,9.5694,9.549,9.5251,9.5131,9.5043,9.4523,9.3872,9.3617,9.3007,9.166,9.1181,9.0505,8.9314,8.7906,8.723,8.7005,8.5537,8.4565,8.4597,8.4297,8.4505,8.5217,8.5603,8.5893,8.6746,8.6743,8.5449,8.2538,8.1585,8.1105,8.1105,8.044,7.9986,8.0047,7.9854,7.9306,7.9306,7.904,7.8832,7.9012,7.9042,7.9191,7.955,8.0448,8.191,8.359,8.5171,8.7093,8.8505,8.9861,9.0647,9.1265,9.0898,9.1017,9.194,9.2291,9.2675,9.2999,9.3235,9.3235,9.2982,9.2523,9.1393,8.9957,8.7798,8.656,8.5621,8.5033,8.4535,9.2754,9.2821,9.3257,9.262,9.1481,9.2319,9.3023,9.3391,9.3458,9.3727,9.3986,9.3688,9.3544,9.3511,9.3477,9.41,9.4555,9.3422,9.3298,9.4196,9.4665,9.49,9.4799,9.4397,9.4464,9.4732,9.4363,9.4162,9.4431,9.614,9.7012,9.728,9.9995,10.1202,10.1101,10.2241,10.2945,10.2945,10.2945,10.204,10.0364,10.0062,9.8975,9.7073,9.6543,9.6163,9.6047,9.549,9.5131,9.5043,9.4922,9.4556,9.3649,9.2623,9.1756,9.1149,8.9876,8.9015,8.8562,8.6979,8.6059,8.6085,8.4903,8.3923,8.3923,8.3891,8.3876,8.4017,8.4086,8.3937,8.3884,8.3412,8.2309,8.1087,8.0455,8.0326,8.0257,8.0057,8.0016,7.9854,7.959,7.9397,7.9306,7.8936,7.8832,7.8772,7.8772,7.8772,7.8772,7.9281,8.0285,8.3029,8.4165,8.5868,8.8348,8.938,8.9907,9.03,9.0077,9.085,9.1656,9.1829,9.1918,9.2151,9.2435,9.2435,9.2151,9.1722,9.0538,8.9199,8.7068,8.4699,8.3747,8.27,8.2536,9.2956,9.195,9.1414,9.0643,8.9905,9.0743,9.1816,9.2721,9.2754,9.2881,9.3098,9.28,9.2323,9.1647,9.1149,9.1202,9.1561,9.1453,9.1862,9.2613,9.2754,9.2754,9.2687,9.2185,9.2185,9.2486,9.1648,9.1447,9.2118,9.4598,9.547,9.5537,9.785,9.9325,9.9593,10.0766,10.147,10.1504,10.147,10.08,9.9559,9.9325,9.8424,9.6643,9.6279,9.608,9.5812,9.549,9.5131,9.48,9.4645,9.44,9.3649,9.2404,9.1253,8.9912,8.8196,8.6961,8.6511,8.544,8.5032,8.5503,8.4926,8.4519,8.4778,8.4814,8.4348,8.3818,8.3537,8.3446,8.2875,8.1985,8.1211,8.1283,8.0998,8.049,8.0387,8.0646,8.0766,8.0404,8.0571,8.0346,8.0091,7.9686,7.955,7.958,7.9969,8.0298,8.0238,7.976,8.0764,8.3113,8.3794,8.4577,8.8396,8.8794,8.9036,8.9455,8.9743,9.0524,9.055,9.0493,9.0265,9.0488,9.0294,9.0265,9.0178,8.9645,8.8341,8.6984,8.5342,8.3114,8.2101,8.0161,7.9799,9.3324,9.0944,8.9235,8.8732,8.8464,8.8631,9.014,9.2754,9.2721,9.3131,9.3832,9.3819,9.3009,9.1647,9.0375,8.9754,8.9863,9.0419,9.1334,9.2312,9.2446,9.2479,9.2345,9.1179,9.1145,9.1776,8.97,8.9369,9.0911,9.4766,9.6241,9.4967,9.7481,9.9023,9.9124,10.0297,10.1235,10.0967,10.1001,10.0531,9.9392,9.9191,9.8257,9.6445,9.6196,9.5963,9.5371,9.5251,9.5164,9.48,9.44,9.3996,9.3621,9.2922,9.1162,8.8107,8.6366,8.485,8.3622,8.3338,8.3838,8.485,8.4945,8.5516,8.5832,8.5608,8.5008,8.4062,8.3366,8.3338,8.3561,8.2304,8.2169,8.3093,8.197,8.1201,8.1128,8.1753,8.2093,8.1255,8.1565,8.1714,8.1046,8.0926,8.0956,8.1166,8.1944,8.2572,8.2273,8.1585,8.2233,8.4015,8.4375,8.4225,8.6309,8.7627,8.8376,8.8615,8.8938,8.9694,8.9252,8.8995,8.8634,8.8429,8.8588,8.8588,8.8048,8.7368,8.647,8.5208,8.3521,8.1349,7.9848,7.7754,7.7263,9.5034,9.4967,9.2587,9.0944,8.9972,8.9972,9.1011,9.2546,9.2538,9.2663,9.2998,9.2411,9.1729,9.1106,9.0255,9.04,9.1072,9.0916,9.0729,9.047,9.047,8.9904,8.9012,8.8617,8.8789,8.906,8.8595,8.903,9.0743,9.2989,9.376,9.366,9.5202,9.614,9.6274,9.7649,9.8386,9.842,9.8386,9.8218,9.7883,9.7783,9.7321,9.6577,9.6279,9.6047,9.5609,9.5164,9.48,9.4523,9.3996,9.3621,9.2986,9.2277,9.1091,8.9472,8.6683,8.5042,8.5122,8.3286,8.2539,8.31,8.2852,8.2758,8.3007,8.2719,8.2742,8.3168,8.2503,8.1896,8.211,8.1565,8.1682,8.2853,8.2371,8.1514,8.0709,8.1322,8.1365,8.0329,8.124,8.1804,8.188,8.2013,8.2153,8.2213,8.2572,8.2811,8.2721,8.2662,8.2811,8.448,8.46,8.505,8.6428,8.7119,8.7089,8.7329,8.7681,8.808,8.7954,8.8208,8.7977,8.7148,8.7832,8.7787,8.7087,8.6994,8.6323,8.4842,8.2651,8.0289,7.8311,7.7316,7.6746,9.5782,9.5816,9.3508,9.1595,9.0425,9.0786,9.1962,9.3298,9.3111,9.3,9.2822,9.2485,9.2258,9.2144,9.1799,9.1667,9.1669,9.1478,9.0684,8.9646,8.9655,8.919,8.8393,8.8539,8.8539,8.8678,8.8784,8.9356,9.0197,9.0565,9.1441,9.2754,9.3559,9.4665,9.5838,9.6743,9.7213,9.7213,9.7213,9.7213,9.7213,9.7213,9.6919,9.6543,9.6312,9.5963,9.5371,9.5043,9.4523,9.412,9.3872,9.3527,9.3019,9.1735,9.0424,8.9313,8.6273,8.4323,8.3821,8.2446,8.2008,8.2694,8.2344,8.2366,8.2798,8.2469,8.2299,8.2534,8.1731,8.1322,8.1772,8.1274,8.1405,8.2452,8.2132,8.1225,8.0312,8.1382,8.1507,8.0299,8.1039,8.2006,8.1842,8.1863,8.2243,8.2781,8.335,8.3918,8.4307,8.3888,8.4187,8.5145,8.5358,8.5716,8.6431,8.6641,8.667,8.6493,8.6609,8.6473,8.6224,8.6273,8.6176,8.593,8.5684,8.5364,8.5519,8.4919,8.4401,8.3381,8.1271,7.9306,7.7955,7.7051,7.5955,9.539,9.4156,9.2688,9.1102,8.9821,9.095,9.2344,9.3639,9.3805,9.3463,9.2803,9.3167,9.3364,9.3758,9.3625,9.2896,9.1735,9.1669,9.0906,8.9679,8.9546,8.9447,8.9181,8.9281,8.938,8.948,8.9555,8.9937,9.0552,8.9218,8.9924,9.2513,9.2848,9.4321,9.6844,9.7179,9.7213,9.7213,9.7213,9.7213,9.7213,9.7213,9.6839,9.6196,9.6196,9.5845,9.4922,9.48,9.4368,9.3585,9.3395,9.3237,9.26,9.0906,8.9377,8.801,8.561,8.3375,8.1625,8.1378,8.1938,8.2822,8.2822,8.3154,8.3726,8.3774,8.3002,8.1491,8.0841,8.1106,8.2332,8.1555,8.1435,8.2431,8.1744,8.062,8.0193,8.1404,8.1753,8.0045,8.0906,8.2043,8.0978,8.0948,8.1535,8.2721,8.3739,8.4756,8.5564,8.5234,8.5354,8.6252,8.6315,8.6315,8.6611,8.6641,8.6493,8.6225,8.5836,8.532,8.4766,8.4148,8.3478,8.4012,8.3165,8.2933,8.25,8.1736,8.123,8.1212,8.0112,7.8453,7.7298,7.635,7.5084,9.2866,9.2434,9.0794,8.9996,8.9622,8.9954,9.0917,9.2278,9.2087,9.1781,9.1437,9.1519,9.1552,9.1667,9.1667,9.1502,9.1205,9.1172,9.0414,8.9128,8.9063,8.8436,8.7414,8.7566,8.8269,8.9228,8.9546,9.0817,9.2755,9.1625,9.1857,9.3565,9.3989,9.5113,9.7179,9.7213,9.7213,9.7213,9.7213,9.7213,9.7213,9.7213,9.6953,9.6312,9.6196,9.5845,9.4922,9.4523,9.3756,9.229,9.1881,9.1084,8.9652,8.8361,8.7695,8.7537,8.6297,8.5063,8.4103,8.2633,8.1884,8.2037,8.1204,8.0836,8.108,8.0448,7.9925,7.9818,7.949,7.9865,8.1021,8.0974,8.1236,8.2148,8.1774,8.0276,7.8462,7.8999,7.8799,7.6753,7.8212,7.9988,8.0099,8.0862,8.1738,8.258,8.3918,8.4726,8.5145,8.5569,8.5927,8.6463,8.6641,8.6433,8.6641,8.6611,8.6523,8.6225,8.5446,8.4686,8.4225,8.3605,8.3136,8.2979,8.2692,8.2187,8.1896,8.1062,8.0491,7.9751,7.8518,7.7094,7.6403,7.5007,7.3265,9.1924,9.1536,9.011,8.9735,9.0221,8.9449,9.0122,9.1379,8.9899,8.9445,8.9957,8.9957,9.0352,9.0911,9.0944,9.0944,9.0944,9.0944,9.0188,8.8872,8.884,8.8412,8.7689,8.7843,8.8271,8.903,8.9251,8.9934,9.0883,9.0219,9.0328,9.1344,9.2296,9.3475,9.5101,9.5805,9.614,9.614,9.5392,9.5247,9.5916,9.5837,9.5463,9.4936,9.5547,9.5371,9.4645,9.3658,9.2575,9.1461,9.0693,8.9706,8.878,8.7215,8.6524,8.6617,8.4606,8.3196,8.2848,8.092,7.9899,8.0267,8.0021,7.954,7.8774,7.8432,7.8132,7.7689,7.8001,7.826,7.8685,7.8482,7.8547,7.9131,7.8619,7.7587,7.627,7.6595,7.6282,7.4925,7.6654,7.8138,7.8197,7.9461,8.0541,8.0938,8.2093,8.3439,8.4576,8.4526,8.444,8.4645,8.4946,8.5243,8.5333,8.5779,8.6047,8.5656,8.4839,8.4225,8.3761,8.3036,8.2562,8.2403,8.1896,8.1245,8.0439,7.9606,7.8815,7.7969,7.6689,7.593,7.5332,7.4412,7.2432,9.1116,9.056,8.9416,8.9392,9.0253,8.884,8.9037,9.0122,8.7602,8.7272,8.8511,8.8544,8.9234,9.0352,9.0352,9.0352,9.0352,9.0466,8.9774,8.8655,8.8733,8.8733,8.8766,8.8622,8.8754,8.8951,8.884,8.8469,8.8054,8.7822,8.7868,8.8521,8.9696,9.114,9.2345,9.3752,9.4531,9.4296,9.3165,9.3255,9.4456,9.4464,9.4023,9.3282,9.4284,9.4551,9.3366,9.2146,9.1002,8.9958,8.8798,8.7929,8.7511,8.5662,8.4823,8.4919,8.1924,8.0124,8.0124,7.8495,7.7827,7.8476,7.9166,7.8855,7.7125,7.7393,7.7045,7.6044,7.673,7.6754,7.5919,7.5698,7.5595,7.5378,7.4845,7.4281,7.4003,7.432,7.4201,7.329,7.5253,7.6349,7.6344,7.7519,7.8548,7.8847,8.0089,8.1435,8.314,8.3028,8.2178,8.2303,8.2875,8.3174,8.3557,8.4384,8.4882,8.4634,8.3876,8.3172,8.2549,8.1749,8.1105,8.1172,8.0495,7.9706,7.8766,7.7743,7.7064,7.6192,7.5513,7.484,7.3771,7.3584,7.214,8.8013,8.747,8.7239,8.7272,8.7294,8.5815,8.6045,8.7404,0.0,0.0,0.0,8.7031,8.7196,8.7426,8.7393,8.7393,8.7536,8.7905,8.7954,8.7755,8.8112,8.8321,8.8321,8.7935,8.8385,8.9404,8.9063,8.93,9.0315,8.9116,8.8777,8.9106,8.9489,9.0011,9.0559,9.2211,9.2553,9.1514,9.3131,9.4222,9.4489,9.551,9.475,9.1795,9.2919,9.2124,8.9135,8.9679,8.819,8.4387,8.3905,8.2745,8.0524,7.9744,7.9763,8.0652,7.9613,7.9096,7.9297,7.8791,7.8643,7.8917,7.8522,7.8077,7.8102,7.7276,7.6665,7.6265,7.62,7.598,7.5862,7.5517,7.5168,7.4567,7.4439,7.3736,7.2562,7.2609,7.229,7.1084,7.2379,7.3576,7.4737,7.5957,7.7088,7.8399,7.9042,7.9789,8.1076,8.1394,8.1454,8.188,8.1898,8.1964,8.2141,8.3056,8.3526,8.3015,8.2532,8.1893,8.0951,7.962,7.8689,7.8745,7.8223,7.7827,7.7319,7.6662,7.6263,7.5754,7.4721,7.3555,7.1882,7.1356,7.0905,8.785,0.0,8.6277,8.5873,0.0,8.4223,8.4266,8.5139,8.3879,8.3877,8.4856,8.5649,8.5444,8.4401,8.4507,8.5147,8.5946,8.6367,8.7046,8.7816,8.8126,8.8229,8.8229,8.8023,8.8217,8.8917,8.8419,8.86,8.9305,8.8348,8.8018,8.8344,8.8493,8.834,8.7883,8.9495,9.0403,9.0609,9.0893,9.1486,9.2187,9.251,9.1875,9.0216,9.0893,0.0,0.0,0.0,0.0,0.0,0.0,0.0,0.0,0.0,0.0,7.6481,7.3975,7.2247,7.1762,7.086,7.1574,7.467,7.4636,7.4359,7.3949,7.5247,7.5237,7.324,7.4519,7.5288,7.4821,7.4433,7.4073,7.3405,7.2819,7.2485,7.2134,7.2046,7.1654,7.1022,7.2408,7.3584,7.371,7.5412,7.7138,7.8323,7.8855,7.931,8.012,7.9788,7.9818,8.0841,8.0948,8.0749,8.0296,8.1118,8.182,8.1553,8.1105,8.0395,7.9161,7.8053,7.7326,7.7052,7.6721,7.6263,7.5984,7.5548,7.4889,7.3947,7.3191,7.2247,7.0676,6.9951,6.9665,8.8332,8.7108,8.5976,8.4969,8.4157,8.2914,8.2709,8.3029,8.219,8.2104,8.3013,8.4412,8.4107,8.2573,8.2744,8.3775,8.5444,8.5782,8.6855,8.8433,8.8534,8.8534,8.8534,8.8433,8.8265,8.7895,8.7345,8.697,8.6912,8.639,8.6449,8.7032,8.7032,8.6809,8.6181,0.0,0.0,0.0,8.8722,8.8784,8.9952,8.9702,8.9227,8.8478,8.8991,0.0,8.7952,8.5598,8.4033,8.3196,8.0975,0.0,0.0,0.0,0.0,0.0,0.0,0.0,0.0,0.0,0.0,0.0,6.9596,6.9699,6.9641,7.2455,7.2635,6.9022,7.2426,7.4357,7.3053,7.3026,7.2909,7.2299,7.1623,7.1385,7.2182,7.2035,7.1769,7.1623,7.3069,7.395,7.3463,7.524,7.7039,7.7819,7.8591,7.9118,7.9701,7.8652,7.8142,7.9288,7.9623,7.922,7.8319,7.9223,8.0066,7.9891,7.9538,7.8608,7.7277,7.6555,7.5887,7.5592,7.5316,7.5128,7.458,7.4304,7.3695,7.2126,7.1935,7.1429,7.0231,6.9564,6.8789,8.786,8.6084,8.5883,8.508,8.3676,8.1403,8.0499,8.0657,8.168,8.2195,8.2431,8.3469,8.3843,8.3544,8.3642,8.4445,8.5883,8.6446,8.7584,8.8967,8.9427,8.9655,8.9558,8.9099,8.8127,8.6749,8.5948,8.4804,8.3306,8.2965,8.3657,8.5225,8.5467,8.6309,8.7516,8.7716,8.7316,8.6417,8.855,8.9818,9.0052,9.1245,9.0276,8.7031,8.7847,8.6449,8.2417,8.2632,8.1232,7.7691,7.7079,7.6338,7.5115,7.4626,7.3111,0.0,6.9546,0.0,0.0,0.0,0.0,0.0,0.0,0.0,0.0,6.9265,6.7841,6.4892,7.0268,7.2817,7.0132,7.1494,7.2416,7.2269,7.2008,7.1921,7.2299,7.2269,7.2269,7.2182,7.2278,7.2856,7.386,7.4286,7.5229,7.6419,7.7323,7.8271,7.9029,7.8591,7.8349,7.8727,7.844,7.8011,7.7352,7.7972,7.8642,7.8266,7.737,7.6332,7.5673,7.4386,7.339,7.3475,7.3953,7.4044,7.3032,7.3087,7.2882,7.1686,7.1783,7.1674,7.1055,7.0363,6.9773,8.7033,8.5133,8.4291,8.3334,8.2066,8.098,8.0578,8.0786,8.138,8.2129,8.2879,8.2225,8.1765,8.1424,8.1518,8.2479,8.392,8.44,8.5935,8.8299,8.8524,8.9096,8.9751,8.9524,8.8452,8.6739,8.6084,8.4779,8.2878,8.2404,8.2663,8.3666,8.463,8.4909,8.4611,8.7022,8.813,8.7758,8.9005,8.9578,8.9441,8.959,8.836,8.5635,8.562,8.4188,8.1187,8.0569,7.9461,7.7626,7.6757,7.6081,7.5405,7.1572,6.9419,0.0,0.0,0.0,0.0,0.0,0.0,0.0,0.0,0.0,0.0,0.0,6.4491,6.5629,7.0387,7.1354,6.622,6.8584,7.0019,6.8771,6.7741,6.8293,7.1351,7.0951,7.0848,7.1913,7.2914,7.3429,7.3039,7.4286,7.5412,7.5832,7.6389,7.6963,7.7739,7.7979,7.8447,7.9662,7.841,7.7266,7.7764,7.7662,7.7336,7.7078,7.6093,7.4824,7.3912,7.2922,7.2135,7.2053,7.2737,7.3035,7.2672,7.2689,7.2511,7.1658,7.1604,7.1729,7.1631,7.1146,7.053,8.6103,8.4228,8.2054,8.0752,8.0067,7.9983,8.0067,8.0283,8.0317,8.0935,8.1812,8.0394,7.9286,7.8548,7.8703,7.9773,8.1625,8.2177,8.4161,8.7048,8.7117,8.7902,8.9301,8.9335,8.8231,8.6458,8.5571,8.4142,8.2083,8.1552,8.1319,8.1288,8.2548,8.2812,8.2169,8.5562,8.8083,8.949,8.9586,8.949,8.9197,8.8433,8.6979,8.4998,8.4368,8.2832,8.0636,7.929,7.8367,7.7948,7.6274,7.5211,7.4761,6.8841,0.0,0.0,0.0,0.0,0.0,0.0,0.0,0.0,0.0,6.1818,5.7425,0.0,6.1635,0.0,6.9604,6.9667,6.4445,6.6548,0.0,0.0,6.4069,6.4582,6.8985,6.914,6.9466,7.114,7.3114,7.3757,7.2278,7.377,7.4863,7.4698,7.4887,7.5321,7.6205,7.6999,7.8215,7.9441,7.8383,7.737,7.8054,7.7273,7.6664,7.6635,7.5529,7.4337,7.3137,7.2586,7.2177,7.1793,7.2482,7.2899,7.2645,7.2511,7.2073,7.1075,7.0938,7.1238,7.1539,7.1142,7.0642,8.5281,8.3493,7.9392,7.7688,7.7774,7.7463,7.735,7.7473,7.7438,7.7542,7.761,7.7731,7.702,7.5779,7.563,0.0,7.9314,8.0718,8.2856,8.5479,8.5513,8.6332,8.7799,8.7833,8.6862,8.49,8.3419,8.1538,7.9542,7.9029,7.8332,7.7289,7.7995,7.9812,8.2575,8.3377,8.5775,8.971,8.9969,8.9969,8.9778,8.9683,8.8256,8.5581,8.5208,8.3091,7.935,7.8773,7.7884,7.6532,7.3924,7.1863,7.0511,0.0,0.0,0.0,0.0,0.0,0.0,0.0,0.0,0.0,0.0,0.0,0.0,0.0,0.0,6.2796,6.5785,0.0,6.7052,6.6611,0.0,0.0,0.0,6.2545,6.4457,6.6738,6.8565,6.9681,0.0,0.0,7.2617,7.2569,7.2232,7.132,7.2272,7.3415,7.4852,7.6113,7.6999,7.7675,7.7815,7.7918,7.7509,7.682,7.6431,7.6547,7.5529,7.4541,7.4201,7.3927,7.36,7.3123,7.3958,7.4263,7.3229,7.2645,7.1822,6.9557,6.9173,6.9448,7.0382,7.0214,6.9768,8.1793,8.0433,7.7384,7.672,7.7453,7.5462,7.5739,7.7552,7.669,7.6347,7.6381,7.6454,7.562,7.416,7.4124,0.0,0.0,0.0,7.8862,8.1693,8.1539,8.3232,8.6378,8.6355,8.5204,8.341,8.2709,8.1386,7.9387,7.9168,7.6429,7.1318,0.0,0.0,7.785,8.1488,8.5257,8.8924,9.0116,9.0563,9.0285,9.0285,8.8618,8.5065,8.3345,8.1288,7.8477,7.7593,7.6145,7.3891,7.1895,6.977,0.0,0.0,0.0,0.0,0.0,0.0,0.0,0.0,0.0,0.0,0.0,5.5098,5.3069,0.0,0.0,0.0,5.7668,5.7316,5.7474,6.0955,0.0,0.0,0.0,0.0,0.0,0.0,0.0,6.8264,6.9095,6.9495,6.9991,7.09,7.1351,7.0685,7.2263,7.3584,7.4133,0.0,7.6169,7.6655,7.7228,7.7708,7.7516,7.6124,7.5377,7.6761,7.4919,7.3146,7.306,7.2452,7.1856,7.1702,7.2211,7.2341,7.1346,7.1031,7.0813,7.023,6.9753,6.9299,6.9713,6.9681,6.9122,7.6781,0.0,0.0,0.0,0.0,7.2906,7.3254,7.5452,7.4368,7.3772,7.3353,7.3385,0.0,0.0,0.0,0.0,0.0,0.0,7.5733,7.8543,7.8463,8.0494,8.4434,8.4258,8.3445,8.1908,8.1536,8.0374,7.8621,7.7745,7.3947,6.7526,0.0,0.0,0.0,0.0,8.3422,8.7872,8.9689,9.0604,9.0803,9.0838,8.9405,8.6605,8.3455,8.0523,7.8055,7.6145,7.402,7.1605,6.8965,0.0,0.0,0.0,0.0,0.0,0.0,0.0,0.0,0.0,0.0,0.0,0.0,0.0,0.0,0.0,0.0,0.0,0.0,0.0,5.2159,5.6666,5.855,0.0,0.0,0.0,0.0,0.0,0.0,0.0,0.0,0.0,6.6269,6.8156,6.9575,0.0,0.0,7.3184,7.3066,7.4408,7.538,7.5626,7.6044,0.0,7.6301,7.4597,7.3851,7.5412,7.3861,7.2087,7.174,7.1249,7.0759,7.0178,7.0724,7.0916,6.9797,6.8566,6.8137,6.9055,6.82,6.7356,6.8387,6.8833,6.8746,0.0,0.0,0.0,0.0,0.0,0.0,0.0,0.0,6.9707,6.8933,0.0,6.7928,0.0,0.0,0.0,0.0,0.0,7.1269,0.0,0.0,7.6869,7.8531,8.1145,8.135,8.118,8.0872,7.9371,7.7903,7.615,7.3614,0.0,0.0,0.0,0.0,0.0,0.0,7.9481,8.65,8.8509,9.009,9.1252,9.1321,9.1287,9.0955,8.6199,8.1907,7.8055,7.4295,7.1573,7.0028,6.478,0.0,0.0,0.0,0.0,0.0,0.0,0.0,0.0,0.0,0.0,0.0,0.0,0.0,0.0,0.0,0.0,0.0,0.0,0.0,0.0,5.5325,0.0,0.0,0.0,0.0,0.0,0.0,0.0,0.0,0.0,0.0,6.1755,6.4127,6.6382,6.7414,0.0,0.0,0.0,0.0,7.494,7.3861,7.38,7.3586,7.3028,7.2312,7.1933,7.2275,0.0,0.0,7.0585,7.1336,7.152,6.979,7.0639,7.0945,6.8782,6.4862,6.2983,6.503,6.3504,6.2945,6.5919,6.7166,6.805,0.0,0.0,0.0,0.0,0.0,0.0,0.0,0.0,0.0,6.742,0.0,6.6174,0.0,0.0,0.0,0.0,0.0,0.0,0.0,0.0,7.0406,7.178,7.2808,7.4728,7.4437,0.0,7.2886,7.183,0.0,0.0,0.0,0.0,0.0,0.0,0.0,0.0,7.7552,8.2199,8.6827,8.9396,8.9864,9.0801,9.087,8.983,8.6876,8.2292,7.5915,7.3576,7.1187,0.0,0.0,0.0,0.0,0.0,0.0,0.0,0.0,0.0,0.0,0.0,0.0,0.0,0.0,0.0,0.0,0.0,0.0,0.0,0.0,0.0,0.0,0.0,5.4035,0.0,0.0,0.0,0.0,0.0,0.0,0.0,0.0,0.0,6.0473,6.3957,6.6444,6.6817,6.9094,7.0842,7.112,0.0,0.0,0.0,0.0,0.0,0.0,0.0,7.0965,7.2052,6.973,6.7631,6.7785,6.8345,6.8646,6.7958,0.0,0.0,6.1953,5.9709,5.8936,5.9826,5.9571,5.9428,5.994,6.1612,6.273,0.0,0.0,0.0,0.0,0.0,0.0,0.0,0.0,0.0,6.5658,6.3835,0.0,0.0,0.0,0.0,0.0,0.0,0.0,0.0,0.0,0.0,0.0,6.7542,6.9333,0.0,0.0,0.0,0.0,0.0,0.0,0.0,0.0,0.0,0.0,0.0,0.0,7.6154,7.9867,8.4891,8.7992,8.9032,9.0038,9.035,8.9795,8.7508,8.3164,7.6631,0.0,0.0,0.0,0.0,0.0,0.0,0.0,0.0,0.0,0.0,0.0,0.0,0.0,0.0,0.0,0.0,0.0,0.0,0.0,0.0,0.0,0.0,0.0,0.0,0.0,5.3017,0.0,0.0,0.0,0.0,0.0,0.0,0.0,0.0,0.0,0.0,0.0,6.405,6.5028,6.7459,6.9457,7.0281,7.1063,7.173,0.0,0.0,0.0,0.0,0.0,0.0,0.0,0.0,0.0,0.0,0.0,0.0,0.0,0.0,6.4011,5.8931,5.658,5.5606,5.6417,0.0,0.0,0.0,0.0,0.0,0.0,0.0,0.0,0.0,0.0,0.0,0.0,0.0,0.0,0.0,0.0,0.0,0.0,5.8305,0.0,0.0,0.0,0.0,0.0,0.0,0.0,0.0,0.0,0.0,0.0,0.0,0.0,0.0,0.0,0.0,0.0,0.0,0.0,0.0,0.0,0.0,7.5076,7.9537,8.2847,8.598,8.8755,8.8963,8.9691,9.1009,8.8097,8.449,8.0247,0.0,0.0,0.0,0.0,0.0,0.0,0.0,0.0,0.0,0.0,0.0,0.0,0.0,0.0,0.0,0.0,0.0,0.0,0.0,0.0,0.0,0.0,0.0,0.0,0.0,0.0,5.147,5.2397,5.2988,0.0,0.0,0.0,0.0,0.0,0.0,0.0,0.0,0.0,0.0,6.4995,6.7277,6.8898,7.1035,7.1814,7.0399,6.9832,6.9259,6.8004,6.6835,6.6012,0.0,0.0,0.0,0.0,0.0,0.0,0.0,0.0,0.0,0.0,0.0,0.0,0.0,0.0,0.0,0.0,0.0,0.0,0.0,0.0,0.0,0.0,0.0,0.0,0.0,0.0,0.0,0.0,0.0,0.0,0.0,0.0,0.0,0.0,0.0,0.0,0.0,0.0,0.0,0.0,0.0,0.0,0.0,0.0,0.0,0.0,0.0,0.0,0.0,0.0,0.0,0.0,0.0,0.0,7.3036,7.6679,8.0812,8.3899,8.5876,8.6916,8.761,8.8026,8.585,8.3253,0.0,0.0,0.0,0.0,0.0,0.0,0.0,0.0,0.0,0.0,0.0,0.0,0.0,0.0,0.0,0.0,0.0,0.0,0.0,0.0,0.0,0.0,0.0,0.0,0.0,0.0,0.0,0.0,5.4472,5.409,5.2685,0.0,0.0,0.0,0.0,0.0,0.0,0.0,0.0,0.0,0.0,6.699,7.0375,7.0527,7.0466,7.1213,7.0481,6.9863,6.9806,6.7972,6.6318,6.5451,0.0,0.0,0.0,0.0,0.0,0.0,0.0,0.0,0.0,0.0,0.0,0.0,0.0,0.0,0.0,0.0,0.0,0.0,0.0,0.0,0.0,0.0,0.0,0.0,0.0,0.0,0.0,0.0,0.0,0.0,0.0,0.0,0.0,0.0,0.0,0.0,0.0,0.0,0.0,0.0,0.0,0.0,0.0,0.0,0.0,0.0,0.0,0.0,0.0,0.0,0.0,0.0,0.0,7.245,7.612,7.9633,8.2373,8.4489,8.5425,8.6188,8.6708,8.4917,8.2377,0.0,0.0,0.0,0.0,0.0,0.0,0.0,0.0,0.0,0.0,0.0,0.0,0.0,0.0,0.0,0.0,0.0,0.0,0.0,0.0,0.0,0.0,0.0,0.0,0.0,0.0,0.0,0.0,5.3728,5.3587,5.232,0.0,0.0,0.0,0.0,0.0,0.0,0.0,0.0,0.0,0.0,6.5181,6.8394,6.8964,0.0,0.0,6.9605,6.9439,6.9153,6.7144,6.528,6.3992,6.2064,0.0,0.0,0.0,0.0,0.0,0.0,0.0,0.0,0.0,0.0,0.0,0.0,0.0,0.0,0.0,0.0,0.0,0.0,0.0,0.0,0.0,0.0,0.0,0.0,0.0,0.0,0.0,0.0,0.0,0.0,0.0,0.0,0.0,0.0,0.0,0.0,0.0,0.0,0.0,0.0,0.0,0.0,0.0,0.0,0.0,0.0,0.0,0.0,0.0,0.0,0.0,0.0,0.0,7.7255,7.8966,8.1263,8.428,8.4419,8.5044,8.6361,8.4794,8.1597,0.0,0.0,0.0,0.0,0.0,0.0,0.0,0.0,0.0,0.0,0.0,0.0,0.0,0.0,0.0,0.0,0.0,0.0,0.0,0.0,0.0,0.0,0.0,0.0,0.0,0.0,0.0,0.0,0.0,0.0,0.0,0.0,0.0,0.0,0.0,0.0,0.0,0.0,0.0,0.0,0.0,6.2576,6.4492,6.673,6.7671,0.0,0.0,6.7842,6.6349,6.4804,6.3319,6.1945,0.0,0.0,0.0,0.0,0.0,0.0,0.0,0.0,0.0,0.0,0.0,0.0,0.0,0.0,0.0,0.0,0.0,0.0,0.0,0.0,0.0,0.0,0.0,0.0,0.0,0.0,0.0,0.0,0.0,0.0,0.0,0.0,0.0,0.0,0.0,0.0,0.0,0.0,0.0,0.0,0.0,0.0,0.0,0.0,0.0,0.0,0.0,0.0,0.0,0.0,0.0,0.0,0.0,0.0,7.7702,7.8003,7.9668,8.2685,8.2789,8.2963,8.3309,8.2589,0.0,0.0,0.0,0.0,0.0,0.0,0.0,0.0,0.0,0.0,0.0,0.0,0.0,0.0,0.0,0.0,0.0,0.0,0.0,0.0,0.0,0.0,0.0,0.0,0.0,0.0,0.0,5.0603,0.0,0.0,0.0,0.0,0.0,0.0,0.0,0.0,0.0,0.0,0.0,0.0,0.0,0.0,6.3987,6.8306,6.6853,6.5434,0.0,0.0,6.3609,6.375,6.2629,6.1412,0.0,0.0,0.0,0.0,0.0,0.0,0.0,0.0,0.0,0.0,0.0,0.0,0.0,0.0,0.0,0.0,0.0,0.0,0.0,0.0,0.0,0.0,0.0,0.0,0.0,0.0,0.0,0.0,0.0,0.0,0.0,0.0,0.0,0.0,0.0,0.0,0.0,0.0,0.0,0.0,0.0,0.0,0.0,0.0,0.0,0.0,0.0,0.0,0.0,0.0,0.0,0.0,0.0,0.0,7.1928,7.7672,7.7806,7.9189,8.2061,8.2199,8.2199,8.2199,8.1864,7.9514,0.0,0.0,0.0,0.0,0.0,0.0,0.0,0.0,0.0,0.0,0.0,0.0,0.0,0.0,0.0,0.0,0.0,0.0,0.0,0.0,0.0,0.0,0.0,0.0,0.0,0.0,0.0,0.0,0.0,0.0,0.0,0.0,0.0,0.0,0.0,0.0,0.0,0.0,0.0,0.0,0.0,0.0,6.4978,6.4416,0.0,0.0,0.0,6.2108,6.2448,0.0,0.0,0.0,0.0,0.0,0.0,0.0,0.0,0.0,0.0,0.0,0.0,0.0,0.0,0.0,0.0,0.0,0.0,0.0,0.0,0.0,0.0,0.0,0.0,0.0,0.0,0.0,0.0,0.0,0.0,0.0,0.0,0.0,0.0,0.0,0.0,0.0,0.0,0.0,0.0,0.0,0.0,0.0,0.0,0.0,0.0,0.0,0.0,0.0,0.0,0.0,0.0,0.0,0.0,0.0,0.0,0.0,7.7115,7.7707,7.9231,8.1704,8.213,8.2199,8.2199,8.1657,7.9754,0.0,0.0,0.0,0.0,0.0,0.0,0.0,0.0,0.0,0.0,0.0,0.0,0.0,0.0,0.0,0.0,0.0,0.0,0.0,0.0,0.0,0.0,0.0,0.0,0.0,0.0,0.0,0.0,0.0,0.0,0.0,0.0,0.0,0.0,0.0,0.0,0.0,0.0,0.0,0.0,0.0,6.08,5.9343,6.1004,6.2024,0.0,0.0,6.1537,6.1294,6.0442,0.0,0.0,0.0,0.0,0.0,0.0,0.0,0.0,0.0,0.0,0.0,0.0,0.0,0.0,0.0,0.0,0.0,0.0,0.0,0.0,0.0,0.0,0.0,0.0,0.0,0.0,0.0,0.0,0.0,0.0,0.0,0.0,0.0,0.0,0.0,0.0,0.0,0.0,0.0,0.0,0.0,0.0,0.0,0.0,0.0,0.0,0.0,0.0,0.0,0.0,0.0,0.0,0.0,0.0,0.0,0.0,7.3875,7.6555,7.8592,7.9852,8.1381,8.2119,8.1924,8.0541,7.8575,0.0,0.0,0.0,0.0,0.0,0.0,0.0,0.0,0.0,0.0,0.0,0.0,0.0,0.0,0.0,0.0,0.0,0.0,0.0,0.0,0.0,0.0,0.0,0.0,0.0,0.0,0.0,0.0,0.0,0.0,0.0,0.0,0.0,0.0,0.0,0.0,0.0,0.0,0.0,0.0,0.0,6.0765,6.1971,6.0984,0.0,0.0,0.0,0.0,5.8276,5.785,0.0,0.0,0.0,0.0,0.0,0.0,0.0,0.0,0.0,0.0,0.0,0.0,0.0,0.0,0.0,0.0,0.0,0.0,0.0,0.0,0.0,0.0,0.0,0.0,0.0,0.0,0.0,0.0,0.0,0.0,0.0,0.0,0.0,0.0,0.0,0.0,0.0,0.0,0.0,0.0,0.0,0.0,0.0,0.0,0.0,0.0,0.0,0.0,0.0,0.0,0.0,0.0,0.0,0.0,0.0,0.0,7.4334,7.6809,7.8154,7.8491,8.0179,8.1011,8.0771,7.9082,7.7478,0.0,0.0,0.0,0.0,0.0,0.0,0.0,0.0,0.0,0.0,0.0,0.0,0.0,0.0,0.0,0.0,0.0,0.0,0.0,0.0,0.0,0.0,0.0,0.0,0.0,0.0,0.0,0.0,0.0,0.0,0.0,0.0,0.0,0.0,0.0,0.0,0.0,0.0,0.0,0.0,6.0002,5.9921,6.0024,0.0,0.0,0.0,0.0,0.0,0.0,5.7053,5.6875,0.0,0.0,0.0,0.0,0.0,0.0,0.0,0.0,0.0,0.0,0.0,0.0,0.0,0.0,0.0,0.0,0.0,0.0,0.0,0.0,0.0,0.0,0.0,0.0,0.0,0.0,0.0,0.0,0.0,0.0,0.0,0.0,0.0,0.0,0.0,0.0,0.0,0.0,0.0,0.0,0.0,0.0,0.0,0.0,0.0,0.0,0.0,0.0,0.0,0.0,0.0,0.0,0.0,0.0,0.0,7.4718,7.6743,7.761,7.7199,7.8731,7.9408,7.9172,7.7567,7.6142,7.5102,0.0,0.0,0.0,0.0,0.0,0.0,0.0,0.0,0.0,0.0,0.0,0.0,0.0,0.0,0.0,0.0,0.0,0.0,0.0,0.0,0.0,0.0,0.0,0.0,0.0,0.0,0.0,0.0,0.0,0.0,0.0,0.0,0.0,0.0,0.0,0.0,0.0,0.0,0.0,5.859,5.8833,0.0,0.0,0.0,0.0,0.0,0.0,0.0,0.0,5.6697,0.0,0.0,0.0,0.0,0.0,0.0,0.0,0.0,0.0,0.0,0.0,0.0,0.0,0.0,0.0,0.0,0.0,0.0,0.0,0.0,0.0,0.0,0.0,0.0,0.0,0.0,0.0,0.0,0.0,0.0,0.0,0.0,0.0,0.0,0.0,0.0,0.0,0.0,0.0,0.0,0.0,0.0,0.0,0.0,0.0,0.0,0.0,0.0,0.0,0.0,0.0,0.0,0.0,0.0,0.0,0.0,7.4021,7.5967,7.5335,7.702,7.7705,7.735,7.5681,7.3999,7.2111,0.0,0.0,0.0,0.0,0.0,0.0,0.0,0.0,0.0,0.0,0.0,0.0,0.0,0.0,0.0,0.0,0.0,0.0,0.0,0.0,0.0,0.0,0.0,0.0,0.0,0.0,0.0,0.0,0.0,0.0,0.0,0.0,0.0,0.0,0.0,0.0,0.0,0.0,5.4798,5.6749,0.0,0.0,0.0,0.0,0.0,0.0,0.0,0.0,5.6306,0.0,0.0,0.0,0.0,0.0,0.0,0.0,0.0,0.0,0.0,0.0,0.0,0.0,0.0,0.0,0.0,0.0,0.0,0.0,0.0,0.0,0.0,0.0,0.0,0.0,0.0,0.0,0.0,0.0,0.0,0.0,0.0,0.0,0.0,0.0,0.0,0.0,0.0,0.0,0.0,0.0,0.0,0.0,0.0,0.0,0.0,0.0,0.0,0.0,0.0,0.0,0.0,0.0,0.0,0.0,0.0,0.0,0.0,7.4333,7.3935,7.5605,7.6183,7.5656,7.3195,7.1276,0.0,0.0,0.0,0.0,0.0,0.0,0.0,0.0,0.0,0.0,0.0,0.0,0.0,0.0,0.0,0.0,0.0,0.0,0.0,0.0,0.0,0.0,0.0,0.0,0.0,0.0,0.0,0.0,0.0,0.0,0.0,0.0,0.0,0.0,0.0,0.0,0.0,0.0,0.0,0.0,0.0,0.0,0.0,0.0,0.0,0.0,0.0,0.0,0.0,0.0,0.0,0.0,0.0,0.0,0.0,0.0,0.0,0.0,0.0,0.0,0.0,0.0,0.0,0.0,0.0,0.0,0.0,0.0,0.0,0.0,0.0,0.0,0.0,0.0,0.0,0.0,0.0,0.0,0.0,0.0,0.0,0.0,0.0,0.0,0.0,0.0,0.0,0.0,0.0,0.0,0.0,0.0,0.0,0.0,0.0,0.0,0.0,0.0,0.0,0.0,0.0,0.0,0.0,0.0,0.0,0.0,0.0,0.0,7.322,7.3149,7.4292,7.4696,7.4144,7.1276,6.9333,0.0,0.0,0.0,0.0,0.0,0.0,0.0,0.0,0.0,0.0,0.0,0.0,0.0,0.0,0.0,0.0,0.0,0.0,0.0,0.0,0.0,0.0,0.0,0.0,0.0,0.0,0.0,0.0,0.0,0.0,0.0,0.0,0.0,0.0,0.0,0.0,0.0,0.0,0.0,0.0,0.0,0.0,0.0,0.0,0.0,0.0,0.0,0.0,5.6185,0.0,0.0,0.0,0.0,0.0,0.0,0.0,0.0,0.0,0.0,0.0,0.0,0.0,0.0,0.0,0.0,0.0,0.0,0.0,0.0,0.0,0.0,0.0,0.0,0.0,0.0,0.0,0.0,0.0,0.0,0.0,0.0,0.0,0.0,0.0,0.0,0.0,0.0,0.0,0.0,0.0,0.0,0.0,0.0,0.0,0.0,0.0,0.0,0.0,0.0,0.0,0.0,0.0,0.0,0.0,0.0,0.0,0.0,0.0,7.322,7.3043,7.3216,7.3143,7.2705,7.1016,6.9182,0.0,0.0,0.0,0.0,0.0,0.0,0.0,0.0,0.0,0.0,0.0,0.0,0.0,0.0,0.0,0.0,0.0,0.0,0.0,0.0,0.0,0.0,0.0,0.0,0.0,0.0,0.0,0.0,0.0,0.0,0.0,0.0,0.0,0.0,0.0,0.0,0.0,0.0,0.0,0.0,0.0,0.0,0.0,0.0,0.0,0.0,0.0,0.0,0.0,0.0,0.0,0.0,0.0,0.0,0.0,0.0,0.0,0.0,0.0,0.0,0.0,0.0,0.0,0.0,0.0,0.0,0.0,0.0,0.0,0.0,0.0,0.0,0.0,0.0,0.0,0.0,0.0,0.0,0.0,0.0,0.0,0.0,0.0,0.0,0.0,0.0,0.0,0.0,0.0,0.0,0.0,0.0,0.0,0.0,0.0,0.0,0.0,0.0,0.0,0.0,0.0,0.0,0.0,0.0,0.0,0.0,0.0,0.0,7.0892,7.1725,7.2592,7.2935,7.2611,7.0053,6.7778,0.0,0.0,0.0,0.0,0.0,0.0,0.0,0.0,0.0,0.0,0.0,0.0,0.0,0.0,0.0,0.0,0.0,0.0,0.0,0.0,0.0,0.0,0.0,0.0,0.0,0.0,0.0,0.0,0.0,0.0,0.0,0.0,0.0,0.0,0.0,0.0,0.0,0.0,0.0,0.0,0.0,0.0,0.0,0.0,0.0,0.0,0.0,0.0,0.0,0.0,0.0,0.0,0.0,0.0,0.0,0.0,0.0,0.0,0.0,0.0,0.0,0.0,0.0,0.0,0.0,0.0,0.0,0.0,0.0,0.0,0.0,0.0,0.0,0.0,0.0,0.0,0.0,0.0,0.0,0.0,0.0,0.0,0.0,0.0,0.0,0.0,0.0,0.0,0.0,0.0,0.0,0.0,0.0,0.0,0.0,0.0,0.0,0.0,0.0,0.0,0.0,0.0,0.0,0.0,0.0,0.0,0.0,0.0,0.0,7.0823,7.2315,7.2799,7.2172,6.9025,6.6376,0.0,0.0,0.0,0.0,0.0,0.0,0.0,0.0,0.0,0.0,0.0,0.0,0.0,0.0,0.0,0.0,0.0,0.0,0.0,0.0,0.0,0.0,0.0,0.0,0.0,0.0,0.0,0.0,0.0,0.0,0.0,0.0,0.0,0.0,0.0,0.0,0.0,0.0,0.0,0.0,0.0,0.0,0.0,0.0,0.0,0.0,0.0,0.0,0.0,0.0,0.0,0.0,0.0,0.0,0.0,0.0,0.0,0.0,0.0,0.0,0.0,0.0,0.0,0.0,0.0,0.0,0.0,0.0,0.0,0.0,0.0,0.0,0.0,0.0,0.0,0.0,0.0,0.0,0.0,0.0,0.0,0.0,0.0,0.0,0.0,0.0,0.0,0.0,0.0,0.0,0.0,0.0,0.0,0.0,0.0,0.0,0.0,0.0,0.0,0.0,0.0,0.0,0.0,0.0,0.0,0.0,0.0,0.0,0.0,7.0889,7.2315,7.2315,7.0927,6.7913,6.5432,0.0,0.0,0.0,0.0,0.0,0.0,0.0,0.0,0.0,0.0,0.0,0.0,0.0,0.0,0.0,0.0,0.0,0.0,0.0,0.0,0.0,0.0,0.0,0.0,0.0,0.0,0.0,0.0,0.0,0.0,0.0,0.0,0.0,0.0,0.0,0.0,0.0,0.0,0.0,0.0,0.0,0.0,0.0,0.0,0.0,0.0,0.0,0.0,0.0,0.0,0.0,0.0,0.0,0.0,0.0,0.0,0.0,0.0,0.0,0.0,0.0,0.0,0.0,0.0,0.0,0.0,0.0,0.0,0.0,0.0,0.0,0.0,0.0,0.0,0.0,0.0,0.0,0.0,0.0,0.0,0.0,0.0,0.0,0.0,0.0,0.0,0.0,0.0,0.0,0.0,0.0,0.0,0.0,0.0,0.0,0.0,0.0,0.0,0.0,0.0,0.0,0.0,0.0,0.0,0.0,0.0,0.0,0.0,0.0,6.837,6.9734,7.0643,7.0856,6.6934,6.442,6.3415,0.0,0.0,0.0,0.0,0.0,0.0,0.0,0.0,0.0,0.0,0.0,0.0,0.0,0.0,0.0,0.0,0.0,0.0,0.0,0.0,0.0,0.0,0.0,0.0,0.0,0.0,0.0,0.0,0.0,0.0,0.0,0.0,0.0,0.0,0.0,0.0,0.0,0.0,0.0,0.0,0.0,0.0,0.0,0.0,0.0,0.0,0.0,0.0,0.0,0.0,0.0,0.0,0.0,0.0,0.0,0.0,0.0,0.0,0.0,0.0,0.0,0.0,0.0,0.0,0.0,0.0,0.0,0.0,0.0,0.0,0.0,0.0,0.0,0.0,0.0,0.0,0.0,0.0,0.0,0.0,0.0,0.0,0.0,0.0,0.0,0.0,0.0,0.0,0.0,0.0,0.0,0.0,0.0,0.0,0.0,0.0,0.0,0.0,0.0,0.0,0.0,0.0,0.0,0.0,0.0,0.0,0.0,0.0,6.8218,6.8707,6.9237,6.949,6.6535,6.4018,0.0,0.0,0.0,0.0,0.0,0.0,0.0,0.0,0.0,0.0,0.0,0.0,0.0,0.0,0.0,0.0,0.0,0.0,0.0,0.0,0.0,0.0,0.0,0.0,0.0,0.0,0.0,0.0,0.0,0.0,0.0,0.0,0.0,0.0,0.0,0.0,0.0,0.0,0.0,0.0,0.0,0.0,0.0,0.0,0.0,0.0,0.0,0.0,0.0,0.0,0.0,0.0,0.0,0.0,0.0,0.0,0.0,0.0,0.0,0.0,0.0,0.0,0.0,0.0,0.0,0.0,0.0,0.0,0.0,0.0,0.0,0.0,0.0,0.0,0.0,0.0,0.0,0.0,0.0,0.0,0.0,0.0,0.0,0.0,0.0,0.0,0.0,0.0,0.0,0.0,0.0,0.0,0.0,0.0,0.0,0.0,0.0,0.0,0.0,0.0,0.0,0.0,0.0,0.0,0.0,0.0,0.0,0.0,7.1258,7.1188,6.9755,6.8392,6.6827,6.6583,6.4333,0.0,0.0,0.0,0.0,0.0,0.0,0.0,0.0,0.0,0.0,0.0,0.0,0.0,0.0,0.0,0.0,0.0,0.0,0.0,0.0,0.0,0.0,0.0,0.0,0.0,0.0,0.0,0.0,0.0,0.0,0.0,0.0,0.0,0.0,0.0,0.0,0.0,0.0,0.0,0.0,0.0,0.0,0.0,0.0,0.0,0.0,0.0,0.0,0.0,0.0,0.0,0.0,0.0,0.0,0.0,0.0,0.0,0.0,0.0,0.0,0.0,0.0,0.0,0.0,0.0,0.0,0.0,0.0,0.0,0.0,0.0,0.0,0.0,0.0,0.0,0.0,0.0,0.0,0.0,0.0,0.0,0.0,0.0,0.0,0.0,0.0,0.0,0.0,0.0,0.0,0.0,0.0,0.0,0.0,0.0,0.0,0.0,0.0,0.0,0.0,0.0,0.0,0.0,0.0,0.0,0.0,0.0,0.0,0.0,6.9948,0.0,6.8994,0.0,6.6548,6.3395,0.0,0.0,0.0,0.0,0.0,0.0,0.0,0.0,0.0,0.0,0.0,0.0,0.0,0.0,0.0,0.0,0.0,0.0,0.0,0.0,0.0,0.0,0.0,0.0,0.0,0.0,0.0,0.0,0.0,0.0,0.0,0.0,0.0,0.0,0.0,0.0,0.0,0.0,0.0,0.0,0.0,0.0,0.0,0.0,0.0,0.0,0.0,0.0,0.0,0.0,0.0,0.0,0.0,0.0,0.0,0.0,0.0,0.0,0.0,0.0,0.0,0.0,0.0,0.0,0.0,0.0,0.0,0.0,0.0,0.0,0.0,0.0,0.0,0.0,0.0,0.0,0.0,0.0,0.0,0.0,0.0,0.0,0.0,0.0,0.0,0.0,0.0,0.0,0.0,0.0,0.0,0.0,0.0,0.0,0.0,0.0,0.0,0.0,0.0,0.0,0.0,0.0,0.0,0.0,0.0,0.0,0.0,0.0,0.0,6.8696,6.8265,6.9215,7.1296,6.7888,6.5041,0.0,0.0,0.0,0.0,0.0,0.0,0.0,0.0,0.0,0.0,0.0,0.0,0.0,0.0,0.0,0.0,0.0,0.0,0.0,0.0,0.0,0.0,0.0,0.0,0.0,0.0,0.0,0.0,0.0,0.0,0.0,0.0,0.0,0.0,0.0,0.0,0.0,0.0,0.0,0.0,0.0,0.0,0.0,0.0,0.0,0.0,0.0,0.0,0.0,0.0,0.0,0.0,0.0,0.0,0.0,0.0,0.0,0.0,0.0,0.0,0.0,0.0,0.0,0.0,0.0,0.0,0.0,0.0,0.0,0.0,0.0,0.0,0.0,0.0,0.0,0.0,0.0,0.0,0.0,0.0,0.0,0.0,0.0,0.0,0.0,0.0,0.0,0.0,0.0,0.0,0.0,0.0,0.0,0.0,0.0,0.0,0.0,0.0,0.0,0.0,0.0,0.0,0.0,0.0,0.0,0.0,0.0,0.0,0.0,0.0,6.91,6.91,6.7797,7.0191,6.8766,0.0,0.0,0.0,0.0,0.0,0.0,0.0,0.0,0.0,0.0,0.0,0.0,0.0,0.0,0.0,0.0,0.0,0.0,0.0,0.0,0.0,0.0,0.0,0.0,0.0,0.0,0.0,0.0,0.0,0.0,0.0,0.0,0.0,0.0,0.0,0.0,0.0,0.0,0.0,0.0,0.0,0.0,0.0,0.0,0.0,0.0,0.0,0.0,0.0,0.0,0.0,0.0,0.0,0.0,0.0,0.0,0.0,0.0,0.0,0.0,0.0,0.0,0.0,0.0,0.0,0.0,0.0,0.0,0.0,0.0,0.0,0.0,0.0,0.0,0.0,0.0,0.0,0.0,0.0,0.0,0.0,0.0,0.0,0.0,0.0,0.0,0.0,0.0,0.0,0.0,0.0,0.0,0.0,0.0,0.0,0.0,0.0,0.0,0.0,0.0,0.0,0.0,0.0,0.0,0.0,0.0,0.0,0.0,0.0,0.0,7.2761,0.0,7.0649,6.9276,6.7607,6.5657,0.0,0.0,0.0,0.0,0.0,0.0,0.0,0.0,0.0,0.0,0.0,0.0,0.0,0.0,0.0,0.0,0.0,0.0,0.0,0.0,0.0,0.0,0.0,0.0,0.0,0.0,0.0,0.0,0.0,0.0,0.0,0.0,0.0,0.0,0.0,0.0,0.0,0.0,0.0,0.0,0.0,0.0,0.0,0.0,0.0,0.0,0.0,0.0,0.0,0.0,0.0,0.0,0.0,0.0,0.0,0.0,0.0,0.0,0.0,0.0,0.0,0.0,0.0,0.0,0.0,0.0,0.0,0.0,0.0,0.0,0.0,0.0,0.0,0.0,0.0,0.0,0.0,0.0,0.0,0.0,0.0,0.0,0.0,0.0,0.0,0.0,0.0,0.0,0.0,0.0,0.0,0.0,0.0,0.0,0.0,0.0,0.0,0.0,0.0,0.0,0.0,0.0,0.0,0.0,0.0,0.0,0.0,0.0,0.0,0.0,0.0,7.1979,7.0121,6.8415,0.0,0.0,0.0,0.0,0.0,0.0,0.0,0.0,0.0,0.0,0.0,0.0,0.0,0.0,0.0,0.0,0.0,0.0,0.0,0.0,0.0,0.0,0.0,0.0,0.0,0.0,0.0,0.0,0.0,0.0,0.0,0.0,0.0,0.0,0.0,0.0,0.0,0.0,0.0,0.0,0.0,0.0,0.0,0.0,0.0,0.0,0.0,0.0,0.0,0.0,0.0,0.0,0.0,0.0,0.0,0.0,0.0,0.0,0.0,0.0,0.0,0.0,0.0,0.0,0.0,0.0,0.0,0.0,0.0,0.0,0.0,0.0,0.0,0.0,0.0,0.0,0.0,0.0,0.0,0.0,0.0,0.0,0.0,0.0,0.0,0.0,0.0,0.0,0.0,0.0,0.0,0.0,0.0,0.0,0.0,0.0,0.0,0.0,0.0,0.0,0.0,0.0,0.0,0.0,0.0,0.0,0.0,0.0,0.0,0.0,0.0,7.181,7.2155,7.181,0.0,6.7196,0.0,0.0,0.0,0.0,0.0,0.0,0.0,0.0,0.0,0.0,0.0,0.0,0.0,0.0,0.0,0.0,0.0,0.0,0.0,0.0,0.0,0.0,0.0,0.0,0.0,0.0,0.0,0.0,0.0,0.0,0.0,0.0,0.0,0.0,0.0,0.0,0.0,0.0,0.0,0.0,0.0,0.0,0.0,0.0,0.0,0.0,0.0,0.0,0.0,0.0,0.0,0.0,0.0,0.0,0.0,0.0,0.0,0.0,0.0,0.0,0.0,0.0,0.0,0.0,0.0,0.0,0.0,0.0,0.0,0.0,0.0,0.0,0.0,0.0,0.0,0.0,0.0,0.0,0.0,0.0,0.0,0.0,0.0,0.0,0.0,0.0,0.0,0.0,0.0,0.0,0.0,0.0,0.0,0.0,0.0,0.0,0.0,0.0,0.0,0.0,0.0,0.0,0.0,0.0,0.0,0.0,0.0,0.0,0.0,0.0,0.0,0.0,7.1388,6.9707,6.8907,0.0,0.0,0.0,0.0,0.0,0.0,0.0,0.0,0.0,0.0,0.0,0.0,0.0,0.0,0.0,0.0,0.0,0.0,0.0,0.0,0.0,0.0,0.0,0.0,0.0,0.0,0.0,0.0,0.0,0.0,0.0,0.0,0.0,0.0,0.0,0.0,0.0,0.0,0.0,0.0,0.0,0.0,0.0,0.0,0.0,0.0,0.0,0.0,0.0,0.0,0.0,0.0,0.0,0.0,0.0,0.0,0.0,0.0,0.0,0.0,0.0,0.0,0.0,0.0,0.0,0.0,0.0,0.0,0.0,0.0,0.0,0.0,0.0,0.0,0.0,0.0,0.0,0.0,0.0,0.0,0.0,0.0,0.0,0.0,0.0,0.0,0.0,0.0,0.0,0.0,0.0,0.0,0.0,0.0,0.0,0.0,0.0,0.0,0.0,0.0,0.0,0.0,0.0,0.0,0.0,0.0,0.0,0.0,0.0,0.0,7.181,7.4098,7.1916,7.0297,6.9628,0.0,0.0,0.0,0.0,0.0,0.0,0.0,0.0,0.0,0.0,0.0,0.0,0.0,0.0,0.0,0.0,0.0,0.0,0.0,0.0,0.0,0.0,0.0,0.0,0.0,0.0,0.0,0.0,0.0,0.0,0.0,0.0,0.0,0.0,0.0,0.0,0.0,0.0,0.0,0.0,0.0,0.0,0.0,0.0,0.0,0.0,0.0,0.0,0.0,0.0,0.0,0.0,0.0,0.0,0.0,0.0,0.0,0.0,0.0,0.0,0.0,0.0,0.0,0.0,0.0,0.0,0.0,0.0,0.0,0.0,0.0,0.0,0.0,0.0,0.0,0.0,0.0,0.0,0.0,0.0,0.0,0.0,0.0,0.0,0.0,0.0,0.0,0.0,0.0,0.0,0.0,0.0,0.0,0.0,0.0,0.0,0.0,0.0,0.0,0.0,0.0,0.0,0.0,0.0,0.0,0.0,0.0,0.0,0.0,0.0,0.0,0.0,0.0,0.0,6.9663,0.0,0.0,0.0,0.0,0.0,0.0,0.0,0.0,0.0,0.0,0.0,0.0,0.0,0.0,0.0,0.0,0.0,0.0,0.0,0.0,0.0,0.0,0.0,0.0,0.0,0.0,0.0,0.0,0.0,0.0,0.0,0.0,0.0,0.0,0.0,0.0,0.0,0.0,0.0,0.0,0.0,0.0,0.0,0.0,0.0,0.0,0.0,0.0,0.0,0.0,0.0,0.0,0.0,0.0,0.0,0.0,0.0,0.0,0.0,0.0,0.0,0.0,0.0,0.0,0.0,0.0,0.0,0.0,0.0,0.0,0.0,0.0,0.0,0.0,0.0,0.0,0.0,0.0,0.0,0.0,0.0,0.0,0.0,0.0,0.0,0.0,0.0,0.0,0.0,0.0,0.0,0.0,0.0,0.0,0.0,0.0,0.0,0.0,0.0,0.0,0.0,0.0,0.0,0.0,0.0,0.0,0.0,0.0,0.0,0.0,0.0,0.0,0.0,0.0,0.0,0.0,0.0,0.0,0.0,0.0,0.0,0.0,0.0,0.0,0.0,0.0,0.0,0.0,0.0,0.0,0.0,0.0,0.0,0.0,0.0,0.0,0.0,0.0,0.0,0.0,0.0,0.0,0.0,0.0,0.0,0.0,0.0,0.0,0.0,0.0,0.0,0.0,0.0,0.0,0.0,0.0,0.0,0.0,0.0,0.0,0.0,0.0,0.0,0.0,0.0,0.0,0.0,0.0,0.0,0.0,0.0,0.0,0.0,0.0,0.0,0.0,0.0,0.0,0.0,0.0,0.0,0.0,0.0,0.0,0.0,0.0,0.0,0.0,0.0,0.0,0.0,0.0,0.0,0.0,0.0,0.0,0.0,0.0,0.0,0.0,0.0,0.0,0.0,0.0,0.0,0.0,0.0,0.0,0.0,0.0,0.0,0.0,0.0,0.0,0.0,0.0,0.0,0.0,0.0,0.0,0.0,0.0,0.0,0.0,0.0,0.0,0.0,0.0,0.0,0.0,0.0,0.0,0.0,0.0,0.0,0.0,0.0,0.0,0.0,0.0,0.0,0.0,0.0,0.0,0.0,0.0,0.0,0.0,0.0,0.0,0.0,0.0,0.0,0.0,0.0,0.0,0.0,0.0,0.0,0.0,0.0,0.0,0.0,0.0,0.0,0.0,0.0,0.0,0.0,0.0,0.0,0.0,0.0,0.0,0.0,0.0,0.0,0.0,0.0,0.0,0.0,0.0,0.0,0.0,0.0,0.0,0.0,0.0,0.0,0.0,0.0,0.0,0.0,0.0,0.0,0.0,0.0,0.0,0.0,0.0,0.0,0.0,0.0,0.0,0.0,0.0,0.0,0.0,0.0,0.0,0.0,0.0,0.0,0.0,0.0,0.0,0.0,0.0,0.0,0.0,0.0,0.0,0.0,0.0,0.0,0.0,0.0,0.0,0.0,0.0,0.0,0.0,0.0,0.0,0.0,0.0,0.0,0.0,0.0,0.0,0.0,0.0,0.0,0.0,0.0,0.0,0.0,0.0,0.0,0.0,0.0,0.0,0.0,0.0,0.0,0.0,0.0,0.0,0.0,0.0,0.0,0.0,0.0,0.0,0.0,0.0,0.0,0.0,0.0,0.0,0.0,0.0,0.0,0.0,0.0,0.0,0.0,0.0,0.0,0.0,0.0,0.0,0.0,0.0,0.0,0.0,0.0,0.0,0.0,0.0,0.0,0.0,0.0,0.0,0.0,0.0,0.0,0.0,0.0,0.0,0.0,0.0,0.0,0.0,0.0,0.0,0.0,0.0,0.0,0.0,0.0,0.0,0.0,0.0,0.0,0.0,0.0,0.0,0.0,0.0,0.0,0.0,0.0,0.0,0.0,0.0,0.0,0.0,0.0,0.0,0.0,0.0,0.0,0.0,0.0,0.0,0.0,0.0,0.0,0.0,0.0,0.0,0.0,0.0,0.0,0.0,0.0,0.0,0.0,0.0,0.0,0.0,0.0,0.0,0.0,0.0,0.0,0.0,0.0,0.0,0.0,0.0,0.0,0.0,0.0,0.0,0.0,0.0,0.0,0.0,0.0,0.0,0.0,0.0,0.0,0.0,0.0,0.0,0.0,0.0,0.0,0.0,0.0,0.0,0.0,0.0,0.0,0.0,0.0,0.0,0.0,0.0,0.0,0.0,0.0,0.0,0.0,0.0,0.0,0.0,0.0,0.0,0.0,0.0,0.0,0.0,0.0,0.0,0.0,0.0,0.0,0.0,0.0,0.0,0.0,0.0,0.0,0.0,0.0,0.0,0.0,0.0,0.0,0.0,0.0,0.0,0.0,0.0,0.0,0.0,0.0,0.0,0.0,0.0,0.0,0.0,0.0,0.0,0.0,0.0,0.0,0.0,0.0,0.0,0.0,0.0,0.0,0.0,0.0,0.0,0.0,0.0,0.0,0.0,0.0,0.0,0.0,0.0,0.0,0.0,0.0,0.0,0.0,0.0,0.0,0.0,0.0,0.0,0.0,0.0,0.0,0.0,0.0,0.0,0.0,0.0,0.0,0.0,0.0,0.0,0.0,0.0,0.0,0.0,0.0,0.0,0.0,0.0,0.0,0.0,0.0,0.0,0.0,0.0,0.0,0.0,0.0,0.0,0.0,0.0,0.0,0.0,0.0,0.0,0.0,0.0,0.0,0.0,0.0,0.0,0.0,0.0,0.0,0.0,0.0,0.0,0.0,0.0,0.0,0.0,0.0,0.0,0.0,0.0,0.0,0.0,0.0,0.0,0.0,0.0,0.0,0.0,0.0,0.0,0.0,0.0,0.0,0.0,0.0,0.0,0.0,0.0,0.0,0.0,0.0,0.0,0.0,0.0,0.0,0.0,0.0,0.0,0.0,0.0,0.0,0.0,0.0,0.0,0.0,0.0,0.0,0.0,0.0,0.0,0.0,0.0,0.0,0.0,0.0,0.0,0.0,0.0,0.0,0.0,0.0,0.0,0.0,0.0,0.0,0.0,0.0,0.0,0.0,0.0,0.0,0.0,0.0,0.0,0.0,0.0,0.0,0.0,0.0,0.0,0.0,0.0,0.0,0.0,0.0,0.0,0.0,0.0,0.0,0.0,0.0,0.0,0.0,0.0,0.0,0.0,0.0,0.0,0.0,0.0,0.0,0.0,0.0,0.0,0.0,0.0,0.0,0.0,0.0,0.0,0.0,0.0,0.0,0.0,0.0,0.0,0.0,0.0,0.0,0.0,0.0,0.0,0.0,0.0,0.0,0.0,0.0,0.0,0.0,0.0,0.0,0.0,0.0,0.0,0.0,0.0,0.0,0.0,0.0,0.0,0.0,0.0,0.0,0.0,0.0,0.0,0.0,0.0,0.0,0.0,0.0,0.0,0.0,0.0,0.0,0.0,0.0,0.0,0.0,0.0,0.0,0.0,0.0,0.0,0.0,0.0,0.0,0.0,0.0,0.0,0.0,0.0,0.0,0.0,0.0,0.0,0.0,0.0,0.0,0.0,0.0,0.0,0.0,0.0,0.0,0.0,0.0,0.0,0.0,0.0,0.0,0.0,0.0,0.0,0.0,0.0,0.0,0.0,0.0,0.0,0.0,0.0,0.0,0.0,0.0,0.0,0.0,0.0,0.0,0.0,0.0,0.0,0.0,0.0,0.0,0.0,0.0,0.0,0.0,0.0,0.0,0.0,0.0,0.0,0.0,0.0,0.0,0.0,0.0,0.0,0.0,0.0,0.0,0.0,0.0,0.0,0.0,0.0,0.0,0.0,0.0,0.0,0.0,0.0,0.0,0.0,0.0,0.0,0.0,0.0,0.0,0.0,0.0,0.0,0.0,0.0,0.0,0.0,0.0,0.0,0.0,0.0,0.0,0.0,0.0,0.0,0.0,0.0,0.0,0.0,0.0,0.0,0.0,0.0,0.0,0.0,0.0,0.0,0.0,0.0,0.0,0.0,0.0,0.0,0.0,0.0,0.0,0.0,0.0,0.0,0.0,0.0,0.0,0.0,0.0,0.0,0.0,0.0,0.0,0.0,0.0,0.0,0.0,0.0,0.0,0.0,0.0,0.0,0.0,0.0,0.0,0.0,0.0,0.0,0.0,0.0,0.0,0.0,0.0,0.0,0.0,0.0,0.0,0.0,0.0,0.0,0.0,0.0,0.0,0.0,0.0,0.0,0.0,0.0,0.0,0.0,0.0,0.0,0.0,0.0,0.0,0.0,0.0,0.0,0.0,0.0,0.0,0.0,0.0,0.0,0.0,0.0,0.0,0.0,0.0,0.0,0.0,0.0,0.0,0.0,0.0,0.0,0.0,0.0,0.0,0.0,0.0,0.0,0.0,0.0,0.0,0.0,0.0,0.0]}],[{"header":{"parameterUnit":"kt","parameterCategory":2,"dx":1,"dy":1,"la1":29.587661999999998,"la2":31.0,"lo1":-88.76705300000003,"lo2":-86.6583820000003,"nx":115,"ny":88,"refTime":"2022-10-12T06:00:00:Z","depth":0,"parameterNumber":2,"parameterNumberName":"V-component_of_WINDS"},"data":[-5.4579,-5.5521,-5.5671,-5.622,-5.6648,-5.5964,-5.5211,-5.4938,-5.3924,-5.3132,-5.3132,-5.3132,-5.3376,-5.3861,-5.3861,-5.3618,-5.2827,-5.2549,-5.2642,-5.2704,-5.2395,-5.2534,-5.2534,-5.2605,-5.2861,-5.2584,-5.2441,-5.2997,-5.3897,-5.4032,-5.4627,-5.5937,-5.5355,-5.5821,-5.6736,-5.6653,-5.637,-5.622,-5.6403,-5.6653,-5.652,-5.6453,-5.6403,-5.6204,-5.5704,-5.5571,-5.5088,-5.3757,-5.363,-5.4106,-5.4905,-5.6017,-5.6983,-5.7765,-5.8745,-5.9713,-6.0333,-6.0583,-6.0833,-6.0957,-6.0993,-6.0993,-6.0993,-6.0993,-6.0975,-6.0975,-6.0726,-6.0654,-6.0295,-6.0389,-5.9872,-5.9275,-5.8691,-5.8594,-5.8679,-5.8806,-5.9304,-6.0967,-6.3087,-6.4809,-6.6499,-6.7632,-6.8567,-6.9859,-7.0972,-7.1652,-7.2055,-7.2416,-7.2501,-7.2586,-7.2649,-7.2649,-7.2649,-7.2649,-7.2649,-7.2649,-7.2649,-7.2649,-7.3331,-7.4938,-7.6777,-7.8616,-8.0408,-8.198,-8.2662,-8.3317,-8.3559,-8.3559,-8.3534,-8.3943,-8.4159,-8.4591,-8.502,-8.5473,-8.6112,-5.4439,-5.4073,-5.4689,-5.5721,-5.6853,-5.6714,-5.5964,-5.5211,-5.5484,-5.4938,-5.3876,-5.4407,-5.4392,-5.4118,-5.3861,-5.3376,-5.3039,-5.2534,-5.2209,-5.2148,-5.2148,-5.2318,-5.2472,-5.2549,-5.2302,-5.2093,-5.1785,-5.2584,-5.3696,-5.3978,-5.4542,-5.5703,-5.6237,-5.6486,-5.637,-5.6353,-5.627,-5.5871,-5.5921,-5.6104,-5.607,-5.5987,-5.6353,-5.647,-5.6204,-5.5538,-5.4872,-5.4007,-5.3274,-5.3479,-5.3767,-5.4752,-5.5896,-5.7018,-5.8114,-5.9323,-5.9924,-6.0458,-6.0868,-6.0904,-6.0993,-6.0993,-6.0993,-6.0975,-6.0957,-6.0797,-6.044,-6.0013,-5.9264,-5.8863,-5.8585,-5.8276,-5.7912,-5.7584,-5.7814,-5.7953,-5.8621,-5.9532,-6.1565,-6.3615,-6.5093,-6.6582,-6.7878,-6.9099,-7.0272,-7.11,-7.163,-7.2034,-7.2331,-7.2373,-7.2543,-7.2649,-7.2649,-7.2649,-7.2649,-7.2649,-7.2649,-7.2649,-7.2863,-7.4031,-7.5422,-7.7461,-7.9515,-8.1074,-8.22,-8.2881,-8.3099,-8.3317,-8.3727,-8.4135,-8.4591,-8.507,-8.5498,-8.5899,-8.6536,-5.3152,-5.3258,-5.4306,-5.5421,-5.637,-5.6327,-5.6236,-5.5468,-5.5468,-5.5195,-5.5179,-5.5708,-5.5452,-5.4681,-5.4407,-5.4166,-5.2812,-5.2503,-5.2271,-5.2333,-5.2534,-5.2348,-5.2487,-5.2734,-5.2333,-5.1993,-5.1782,-5.1957,-5.3157,-5.3599,-5.464,-5.5621,-5.5671,-5.5904,-5.662,-5.632,-5.6004,-5.5455,-5.5804,-5.5971,-5.5971,-5.5688,-5.5804,-5.652,-5.6287,-5.5571,-5.4822,-5.4057,-5.3341,-5.2991,-5.3145,-5.4258,-5.5259,-5.6066,-5.6962,-5.8194,-5.9335,-5.9906,-6.0333,-6.069,-6.0993,-6.0993,-6.0993,-6.0797,-6.0797,-5.9995,-5.9656,-5.9282,-5.8533,-5.8344,-5.8062,-5.7753,-5.739,-5.7475,-5.7705,-5.7934,-5.8392,-5.9286,-6.1077,-6.3091,-6.4665,-6.5863,-6.7022,-6.8457,-6.9168,-6.9974,-7.1163,-7.163,-7.1949,-7.2119,-7.2437,-7.2649,-7.2649,-7.2649,-7.2649,-7.2649,-7.2649,-7.2649,-7.2649,-7.3331,-7.4031,-7.6548,-7.8616,-7.9986,-8.1343,-8.2224,-8.2662,-8.2881,-8.3293,-8.3914,-8.4657,-8.5373,-8.5711,-8.6112,-8.5701,-5.2154,-5.2758,-5.4007,-5.5088,-5.5987,-5.6195,-5.6236,-5.5997,-5.5724,-5.5708,-5.6236,-5.6475,-5.6203,-5.4874,-5.4729,-5.3818,-5.2713,-5.2148,-5.2364,-5.2209,-5.2426,-5.2225,-5.2318,-5.2302,-5.2132,-5.1808,-5.1844,-5.2098,-5.3164,-5.401,-5.4939,-5.6087,-5.5987,-5.5921,-5.6486,-5.657,-5.607,-5.5438,-5.5688,-5.5854,-5.5688,-5.5338,-5.5438,-5.6104,-5.6603,-5.5921,-5.5172,-5.4389,-5.364,-5.2925,-5.318,-5.3765,-5.4984,-5.4959,-5.6028,-5.7263,-5.8426,-5.905,-5.9603,-6.0155,-6.0316,-6.0423,-6.0512,-6.053,-6.0155,-5.9264,-5.864,-5.8319,-5.7927,-5.8025,-5.7827,-5.7376,-5.7245,-5.7475,-5.7934,-5.7934,-5.8182,-5.9513,-6.1077,-6.2848,-6.4379,-6.5424,-6.6249,-6.7264,-6.7886,-6.8998,-7.0166,-7.0951,-7.1185,-7.1673,-7.1949,-7.2161,-7.2289,-7.2586,-7.2649,-7.2649,-7.2649,-7.2649,-7.2649,-7.2649,-7.2863,-7.4475,-7.6319,-7.839,-8.0455,-8.1366,-8.2004,-8.2224,-8.2856,-8.3379,-8.3948,-8.4424,-8.4946,-8.5063,-8.4361,-5.2625,-5.2708,-5.3441,-5.4556,-5.5937,-5.662,-5.6426,-5.5997,-5.6459,-5.6698,-5.6664,-5.6969,-5.6105,-5.4776,-5.4168,-5.3201,-5.2315,-5.1499,-5.136,-5.102,-5.1669,-5.17,-5.1561,-5.1576,-5.1545,-5.1159,-5.1239,-5.1989,-5.2995,-5.4593,-5.5832,-5.6853,-5.6653,-5.647,-5.6453,-5.657,-5.6337,-5.5738,-5.5738,-5.5754,-5.5388,-5.5488,-5.5937,-5.6154,-5.6387,-5.6437,-5.5738,-5.5072,-5.4373,-5.3607,-5.3295,-5.3096,-5.4204,-5.4914,-5.6185,-5.7405,-5.8088,-5.8551,-5.8908,-5.9514,-5.9496,-5.9496,-5.9514,-5.9442,-5.9104,-5.8355,-5.8147,-5.7807,-5.7428,-5.7342,-5.7324,-5.6929,-5.6817,-5.7166,-5.7714,-5.8053,-5.8528,-5.9664,-6.1019,-6.2645,-6.4199,-6.532,-6.6124,-6.6821,-6.7724,-6.8191,-6.9062,-6.9762,-7.0272,-7.0972,-7.1269,-7.1524,-7.1928,-7.2373,-7.248,-7.2649,-7.2649,-7.2649,-7.2649,-7.2649,-7.2649,-7.3331,-7.4264,-7.6548,-7.8841,-7.9986,-8.1366,-8.198,-8.2469,-8.2924,-8.3503,-8.37,-8.3596,-8.3706,-8.3072,-5.2642,-5.2675,-5.2925,-5.3624,-5.4689,-5.5837,-5.6353,-5.6217,-5.6565,-5.6686,-5.6387,-5.6353,-5.5585,-5.4455,-5.3663,-5.2723,-5.1691,-5.1069,-5.0681,-5.0742,-5.1128,-5.0943,-5.0959,-5.1082,-5.0974,-5.1208,-5.1395,-5.1861,-5.302,-5.4934,-5.6432,-5.6903,-5.6969,-5.6769,-5.6686,-5.6719,-5.6553,-5.6253,-5.5937,-5.5771,-5.5521,-5.5338,-5.5654,-5.5887,-5.6137,-5.5854,-5.5238,-5.5022,-5.4123,-5.3125,-5.2908,-5.2861,-5.318,-5.4473,-5.5636,-5.6749,-5.7535,-5.7892,-5.8106,-5.8712,-5.8872,-5.8908,-5.8997,-5.848,-5.7892,-5.7753,-5.7683,-5.7414,-5.7055,-5.6948,-5.6733,-5.6731,-5.6636,-5.6575,-5.7212,-5.7869,-5.8796,-5.972,-6.1146,-6.2566,-6.3716,-6.5039,-6.6019,-6.6674,-6.7321,-6.7724,-6.8255,-6.8807,-6.9359,-6.9826,-7.0017,-7.0675,-7.1376,-7.2034,-7.2458,-7.2649,-7.2649,-7.2649,-7.2649,-7.2649,-7.2649,-7.3097,-7.3565,-7.5169,-7.7005,-7.8616,-7.9762,-8.1074,-8.2056,-8.283,-8.325,-8.2809,-8.2436,-8.2288,-8.1656,-5.2442,-5.2625,-5.2642,-5.3041,-5.3774,-5.4822,-5.5421,-5.5654,-5.6104,-5.612,-5.5604,-5.5621,-5.5107,-5.3774,-5.2841,-5.2039,-5.1452,-5.0849,-5.0541,-5.0341,-5.0372,-5.0356,-5.0603,-5.0603,-5.0603,-5.0756,-5.1184,-5.1934,-5.3119,-5.4248,-5.572,-5.6786,-5.6952,-5.6969,-5.6919,-5.6952,-5.6919,-5.6753,-5.6453,-5.5987,-5.5488,-5.5388,-5.5138,-5.5238,-5.5388,-5.5405,-5.4889,-5.4622,-5.4057,-5.3058,-5.2572,-5.2609,-5.2844,-5.3548,-5.4716,-5.5966,-5.6769,-5.7179,-5.7286,-5.7892,-5.8177,-5.7963,-5.8165,-5.7467,-5.7252,-5.7178,-5.7427,-5.7282,-5.7155,-5.73,-5.7457,-5.6893,-5.6366,-5.6651,-5.7359,-5.7862,-5.86,-5.9599,-6.1052,-6.2491,-6.3609,-6.4803,-6.6414,-6.6891,-6.7151,-6.7278,-6.7533,-6.7873,-6.8234,-6.8276,-6.8616,-6.9741,-7.0526,-7.1206,-7.1737,-7.2416,-7.2501,-7.2607,-7.2649,-7.2649,-7.2649,-7.2884,-7.3119,-7.4053,-7.5422,-7.68,-7.8321,-7.9845,-8.1278,-8.1889,-8.2185,-8.1599,-8.128,-8.0728,-8.017,-5.196,-5.2592,-5.2642,-5.3025,-5.3574,-5.3724,-5.4206,-5.4839,-5.4905,-5.4922,-5.4839,-5.4839,-5.4411,-5.3561,-5.2293,-5.1308,-5.0743,-4.9501,-4.9393,-4.9198,-4.9662,-4.9656,-4.9641,-5.0281,-5.0281,-5.0385,-5.0784,-5.1729,-5.2584,-5.3741,-5.5223,-5.6134,-5.662,-5.6886,-5.6936,-5.6952,-5.6903,-5.6786,-5.652,-5.5971,-5.5502,-5.5552,-5.5168,-5.5161,-5.485,-5.4934,-5.4783,-5.4173,-5.374,-5.3086,-5.2467,-5.2692,-5.281,-5.3079,-5.4016,-5.4967,-5.6127,-5.6501,-5.6626,-5.7143,-5.725,-5.7414,-5.7394,-5.7657,-5.7705,-5.7705,-5.7824,-5.7623,-5.7549,-5.7659,-5.7641,-5.6963,-5.6266,-5.6636,-5.7039,-5.7936,-5.8418,-5.9639,-6.1096,-6.2505,-6.3658,-6.4814,-6.6463,-6.6891,-6.713,-6.7215,-6.7299,-6.7512,-6.7554,-6.7491,-6.7682,-6.8786,-6.972,-7.0399,-7.1185,-7.1928,-7.2119,-7.2182,-7.231,-7.2416,-7.2607,-7.2649,-7.2884,-7.3353,-7.4053,-7.5224,-7.6714,-7.8419,-7.968,-8.0375,-8.0566,-8.02,-7.9912,-7.9306,-7.9299,-5.1627,-5.1943,-5.2426,-5.2775,-5.2958,-5.3431,-5.3834,-5.4057,-5.4573,-5.4506,-5.4123,-5.4057,-5.3599,-5.245,-5.1423,-5.0816,-5.0082,-4.9129,-4.8812,-4.9337,-4.9346,-4.9493,-4.9893,-5.0227,-5.0227,-5.0593,-5.0988,-5.1494,-5.2123,-5.3243,-5.4163,-5.5122,-5.5754,-5.6453,-5.6853,-5.6886,-5.6819,-5.6486,-5.632,-5.6104,-5.5598,-5.5321,-5.5186,-5.5276,-5.5347,-5.5056,-5.4489,-5.4031,-5.3218,-5.2296,-5.1796,-5.1429,-5.2121,-5.2609,-5.3565,-5.45,-5.5414,-5.5896,-5.6341,-5.6733,-5.7144,-5.7282,-5.7723,-5.7934,-5.8163,-5.809,-5.8115,-5.8157,-5.7986,-5.7597,-5.7266,-5.7169,-5.6341,-5.5509,-5.6254,-5.7773,-5.8366,-5.9463,-6.0913,-6.2924,-6.4306,-6.5301,-6.6442,-6.6764,-6.7108,-6.7108,-6.7108,-6.7151,-6.7193,-6.6811,-6.6705,-6.7936,-6.8955,-6.9465,-7.0187,-7.1142,-7.1588,-7.1779,-7.1885,-7.197,-7.2161,-7.2373,-7.2543,-7.2863,-7.301,-7.3843,-7.5315,-7.6138,-7.6935,-7.7473,-7.7732,-7.799,-7.8595,-7.8424,-7.8585,-5.15,-5.1757,-5.2491,-5.2592,-5.1893,-5.2306,-5.2326,-5.2423,-5.283,-5.2837,-5.2847,-5.3052,-5.2263,-5.1543,-5.0955,-5.0497,-5.0021,-4.9529,-4.9513,-4.9989,-4.9799,-5.0227,-5.0465,-5.0513,-5.0734,-5.1176,-5.1649,-5.2137,-5.2137,-5.3152,-5.364,-5.404,-5.5305,-5.612,-5.6536,-5.6869,-5.6819,-5.6353,-5.5954,-5.582,-5.554,-5.4865,-5.5007,-5.5349,-5.5176,-5.4751,-5.4242,-5.3546,-5.2821,-5.178,-5.1225,-5.116,-5.1649,-5.2137,-5.3079,-5.425,-5.4716,-5.5414,-5.611,-5.6785,-5.7245,-5.7705,-5.8392,-5.8621,-5.8774,-5.8663,-5.8422,-5.831,-5.7693,-5.7207,-5.6808,-5.6633,-5.6446,-5.5422,-5.5783,-5.7305,-5.8409,-5.9303,-6.0847,-6.3073,-6.4203,-6.5093,-6.6378,-6.6849,-6.7108,-6.7108,-6.7108,-6.7108,-6.6684,-6.6217,-6.5983,-6.7215,-6.8021,-6.8488,-6.9168,-7.0187,-7.076,-7.0845,-7.0993,-7.1248,-7.1652,-7.197,-7.2139,-7.1837,-7.1922,-7.2131,-7.2593,-7.3297,-7.3846,-7.4006,-7.338,-7.3301,-7.5177,-7.6319,-7.7173,-5.1538,-5.2311,-5.2837,-5.2251,-5.0611,-5.0462,-5.0302,-5.0194,-5.0059,-5.0375,-5.0875,-5.1396,-5.1348,-5.0939,-5.0686,-5.0686,-5.0465,-5.0449,-5.0686,-5.0686,-5.0465,-5.0686,-5.0923,-5.1413,-5.1429,-5.1902,-5.2137,-5.239,-5.2659,-5.3191,-5.3541,-5.404,-5.4939,-5.5821,-5.5971,-5.6603,-5.6936,-5.6819,-5.612,-5.582,-5.5346,-5.4971,-5.4667,-5.4971,-5.5132,-5.469,-5.3986,-5.3297,-5.2775,-5.1902,-5.116,-5.1176,-5.1665,-5.1902,-5.2827,-5.4215,-5.4466,-5.5164,-5.6323,-5.7015,-5.7475,-5.7934,-5.8392,-5.8756,-5.9325,-5.9097,-5.8473,-5.7868,-5.7376,-5.6903,-5.6569,-5.6303,-5.5958,-5.5734,-5.6227,-5.7045,-5.8148,-5.9114,-6.0971,-6.3032,-6.3873,-6.4697,-6.5972,-6.7087,-6.7066,-6.7108,-6.7108,-6.6747,-6.6174,-6.5792,-6.5601,-6.6429,-6.6981,-6.7533,-6.8297,-6.9274,-7.003,-7.0115,-7.0243,-7.0726,-7.1089,-7.1538,-7.1466,-7.0985,-7.092,-7.1274,-7.1015,-7.0544,-7.0716,-7.0807,-6.9676,-7.0264,-7.2216,-7.3915,-7.5538,-5.116,-5.159,-5.2087,-5.1931,-5.1087,-5.107,-5.0412,-4.9783,-4.9525,-4.9783,-4.9964,-5.0246,-5.0439,-5.059,-5.0686,-5.0686,-5.0686,-5.0923,-5.116,-5.116,-5.1176,-5.1413,-5.1649,-5.1885,-5.1902,-5.239,-5.2642,-5.2642,-5.2642,-5.2825,-5.3125,-5.3724,-5.4606,-5.5039,-5.5405,-5.622,-5.6703,-5.6204,-5.5886,-5.5402,-5.6538,-5.5503,-5.4713,-5.6799,-5.5887,-5.5519,-5.4483,-5.3297,-5.2592,-5.2105,-5.1413,-5.1192,-5.1682,-5.2137,-5.2827,-5.3765,-5.4466,-5.5164,-5.6092,-5.7015,-5.7457,-5.7916,-5.8374,-5.8495,-5.8629,-5.8253,-5.7754,-5.7328,-5.7157,-5.6702,-5.5544,-5.5828,-5.5847,-5.562,-5.6087,-5.694,-5.7964,-5.9046,-6.0899,-6.3129,-6.3776,-6.4531,-6.5762,-6.6875,-6.6939,-6.7108,-6.7087,-6.679,-6.6026,-6.5495,-6.5515,-6.5813,-6.6133,-6.6772,-6.7384,-6.822,-6.9016,-6.9102,-6.9537,-6.9837,-7.0404,-7.1145,-7.1305,-7.0201,-6.9988,-7.0468,-7.0095,-6.9394,-6.8637,-6.8021,-6.8516,-6.8984,-7.0838,-7.2628,-7.4,-5.1481,-5.1525,-5.1243,-5.0872,-5.0414,-5.0193,-4.9546,-4.874,-4.8777,-4.8941,-4.9558,-4.9897,-5.0149,-5.0504,-5.0714,-5.116,-5.116,-5.1396,-5.1649,-5.1885,-5.1649,-5.1902,-5.2154,-5.239,-5.2154,-5.2625,-5.2642,-5.2642,-5.2609,-5.2692,-5.2875,-5.2825,-5.3141,-5.384,-5.4789,-5.5571,-5.6187,-5.5987,-5.5771,-5.5917,-5.6989,-5.6,-5.6131,-5.7787,-5.682,-5.6518,-5.5234,-5.3548,-5.3045,-5.2794,-5.1649,-5.1885,-5.2592,-5.2827,-5.3765,-5.4949,-5.4932,-5.5646,-5.6572,-5.6785,-5.7245,-5.7668,-5.785,-5.7953,-5.803,-5.739,-5.6922,-5.6487,-5.636,-5.5999,-5.5145,-5.5411,-5.5658,-5.543,-5.5788,-5.6948,-5.7964,-5.9115,-6.0696,-6.3486,-6.4432,-6.4766,-6.5615,-6.6705,-6.6917,-6.7108,-6.7045,-6.6811,-6.5898,-6.543,-6.5426,-6.5576,-6.5544,-6.5888,-6.7135,-6.7694,-6.8146,-6.8578,-6.8968,-6.9227,-6.9509,-7.0468,-7.0534,-6.9376,-6.8656,-6.8795,-6.8499,-6.8141,-6.8063,-6.7864,-6.8179,-6.8314,-6.9599,-7.1162,-7.2943,-5.1653,-5.1785,-5.0441,-4.9556,-4.911,-4.8397,-4.8032,-4.7628,-4.749,-4.8159,-4.888,-4.9688,-4.9864,-4.9924,-5.0762,-5.1322,-5.177,-5.2307,-5.2307,-5.2575,-5.2642,-5.2625,-5.2625,-5.2642,-5.2642,-5.2642,-5.2642,-5.2592,-5.2509,-5.2342,-5.1993,-5.1577,-5.196,-5.3008,-5.4007,-5.4872,-5.5554,-5.6004,-5.5886,-5.595,-5.6623,-5.6724,-5.6566,-5.6879,-5.7175,-5.6908,-5.5589,-5.3799,-5.3079,-5.417,-5.2675,-5.2373,-5.3765,-5.4215,-5.4914,-5.586,-5.586,-5.611,-5.6803,-5.7015,-5.6785,-5.7028,-5.7293,-5.7433,-5.7042,-5.6518,-5.6128,-5.6094,-5.5639,-5.5202,-5.5107,-5.5031,-5.5183,-5.5408,-5.6126,-5.7245,-5.8309,-5.933,-6.1427,-6.3802,-6.5152,-6.5468,-6.6299,-6.7006,-6.7261,-6.7325,-6.7499,-6.7587,-6.6601,-6.6343,-6.6168,-6.5925,-6.544,-6.5885,-6.7144,-6.7252,-6.76,-6.7817,-6.8029,-6.8225,-6.8809,-6.8956,-6.9301,-6.8587,-6.8333,-6.7569,-6.6947,-6.7954,-6.8334,-6.7999,-6.7999,-6.8022,-6.9035,-7.0462,-7.231,-5.0464,-5.0389,-4.9556,-4.9239,-4.9042,-4.843,-4.8032,-4.7416,-4.7427,-4.7459,-4.7451,-4.7893,-4.886,-4.9509,-5.0015,-5.067,-5.1528,-5.176,-5.2093,-5.2475,-5.2642,-5.2642,-5.2642,-5.2642,-5.2642,-5.2642,-5.2642,-5.2259,-5.196,-5.1693,-5.1394,-5.0728,-5.0944,-5.2026,-5.3158,-5.404,-5.4772,-5.5355,-5.5295,-5.575,-5.6567,-5.6118,-5.6484,-5.6762,-5.7036,-5.6804,-5.6568,-5.4576,-5.4576,-5.5149,-5.3819,-5.3548,-5.5164,-5.5379,-5.5825,-5.6749,-5.6572,-5.6803,-5.7245,-5.7015,-5.6572,-5.6339,-5.633,-5.6043,-5.5513,-5.5571,-5.5476,-5.5525,-5.5164,-5.5107,-5.5012,-5.505,-5.5258,-5.588,-5.6441,-5.7567,-5.8851,-6.034,-6.2198,-6.4143,-6.5156,-6.5706,-6.6387,-6.72,-6.7694,-6.7758,-6.791,-6.8232,-6.8059,-6.7972,-6.7882,-6.7556,-6.7223,-6.7389,-6.7615,-6.7245,-6.6996,-6.7203,-6.7028,-6.7366,-6.8244,-6.8333,-6.8585,-6.8754,-6.8763,-6.8382,-6.8584,-6.8855,-6.9081,-6.8742,-6.8403,-6.8133,-6.8742,-6.9851,-7.1628,-4.9795,-4.9933,-4.8861,-4.8797,-4.9299,-4.8681,-4.8662,-4.9064,-4.8864,-4.848,-4.8513,-4.8191,-4.8568,-4.9689,-4.9861,-5.0175,-5.0994,-5.1377,-5.176,-5.2043,-5.2459,-5.2642,-5.2625,-5.2625,-5.2642,-5.2642,-5.2525,-5.1976,-5.0978,-5.0678,-5.0428,-4.9696,-4.9896,-5.0661,-5.1693,-5.2792,-5.3591,-5.414,-5.4758,-5.5361,-5.6189,-5.6496,-5.6501,-5.7446,-5.7107,-5.6911,-5.6624,-5.4855,-5.521,-5.6034,-5.5011,-5.4466,-5.6092,-5.6536,-5.6749,-5.7898,-5.7475,-5.7493,-5.7916,-5.7033,-5.6339,-5.5824,-5.5588,-5.5067,-5.4671,-5.4882,-5.5296,-5.5468,-5.5525,-5.5773,-5.602,-5.5982,-5.6227,-5.6558,-5.7038,-5.812,-5.9402,-6.1185,-6.2594,-6.3784,-6.5004,-6.5768,-6.6705,-6.7521,-6.8297,-6.834,-6.849,-6.866,-6.8726,-6.8896,-6.8743,-6.8677,-6.8649,-6.8575,-6.8014,-6.7751,-6.7728,-6.7463,-6.7492,-6.7742,-6.8014,-6.8107,-6.8379,-6.8471,-6.8991,-6.976,-7.076,-7.0328,-6.9555,-6.9122,-6.8894,-6.9436,-6.998,-7.0873,-7.131,-4.967,-4.9624,-4.8381,-4.8562,-4.9821,-4.8971,-4.9573,-5.0868,-5.0328,-5.0498,-5.0243,-4.9584,-4.9384,-4.9636,-4.9813,-5.0129,-5.0412,-5.0795,-5.1194,-5.166,-5.2126,-5.2376,-5.2442,-5.2492,-5.2309,-5.2076,-5.2292,-5.1227,-5.0096,-5.0079,-4.9596,-4.8698,-4.8681,-4.898,-5.0428,-5.1294,-5.2059,-5.3291,-5.4073,-5.5135,-5.6103,-5.6499,-5.6799,-5.721,-5.7179,-5.7036,-5.6518,-5.5554,-5.5339,-5.6305,-5.5287,-5.5629,-5.7015,-5.7457,-5.8145,-5.8621,-5.8602,-5.8108,-5.7733,-5.6745,-5.5842,-5.5147,-5.5221,-5.5202,-5.4795,-5.4814,-5.5163,-5.6037,-5.598,-5.6288,-5.6632,-5.6844,-5.7162,-5.7579,-5.8036,-5.8933,-5.9846,-6.1774,-6.304,-6.4209,-6.4954,-6.5786,-6.6818,-6.7898,-6.8639,-6.866,-6.8896,-6.894,-6.9131,-6.9015,-6.8817,-6.9095,-6.9151,-6.9051,-6.8718,-6.8629,-6.8548,-6.8348,-6.8303,-6.8348,-6.8554,-6.8487,-6.8628,-6.9216,-6.9375,-6.9919,-7.0967,-7.0943,-7.0258,-6.9616,-6.9565,-7.0244,-7.0971,-7.135,-7.1355,-4.9952,-4.8844,-4.9316,-4.9513,-4.968,-4.9746,-5.0279,-5.0587,-5.0902,-5.0719,-4.9788,-4.9805,-4.9519,-4.8865,-4.8764,-4.9064,-4.9546,-4.9713,-5.0478,-5.1194,-5.1627,-5.1727,-5.171,-5.1643,-5.1494,-5.1261,-5.1377,-5.0861,-4.9546,-4.9513,-4.9064,-4.8481,-4.8248,-4.8731,-4.9496,-5.0262,-5.1011,-5.2142,-5.3096,-5.4173,-5.4914,-5.587,-5.6465,-5.6573,-5.6573,-5.6822,-5.6983,-5.5928,-5.5928,-5.6553,-5.6662,-5.6554,-5.7705,-5.8392,-5.9077,-5.9569,-5.8639,-5.7777,-5.7183,-5.6077,-5.5075,-5.4514,-5.4327,-5.4329,-5.4298,-5.4646,-5.4861,-5.5619,-5.598,-5.6266,-5.6779,-5.6792,-5.7275,-5.8016,-5.9217,-6.0158,-6.1048,-6.2109,-6.3397,-6.4358,-6.4942,-6.5801,-6.6831,-6.7916,-6.8663,-6.8773,-6.9249,-6.9315,-6.9557,-6.9394,-6.9284,-6.9705,-6.9594,-6.9491,-6.9379,-6.9335,-6.9223,-6.9,-6.8911,-6.8933,-6.8911,-6.8844,-6.998,-7.0896,-7.0737,-7.0532,-7.1078,-7.1464,-7.0639,-7.0065,-7.0147,-7.0304,-7.0514,-7.0775,-7.1214,-5.0392,-4.9363,-4.9696,-5.0037,-5.0389,-5.0472,-5.0716,-5.1349,-5.1222,-5.1075,-5.0941,-5.0786,-5.0362,-5.0211,-5.0177,-4.989,-4.9939,-4.9851,-5.0046,-5.0345,-5.0795,-5.0978,-5.0978,-5.0961,-5.0695,-5.0528,-5.0312,-4.9796,-4.8914,-4.9097,-4.8914,-4.8415,-4.8248,-4.8415,-4.8881,-4.953,-5.0062,-5.0788,-5.2167,-5.3255,-5.3486,-5.5094,-5.611,-5.6341,-5.6394,-5.6537,-5.6822,-5.602,-5.6358,-5.6769,-5.7018,-5.73,-5.7934,-5.8565,-5.9117,-5.8798,-5.7764,-5.6737,-5.5857,-5.5229,-5.4478,-5.3946,-5.3966,-5.4176,-5.4354,-5.4459,-5.4823,-5.5561,-5.5846,-5.6667,-5.7195,-5.754,-5.809,-5.8933,-5.9646,-6.0477,-6.1422,-6.2756,-6.3904,-6.4724,-6.5542,-6.6405,-6.7315,-6.7986,-6.8651,-6.926,-6.9549,-6.9883,-7.045,-7.015,-7.0083,-7.0272,-7.0205,-7.0004,-7.0004,-6.996,-6.9893,-6.9513,-6.9312,-6.9312,-6.9268,-6.9571,-7.0458,-7.1577,-7.1714,-7.121,-7.1527,-7.1504,-7.0836,-7.0214,-7.016,-7.0227,-7.0237,-7.0424,-7.1091,-5.0753,-4.9821,-4.9888,-5.0373,-5.123,-5.1164,-5.1677,-5.2481,-5.2234,-5.2068,-5.2329,-5.1743,-5.1812,-5.1984,-5.2191,-5.1658,-5.0839,-5.0241,-5.0169,-4.9929,-4.9996,-5.0229,-5.0229,-5.0212,-5.0096,-4.9912,-4.9513,-4.9183,-4.8781,-4.8781,-4.8698,-4.8365,-4.8248,-4.8248,-4.8481,-4.8797,-4.9247,-4.9952,-5.16,-5.2803,-5.334,-5.478,-5.5896,-5.6341,-5.6341,-5.6394,-5.6377,-5.6359,-5.6341,-5.6572,-5.7015,-5.7705,-5.8355,-5.8663,-5.8516,-5.7843,-5.6669,-5.5488,-5.48,-5.4197,-5.382,-5.3713,-5.4029,-5.4317,-5.4174,-5.4577,-5.4785,-5.5353,-5.5963,-5.7225,-5.7932,-5.8113,-5.8928,-5.9646,-6.013,-6.0596,-6.161,-6.2904,-6.4355,-6.5432,-6.6475,-6.7298,-6.768,-6.8219,-6.8576,-6.8983,-6.9245,-6.9759,-7.0272,-7.0495,-7.0495,-7.0495,-7.0495,-7.0495,-7.0495,-7.0406,-7.0294,-6.9848,-6.9759,-6.9759,-6.9923,-7.0138,-7.0458,-7.1464,-7.1759,-7.1782,-7.1362,-7.0918,-7.0572,-7.0227,-7.0339,-7.0473,-7.055,-7.0438,-7.1129,-5.0092,-4.8683,-5.0303,-5.0828,-5.0851,-5.2326,-5.301,-5.3277,-5.3691,-5.3535,-5.319,-5.3053,-5.2812,-5.2587,-5.2553,-5.2208,-5.1744,-5.1145,-5.0581,-5.0152,-4.9985,-4.9785,-4.9701,-4.9634,-4.967,-4.9198,-4.8948,-4.8881,-4.8713,-4.8547,-4.8648,-4.8298,-4.8248,-4.8464,-4.8248,-4.8415,-4.8932,-4.989,-5.1453,-5.2604,-5.3698,-5.5136,-5.6021,-5.6323,-5.6341,-5.6341,-5.6341,-5.6341,-5.6554,-5.7245,-5.7705,-5.8392,-5.8681,-5.8516,-5.7918,-5.7843,-5.6009,-5.4893,-5.4021,-5.3803,-5.355,-5.2735,-5.3717,-5.4044,-5.4007,-5.4387,-5.4785,-5.505,-5.5731,-5.696,-5.8116,-5.8421,-5.8913,-5.9685,-6.0606,-6.1397,-6.2221,-6.3826,-6.5256,-6.6519,-6.7143,-6.7594,-6.7931,-6.8381,-6.8403,-6.8561,-6.9006,-6.9424,-7.0116,-7.0495,-7.0495,-7.0495,-7.0495,-7.0495,-7.0495,-7.0428,-7.0428,-7.0205,-7.0272,-7.0272,-7.025,-7.0746,-7.1119,-7.1714,-7.1759,-7.1991,-7.1572,-7.1129,-7.0707,-7.0495,-7.0495,-7.0495,-7.0495,-7.0707,-7.1759,-5.043,-4.938,-5.0319,-5.1055,-5.174,-5.2554,-5.3153,-5.3384,-5.3863,-5.3639,-5.3591,-5.3767,-5.3837,-5.3889,-5.4345,-5.4327,-5.3698,-5.2881,-5.1864,-5.0856,-5.038,-4.9957,-4.9485,-4.9533,-4.9682,-4.9573,-4.929,-4.929,-4.9488,-4.9307,-4.911,-4.9076,-4.9093,-4.916,-4.9093,-4.8878,-4.9364,-5.0188,-5.1208,-5.2394,-5.3626,-5.5098,-5.5842,-5.6252,-5.6341,-5.6341,-5.6341,-5.6572,-5.6997,-5.7366,-5.7758,-5.8197,-5.8722,-5.7878,-5.7002,-5.6409,-5.5237,-5.429,-5.3882,-5.3644,-5.3957,-5.397,-5.4558,-5.4747,-5.4993,-5.5012,-5.522,-5.5201,-5.5803,-5.6647,-5.7672,-5.8284,-5.9096,-5.9805,-6.0679,-6.178,-6.2957,-6.4877,-6.6652,-6.7565,-6.7906,-6.7977,-6.8336,-6.8809,-6.8877,-6.8741,-6.9171,-6.9481,-7.0177,-7.0259,-7.0371,-7.0317,-7.0384,-7.0317,-7.0317,-7.0361,-7.0317,-7.045,-7.0473,-7.0495,-7.0384,-7.1016,-7.1527,-7.1549,-7.1759,-7.1759,-7.1549,-7.1129,-7.0495,-7.0495,-7.0495,-7.0495,-7.0707,-7.1106,-7.2155,-5.0611,-5.0226,-5.0325,-5.0963,-5.2166,-5.2598,-5.298,-5.3574,-5.3574,-5.3941,-5.4028,-5.4274,-5.4853,-5.5611,-5.5968,-5.611,-5.5417,-5.4678,-5.3419,-5.16,-5.1272,-5.0199,-4.9839,-4.9984,-5.0164,-5.0146,-4.9916,-4.9916,-5.0129,-4.9933,-4.9984,-5.014,-5.0079,-5.0278,-5.0467,-5.0171,-4.9932,-5.0562,-5.1393,-5.2528,-5.3358,-5.4636,-5.5735,-5.5967,-5.6234,-5.6323,-5.6572,-5.7015,-5.7293,-5.7121,-5.7508,-5.8043,-5.8076,-5.7015,-5.616,-5.5441,-5.4873,-5.4197,-5.3699,-5.4197,-5.4766,-5.4993,-5.537,-5.5745,-5.5443,-5.5481,-5.5558,-5.5385,-5.5952,-5.6647,-5.7488,-5.8629,-5.9646,-6.0581,-6.1578,-6.2831,-6.4531,-6.5823,-6.7254,-6.8375,-6.8424,-6.8404,-6.8968,-6.8783,-6.9007,-6.907,-6.9371,-6.9715,-6.9733,-6.984,-6.9834,-6.9848,-6.9736,-6.9379,-6.9513,-6.9826,-7.0026,-7.0361,-7.0428,-7.0473,-7.0393,-7.0746,-7.1249,-7.1549,-7.1527,-7.1317,-7.1339,-7.0707,-7.0495,-7.0495,-7.0495,-7.0895,-7.1504,-7.1946,-7.2757,-5.0053,-4.9908,-5.0209,-5.0583,-5.1501,-5.2498,-5.3366,-5.4134,-5.4169,-5.4766,-5.5507,-5.547,-5.5684,-5.6323,-5.6341,-5.6323,-5.611,-5.5488,-5.4257,-5.2895,-5.1386,-5.0673,-5.0516,-5.0713,-5.066,-5.0573,-5.0146,-5.036,-5.0591,-5.0198,-5.0493,-5.0908,-5.1099,-5.126,-5.1808,-5.1812,-5.1774,-5.1935,-5.2773,-5.3393,-5.3465,-5.4826,-5.5521,-5.545,-5.5788,-5.6056,-5.6357,-5.6799,-5.7011,-5.6047,-5.6996,-5.7395,-5.7518,-5.6404,-5.5469,-5.5263,-5.4739,-5.4328,-5.4369,-5.5163,-5.5765,-5.5765,-5.5784,-5.5347,-5.4662,-5.536,-5.5456,-5.449,-5.6197,-5.7223,-5.8016,-5.9194,-6.0547,-6.1779,-6.3273,-6.5136,-6.694,-6.6855,-6.6969,-6.8621,-6.813,-6.7864,-6.7971,-6.8147,-6.8397,-6.793,-6.8537,-6.8939,-6.9419,-6.9555,-6.9571,-6.952,-6.8955,-6.8509,-6.8844,-6.9201,-6.9602,-6.987,-6.9826,-6.9848,-6.9767,-7.0446,-7.0948,-7.1339,-7.1339,-7.1339,-7.1129,-7.0918,-7.0707,-7.0707,-7.0707,-7.1527,-7.2318,-7.2757,-7.3998,-5.0146,-5.0002,-5.0508,-5.1053,-5.1559,-5.2057,-5.3076,-5.3916,-5.4246,-5.4707,-5.5557,-5.5453,-5.5701,-5.6305,-5.6323,-5.6341,-5.6341,-5.611,-5.5507,-5.4605,-5.2988,-5.209,-5.1954,-5.1883,-5.1653,-5.13,-5.1016,-5.1016,-5.1317,-5.1492,-5.1809,-5.2213,-5.2583,-5.2953,-5.3375,-5.2877,-5.289,-5.3244,-5.3358,-5.3551,-5.356,-5.4505,-5.4737,-5.4683,-5.4755,-5.4951,-5.5212,-5.5869,-5.6488,-5.6265,-5.6574,-5.674,-5.6664,-5.5769,-5.5334,-5.5525,-5.524,-5.5389,-5.5596,-5.6402,-5.6833,-5.6755,-5.6507,-5.597,-5.5331,-5.567,-5.5885,-5.5272,-5.6992,-5.8241,-5.9154,-6.0177,-6.166,-6.3193,-6.5351,-6.6679,-6.7125,-6.6478,-6.6657,-6.6634,-6.6252,-6.5581,-6.5886,-6.5902,-6.6327,-6.6886,-6.7479,-6.8206,-6.8796,-6.9126,-6.9237,-6.901,-6.8763,-6.8334,-6.8286,-6.8264,-6.8509,-6.8554,-6.8598,-6.8821,-6.9296,-7.0334,-7.0858,-7.1106,-7.1339,-7.1339,-7.1129,-7.0918,-7.0828,-7.0948,-7.1129,-7.1759,-7.2988,-7.4021,-7.5429,-5.0451,-5.0169,-5.1073,-5.1568,-5.1844,-5.1844,-5.2502,-5.3614,-5.3667,-5.4113,-5.4737,-5.4862,-5.5165,-5.5681,-5.5664,-5.586,-5.5949,-5.5985,-5.6038,-5.5806,-5.4576,-5.3667,-5.3222,-5.2937,-5.242,-5.176,-5.1689,-5.1778,-5.2028,-5.2509,-5.3044,-5.3454,-5.4077,-5.438,-5.4576,-5.4252,-5.4093,-5.4345,-5.404,-5.4004,-5.3899,-5.406,-5.4113,-5.381,-5.3899,-5.4245,-5.4431,-5.5074,-5.5605,-5.6011,-5.5996,-5.5904,-5.6077,-5.5601,-5.5504,-5.5899,-5.6048,-5.6441,-5.6794,-5.723,-5.7294,-5.7457,-5.6498,-5.6138,-5.5583,-5.5702,-5.5861,-5.6199,-5.7238,-5.867,-6.0035,-6.0629,-6.2072,-6.403,-6.5354,-6.6311,-6.6099,-6.5589,-6.5072,-6.5139,-6.4228,-6.4052,-6.4295,-6.4368,-6.4689,-6.5453,-6.615,-6.6539,-6.7103,-6.7631,-6.7693,-6.7658,-6.7976,-6.7595,-6.7505,-6.7349,-6.7304,-6.7371,-6.7842,-6.8155,-6.9237,-7.0187,-7.0639,-7.1084,-7.1549,-7.1759,-7.1549,-7.1158,-7.1373,-7.1561,-7.1814,-7.2364,-7.3733,-7.5429,-7.6842,-5.0576,-5.0762,-5.1492,-5.1703,-5.1548,-5.1814,-5.2224,-5.2812,-5.2883,-5.3329,-5.3917,-5.4042,-5.4131,-5.4149,-5.4363,-5.4701,-5.5147,-5.5254,-5.5236,-5.4986,-5.4434,-5.3917,-5.3685,-5.3115,-5.242,-5.1778,-5.1689,-5.2028,-5.2491,-5.2812,-5.356,-5.4701,-5.4951,-5.545,-5.586,-5.6145,-5.5717,-5.5272,-5.5753,-5.4969,-5.3204,-5.4256,-5.4398,-5.299,-5.3454,-5.3995,-5.4399,-5.4802,-5.4689,-5.4534,-5.5031,-5.541,-5.575,-5.5692,-5.6048,-5.6422,-5.7038,-5.7243,-5.7269,-5.7217,-5.6958,-5.6877,-5.5919,-5.4631,-5.4348,-5.4786,-5.5144,-5.5789,-5.6908,-5.8377,-5.9557,-6.0367,-6.1725,-6.3605,-6.3904,-6.4157,-6.4543,-6.3243,-6.2774,-6.3164,-6.2836,-6.2648,-6.3084,-6.3449,-6.397,-6.4588,-6.4886,-6.5174,-6.5615,-6.6143,-6.5879,-6.583,-6.619,-6.6203,-6.6746,-6.6612,-6.6501,-6.6879,-6.7907,-6.8245,-6.9192,-7.0278,-7.094,-7.1584,-7.2201,-7.2201,-7.2086,-7.1675,-7.1585,-7.25,-7.3154,-7.3467,-7.4778,-7.6526,-7.804,-5.0518,-5.0584,-5.1424,-5.1406,-5.0994,-5.1493,-5.1849,-5.2081,-5.2117,-5.2545,-5.3151,-5.3257,-5.3507,-5.3899,-5.3953,-5.4166,-5.4416,-5.4434,-5.4416,-5.4345,-5.406,-5.397,-5.3863,-5.3186,-5.242,-5.1814,-5.1689,-5.1849,-5.2152,-5.3044,-5.3828,-5.4559,-5.5432,-5.6056,-5.6305,-5.6323,-5.6252,-5.6002,-5.6163,-5.5432,-5.4077,-5.4113,-5.3685,-5.2402,-5.2778,-5.3118,-5.3351,-5.3992,-5.4547,-5.4709,-5.4993,-5.522,-5.5842,-5.6048,-5.6441,-5.7038,-5.7428,-5.7632,-5.8,-5.7178,-5.6976,-5.6695,-5.5414,-5.424,-5.4271,-5.4121,-5.4612,-5.5307,-5.6576,-5.8042,-5.9222,-6.0002,-6.0867,-6.2405,-6.1847,-6.2179,-6.3164,-6.2015,-6.1189,-6.1239,-6.1086,-6.0881,-6.1279,-6.1702,-6.2417,-6.3446,-6.3741,-6.3912,-6.4663,-6.5176,-6.5149,-6.5232,-6.514,-6.5522,-6.5961,-6.5898,-6.5786,-6.6873,-6.821,-6.9133,-6.9952,-7.1063,-7.2,-7.296,-7.3218,-7.3218,-7.3356,-7.2844,-7.2857,-7.3843,-7.507,-7.5768,-7.6633,-7.8356,-7.9043,-5.0103,-5.021,-5.0958,-5.0851,-5.0227,-5.0691,-5.1101,-5.1279,-5.1315,-5.1742,-5.2366,-5.2473,-5.2758,-5.3168,-5.3257,-5.3382,-5.356,-5.3079,-5.3026,-5.3257,-5.3507,-5.3596,-5.3454,-5.283,-5.2331,-5.2045,-5.1814,-5.1689,-5.1992,-5.3222,-5.3953,-5.4256,-5.5557,-5.6181,-5.5985,-5.6234,-5.6341,-5.6341,-5.6341,-5.5557,-5.4131,-5.397,-5.324,-5.1867,-5.227,-5.2655,-5.3094,-5.3932,-5.4558,-5.5012,-5.5201,-5.5615,-5.6235,-5.6647,-5.69,-5.7314,-5.7254,-5.7377,-5.7439,-5.6634,-5.6051,-5.585,-5.4934,-5.4167,-5.4066,-5.4233,-5.4751,-5.5536,-5.6388,-5.7515,-5.8845,-5.9464,-5.9743,-6.0175,-6.0082,-6.0644,-6.1346,-6.0928,-6.0299,-6.0276,-6.0066,-6.0031,-6.0379,-6.0946,-6.1641,-6.2572,-6.2666,-6.2829,-6.3647,-6.4058,-6.4529,-6.4504,-6.5043,-6.5174,-6.5597,-6.5827,-6.6428,-6.7767,-6.9484,-7.0613,-7.1558,-7.2591,-7.3583,-7.422,-7.4408,-7.4455,-7.4589,-7.4486,-7.4664,-7.5538,-7.6018,-7.7318,-7.8774,-7.9516,-8.0036,-4.9354,-4.9479,-5.0138,-5.0014,-4.9408,-4.9497,-4.9853,-5.0406,-5.0459,-5.0887,-5.1457,-5.1829,-5.1794,-5.1689,-5.1901,-5.2063,-5.2295,-5.1507,-5.1275,-5.1689,-5.2348,-5.2634,-5.258,-5.1885,-5.1814,-5.2313,-5.1903,-5.1582,-5.1546,-5.2865,-5.3632,-5.4095,-5.5236,-5.5592,-5.5165,-5.5753,-5.6198,-5.6145,-5.6091,-5.5414,-5.4166,-5.3881,-5.3151,-5.208,-5.227,-5.3094,-5.4141,-5.4577,-5.4993,-5.5201,-5.5427,-5.6235,-5.7243,-5.7369,-5.7274,-5.6998,-5.6976,-5.6554,-5.5809,-5.5196,-5.4773,-5.4631,-5.397,-5.3874,-5.3894,-5.4221,-5.4878,-5.5871,-5.6391,-5.7121,-5.8236,-5.8784,-5.8727,-5.7794,-5.9003,-5.9469,-5.9469,-5.9794,-6.0274,-6.0319,-6.0448,-6.0854,-6.0854,-6.1199,-6.159,-6.1731,-6.1754,-6.1871,-6.2151,-6.2853,-6.3136,-6.3564,-6.4181,-6.5035,-6.549,-6.5889,-6.7382,-6.8773,-7.038,-7.2075,-7.2806,-7.4071,-7.5046,-7.5309,-7.55,-7.55,-7.5632,-7.5594,-7.601,-7.683,-7.6658,-7.7258,-7.8802,-7.9991,-8.0572,-4.9318,-4.9354,-4.9586,-4.9247,-4.8641,-4.9087,-4.9461,-4.9657,-4.9693,-4.9835,-5.0237,-5.0869,-5.1055,-5.1037,-5.1018,-5.0827,-5.0541,-5.0724,-5.0394,-5.0085,-5.0334,-5.0459,-5.0406,-5.0192,-5.0227,-5.037,-5.0174,-5.0067,-5.021,-5.1119,-5.1582,-5.1725,-5.3168,-5.381,-5.3757,-5.4363,-5.4737,-5.4737,-5.4737,-5.4256,-5.3364,-5.3204,-5.2903,-5.2432,-5.2692,-5.3304,-5.3514,-5.4577,-5.5201,-5.5427,-5.5635,-5.6255,-5.7388,-5.7317,-5.7058,-5.6956,-5.6982,-5.6709,-5.6149,-5.5947,-5.5621,-5.5372,-5.4612,-5.424,-5.424,-5.422,-5.4731,-5.5347,-5.5656,-5.6085,-5.7115,-5.8135,-5.871,-5.8913,-5.9263,-5.9438,-5.9658,-6.0054,-6.0297,-6.0448,-6.0796,-6.0923,-6.0854,-6.1395,-6.159,-6.1544,-6.1544,-6.1544,-6.1544,-6.1941,-6.2444,-6.3423,-6.4,-6.4706,-6.6273,-6.7048,-6.8367,-6.929,-7.0693,-7.259,-7.3891,-7.5362,-7.6447,-7.6642,-7.6537,-7.6537,-7.6642,-7.6623,-7.7669,-7.8917,-7.8397,-7.7953,-7.9473,-8.0562,-8.0403,-4.9425,-4.8891,-4.8605,-4.8196,-4.7803,-4.8249,-4.8819,-4.9301,-4.9318,-4.9646,-5.0285,-5.0912,-5.0912,-5.0801,-5.0525,-5.0035,-4.9455,-4.9655,-4.9618,-4.9503,-4.9318,-4.9318,-4.9283,-4.9015,-4.9015,-4.9176,-4.873,-4.8623,-4.898,-5.0299,-5.0762,-5.0798,-5.2028,-5.2812,-5.2954,-5.3578,-5.3953,-5.397,-5.3953,-5.3596,-5.2937,-5.2812,-5.2885,-5.2746,-5.3094,-5.3532,-5.3932,-5.4577,-5.5201,-5.5842,-5.6029,-5.6441,-5.7388,-5.7741,-5.7576,-5.728,-5.7002,-5.6743,-5.6181,-5.6017,-5.6015,-5.6058,-5.5415,-5.5413,-5.5848,-5.6137,-5.6359,-5.6536,-5.6612,-5.7351,-5.857,-5.9292,-6.0093,-6.0697,-6.076,-6.0929,-6.1128,-6.1603,-6.1695,-6.1418,-6.1825,-6.1931,-6.2013,-6.1978,-6.2151,-6.2175,-6.2479,-6.2736,-6.2689,-6.2315,-6.2817,-6.4063,-6.4298,-6.4899,-6.7218,-6.8134,-6.8939,-6.9576,-7.0748,-7.2329,-7.3326,-7.4597,-7.5406,-7.5258,-7.5431,-7.5406,-7.5333,-7.5555,-7.7133,-7.832,-7.8545,-7.8872,-8.1388,-8.0161,-8.0148,-4.9621,-4.8356,-4.7447,-4.718,-4.7037,-4.7126,-4.7928,-4.9318,-4.9301,-5.0303,-5.1478,-5.1737,-5.1555,-5.0801,-5.0354,-4.9752,-4.9556,-4.9093,-4.9076,-4.9342,-4.9413,-4.9431,-4.936,-4.8481,-4.8463,-4.9055,-4.7946,-4.7518,-4.8338,-5.0388,-5.1172,-5.0495,-5.1832,-5.2651,-5.2705,-5.3329,-5.3828,-5.3685,-5.3703,-5.3454,-5.2848,-5.2741,-5.2796,-5.3186,-5.3322,-5.3742,-5.4785,-5.4993,-5.522,-5.5842,-5.6441,-5.7038,-5.7652,-5.863,-5.8637,-5.8041,-5.7164,-5.6427,-5.5874,-5.5684,-5.5755,-5.6427,-5.6491,-5.714,-5.7895,-5.8562,-5.8698,-5.8861,-5.919,-6.0271,-6.1832,-6.1739,-6.1919,-6.29,-6.3182,-6.2873,-6.2533,-6.3586,-6.4138,-6.3484,-6.4012,-6.413,-6.332,-6.3227,-6.325,-6.3414,-6.4021,-6.4512,-6.4278,-6.3741,-6.3959,-6.4758,-6.5037,-6.4921,-6.7129,-6.8154,-6.8737,-6.9234,-7.0113,-7.1666,-7.2275,-7.2712,-7.3389,-7.3873,-7.4334,-7.4334,-7.4209,-7.495,-7.6502,-7.7397,-7.7885,-7.8901,-8.0901,-7.9817,-7.9659,-5.053,-5.0495,-4.9229,-4.8356,-4.7839,-4.7839,-4.8392,-4.9467,-4.9723,-5.0051,-5.0231,-5.1224,-5.1898,-5.2071,-5.2635,-5.193,-5.0742,-5.1176,-5.0811,-4.9634,-4.9634,-4.9323,-4.8581,-4.8115,-4.7958,-4.7854,-4.7355,-4.7588,-4.8249,-4.9443,-4.9853,-4.98,-5.062,-5.1119,-5.119,-5.1921,-5.2313,-5.2331,-5.2313,-5.2224,-5.2045,-5.1992,-5.2292,-5.271,-5.3094,-5.3514,-5.4369,-5.522,-5.5842,-5.6235,-5.7038,-5.7652,-5.867,-5.964,-5.9722,-5.8382,-5.7647,-5.6823,-5.5808,-5.6442,-5.6727,-5.658,-5.7209,-5.7679,-5.7853,-5.846,-5.9019,-5.9598,-6.0771,-6.1713,-6.2438,-6.2587,-6.3245,-6.4151,-6.4645,-6.4261,-6.3626,-6.4687,-6.5302,-6.4471,-6.4911,-6.5362,-6.4839,-6.4364,-6.4185,-6.4232,-6.4512,-6.4699,-6.4629,-6.4582,-6.4699,-6.5707,-6.58,-6.615,-6.7222,-6.8065,-6.8042,-6.8536,-6.9744,-7.1008,-7.1224,-7.2713,-7.3822,-7.3451,-7.37,-7.3989,-7.4052,-7.4629,-7.6037,-7.7065,-7.8091,-7.89,-8.0388,-7.9714,-7.9473,-5.1466,-5.1484,-5.0244,-4.9473,-4.8842,-4.9293,-4.9672,-5.0394,-5.0818,-5.1021,-5.1187,-5.1794,-5.2197,-5.2398,-5.3,-5.2392,-5.1075,-5.1493,-5.1046,-4.9947,-4.9696,-4.9439,-4.8997,-4.8574,-4.8574,-4.8399,-4.8206,-4.8264,-4.8465,-4.8662,-4.8876,-4.9318,-4.9746,-5.0334,-5.0958,-5.1439,-5.1689,-5.1689,-5.1689,-5.1689,-5.1689,-5.1689,-5.2077,-5.2692,-5.3112,-5.3742,-5.4785,-5.5427,-5.6235,-5.6833,-5.7243,-5.7876,-5.869,-5.9289,-5.9285,-5.8001,-5.7919,-5.7683,-5.7072,-5.7462,-5.769,-5.7903,-5.8465,-5.9023,-5.9332,-5.9917,-6.0344,-6.0794,-6.1869,-6.2966,-6.3315,-6.3213,-6.3601,-6.4419,-6.4458,-6.4321,-6.3883,-6.4734,-6.5125,-6.4447,-6.5041,-6.523,-6.4519,-6.4247,-6.4255,-6.4676,-6.512,-6.5564,-6.5868,-6.5541,-6.5774,-6.6522,-6.6989,-6.727,-6.7527,-6.7691,-6.7714,-6.8186,-6.9201,-7.0337,-7.0762,-7.2072,-7.2954,-7.3068,-7.3181,-7.3554,-7.4014,-7.4472,-7.5001,-7.5738,-7.6787,-7.8275,-7.9674,-7.9441,-7.8653,-5.1793,-5.1122,-5.0325,-4.998,-4.9789,-5.0414,-5.1187,-5.1905,-5.1997,-5.261,-5.331,-5.298,-5.2554,-5.2239,-5.2165,-5.1758,-5.1112,-5.1075,-5.065,-4.9966,-4.9892,-4.9837,-4.9689,-4.9744,-4.98,-4.9855,-4.9641,-4.9341,-4.9166,-4.8441,-4.8571,-4.9449,-4.9628,-5.0415,-5.1493,-5.1671,-5.1689,-5.1689,-5.1689,-5.1689,-5.1689,-5.1689,-5.2306,-5.3322,-5.3322,-5.3951,-5.5635,-5.5842,-5.6422,-5.7349,-5.7513,-5.7697,-5.8144,-5.8473,-5.8042,-5.7428,-5.829,-5.8651,-5.8492,-5.8315,-5.8446,-5.9624,-5.9624,-6.0138,-6.1672,-6.199,-6.2263,-6.2248,-6.2594,-6.3367,-6.4325,-6.3717,-6.3624,-6.4692,-6.4153,-6.3556,-6.3789,-6.4462,-6.4449,-6.367,-6.4356,-6.4387,-6.3838,-6.3814,-6.3989,-6.4629,-6.5424,-6.6218,-6.685,-6.6592,-6.6686,-6.7387,-6.8045,-6.8045,-6.7668,-6.7691,-6.788,-6.828,-6.8891,-6.9709,-7.05,-7.1237,-7.1613,-7.2389,-7.2613,-7.3051,-7.3311,-7.3595,-7.4434,-7.5071,-7.5692,-7.676,-7.7976,-7.8376,-7.7752,-5.0948,-5.0711,-5.0069,-4.9629,-4.9678,-4.9862,-5.0396,-5.1151,-5.1571,-5.2192,-5.2791,-5.2573,-5.2592,-5.2392,-5.2392,-5.2298,-5.2128,-5.2109,-5.1676,-5.0941,-5.0903,-5.0545,-4.9961,-4.9542,-4.9686,-5.0226,-4.9892,-5.0341,-5.1151,-5.0527,-5.0656,-5.1332,-5.1032,-5.1106,-5.1671,-5.1689,-5.1689,-5.1689,-5.1689,-5.1689,-5.1689,-5.1689,-5.2095,-5.3112,-5.3322,-5.3951,-5.5635,-5.6235,-5.6334,-5.6555,-5.6858,-5.6916,-5.684,-5.7932,-5.832,-5.794,-5.9034,-5.9285,-5.7803,-5.7592,-5.7603,-5.7978,-5.9269,-6.0089,-6.027,-6.1174,-6.1606,-6.1247,-6.1548,-6.2118,-6.2733,-6.298,-6.3755,-6.5051,-6.5338,-6.4717,-6.3821,-6.4545,-6.4669,-6.3271,-6.4187,-6.4773,-6.4574,-6.4898,-6.5018,-6.4809,-6.5564,-6.6195,-6.6522,-6.7457,-6.7739,-6.7856,-6.7691,-6.7833,-6.7691,-6.7668,-6.7903,-6.828,-6.9193,-7.0121,-7.0674,-7.1406,-7.1951,-7.2133,-7.2519,-7.3034,-7.3417,-7.428,-7.4732,-7.5023,-7.5164,-7.576,-7.6403,-7.6662,-7.5868,-5.0692,-5.1001,-5.0206,-5.0254,-5.0785,-5.0608,-5.0729,-5.1437,-5.1122,-5.1381,-5.1937,-5.1937,-5.2165,-5.2487,-5.2506,-5.2506,-5.2506,-5.2506,-5.207,-5.1311,-5.1292,-5.1045,-5.0627,-5.0206,-5.0451,-5.0885,-5.0496,-5.0365,-5.0377,-5.0009,-4.9812,-4.9854,-4.9852,-5.0226,-5.0566,-5.094,-5.1119,-5.1119,-5.0988,-5.1178,-5.1538,-5.1765,-5.2373,-5.3167,-5.3783,-5.4785,-5.6029,-5.6276,-5.6453,-5.6598,-5.6396,-5.6327,-5.6016,-5.6909,-5.7269,-5.7059,-5.7606,-5.7447,-5.641,-5.6398,-5.6728,-5.7519,-5.9212,-5.9666,-5.8024,-5.9371,-5.9953,-5.9344,-6.0123,-6.0595,-6.0105,-6.0494,-6.1092,-6.1824,-6.2536,-6.2549,-6.1762,-6.2025,-6.2048,-6.1489,-6.2073,-6.2712,-6.276,-6.3489,-6.3778,-6.352,-6.4138,-6.519,-6.6078,-6.6635,-6.6866,-6.6729,-6.7267,-6.7502,-6.7573,-6.7927,-6.8445,-6.9054,-6.9936,-7.0674,-7.1223,-7.2182,-7.2724,-7.2904,-7.3417,-7.3798,-7.3387,-7.4234,-7.4466,-7.4639,-7.4381,-7.4616,-7.5004,-7.5064,-7.403,-5.0506,-5.1497,-5.0589,-5.1092,-5.2108,-5.1292,-5.1405,-5.2032,-5.0322,-5.0133,-5.1102,-5.1121,-5.1519,-5.2165,-5.2165,-5.2165,-5.2165,-5.1968,-5.157,-5.0927,-5.0715,-5.0715,-5.0734,-5.0909,-5.0984,-5.1098,-5.1292,-5.0564,-4.906,-4.8931,-4.8456,-4.7813,-4.8195,-4.8715,-4.936,-5.0111,-5.0263,-5.0138,-5.0321,-5.0633,-5.1285,-5.1825,-5.2387,-5.2776,-5.4161,-5.5141,-5.61,-5.5916,-5.604,-5.6212,-5.5487,-5.4944,-5.4683,-5.4836,-5.5085,-5.5147,-5.4998,-5.4811,-5.4811,-5.4963,-5.5514,-5.7016,-5.858,-5.8617,-5.655,-5.7529,-5.8057,-5.7304,-5.8347,-5.863,-5.7469,-5.7823,-5.8269,-5.8364,-5.8739,-5.9085,-5.9129,-5.8852,-5.8758,-5.9349,-5.9325,-5.965,-6.0455,-6.1111,-6.1645,-6.1879,-6.2572,-6.3624,-6.4956,-6.5161,-6.5075,-6.5467,-6.6514,-6.7353,-6.7362,-6.8333,-6.9044,-6.9767,-7.0381,-7.1036,-7.1759,-7.2326,-7.2707,-7.3087,-7.3438,-7.368,-7.313,-7.3776,-7.3773,-7.3257,-7.2922,-7.2906,-7.345,-7.3584,-7.2772,-4.929,-5.0247,-5.0114,-5.0133,-5.0399,-4.9545,-4.9678,-5.0209,0.0,0.0,0.0,-5.0248,-5.0342,-5.0475,-5.0456,-5.0456,-5.0284,-4.9481,-4.9005,-4.8894,-4.809,-4.7705,-4.7705,-4.8492,-4.9245,-5.0069,-5.0903,-5.1557,-5.1619,-5.1192,-5.0484,-4.9902,-4.9604,-4.9127,-4.8914,-4.9288,-4.9211,-4.8659,-5.0303,-5.1159,-5.1303,-5.2128,-5.2251,-5.1935,-5.3108,-5.3725,-5.3558,-5.4419,-5.4308,-5.2731,-5.2429,-5.1705,-5.0317,-5.0558,-5.1305,-5.2376,-5.3195,-5.3351,-5.2985,-5.3396,-5.3546,-5.3481,-5.4727,-5.6208,-5.7529,-5.6921,-5.6471,-5.6691,-5.716,-5.7515,-5.7166,-5.7685,-5.8201,-5.8784,-5.8947,-5.8916,-5.8498,-5.8015,-5.7502,-5.7307,-5.7573,-5.8263,-5.9182,-6.0149,-6.1044,-6.1528,-6.1754,-6.2338,-6.3343,-6.3306,-6.3353,-6.4839,-6.573,-6.6373,-6.6517,-6.7258,-6.8244,-6.9043,-6.956,-7.0253,-7.0992,-7.1064,-7.0852,-7.0902,-7.1365,-7.1629,-7.1787,-7.2433,-7.2688,-7.2836,-7.2157,-7.1342,-7.1258,-7.1356,-7.1216,-4.7698,0.0,-4.8813,-4.8832,0.0,-4.7894,-4.7433,-4.7193,-4.6018,-4.6494,-4.8009,-4.8458,-4.8588,-4.8729,-4.8545,-4.8419,-4.8626,-4.7874,-4.7508,-4.768,-4.7105,-4.6912,-4.6912,-4.7297,-4.7898,-4.8278,-4.9264,-4.9872,-5.0013,-5.024,-5.0052,-4.9475,-4.9052,-4.8465,-4.7717,-4.8087,-4.8322,-4.8178,-4.9094,-4.9673,-5.0053,-5.1279,-5.1716,-5.1563,-5.3273,0.0,0.0,0.0,0.0,0.0,0.0,0.0,0.0,0.0,0.0,-4.9668,-4.9195,-4.8502,-4.7724,-4.7571,-4.8277,-4.9658,-5.1536,-5.2067,-5.1061,-5.318,-5.3914,-5.2725,-5.439,-5.5203,-5.4361,-5.4827,-5.5313,-5.6072,-5.6892,-5.6887,-5.6104,-5.5784,-5.5731,-5.5738,-5.5812,-5.6463,-5.7848,-5.9184,-5.9996,-5.9828,-6.0507,-6.1409,-6.1478,-6.1224,-6.1247,-6.2594,-6.3814,-6.5098,-6.5897,-6.6869,-6.7748,-6.8129,-6.8661,-6.8968,-6.9117,-6.9055,-6.9016,-6.9378,-6.9688,-7.0189,-7.0547,-7.1069,-7.1378,-7.1099,-7.068,-7.0073,-6.9453,-6.9647,-6.9665,-4.6228,-4.7789,-4.7168,-4.7342,-4.7856,-4.596,-4.4674,-4.3915,-4.3471,-4.4116,-4.5307,-4.631,-4.6861,-4.6956,-4.6576,-4.6677,-4.6876,-4.6334,-4.6181,-4.6527,-4.6334,-4.6334,-4.6334,-4.6527,-4.6438,-4.6489,-4.7672,-4.7961,-4.7435,-4.8381,-4.8662,-4.8242,-4.8242,-4.7625,-4.6793,0.0,0.0,0.0,-4.7922,-4.8206,-4.884,-5.0236,-5.0998,-5.1083,-5.3207,0.0,-5.3897,-5.3229,-5.251,-5.1987,-5.0599,0.0,0.0,0.0,0.0,0.0,0.0,0.0,0.0,0.0,0.0,0.0,-4.7609,-4.7457,-4.4794,-4.8872,-5.0624,-4.8106,-5.1186,-5.2794,-5.1152,-5.1849,-5.2729,-5.3499,-5.4463,-5.4775,-5.3656,-5.3791,-5.4082,-5.4463,-5.4563,-5.497,-5.637,-5.7734,-5.8317,-5.7846,-5.9223,-6.0163,-5.9515,-5.9268,-5.969,-6.0566,-6.2489,-6.4151,-6.5427,-6.6476,-6.7184,-6.7334,-6.7633,-6.7435,-6.7176,-6.7137,-6.7435,-6.7765,-6.8412,-6.8842,-6.9547,-6.9898,-6.9934,-6.9651,-6.9467,-6.928,-6.8715,-6.8959,-6.909,-4.5737,-4.6254,-4.6147,-4.5715,-4.4961,-4.2602,-4.146,-4.1318,-4.2068,-4.256,-4.2683,-4.4381,-4.505,-4.5125,-4.4943,-4.5374,-4.5905,-4.5001,-4.4867,-4.5331,-4.4587,-4.4213,-4.4408,-4.5154,-4.5388,-4.5159,-4.6666,-4.725,-4.6893,-4.7418,-4.7814,-4.7973,-4.7619,-4.7351,-4.7517,-4.7626,-4.7409,-4.6677,-4.8079,-4.8767,-4.8894,-4.98,-5.0298,-5.0248,-5.1488,-5.1688,-5.0505,-5.1384,-5.076,-4.8546,-4.8164,-4.7701,-4.6937,-4.6858,-4.613,0.0,-4.4519,0.0,0.0,0.0,0.0,0.0,0.0,0.0,0.0,-4.6063,-4.6408,-4.4599,-4.8974,-5.1224,-4.9564,-5.1706,-5.3341,-5.3476,-5.4016,-5.4196,-5.3499,-5.3476,-5.3476,-5.3656,-5.3973,-5.4404,-5.5154,-5.5472,-5.5921,-5.6547,-5.8003,-5.8448,-5.7418,-5.7889,-5.904,-6.1232,-6.2394,-6.3172,-6.4333,-6.5427,-6.6282,-6.655,-6.608,-6.5482,-6.5781,-6.5522,-6.5216,-6.5291,-6.6296,-6.7553,-6.8701,-6.8753,-6.8861,-6.9833,-6.9624,-6.9518,-6.9826,-7.0363,-7.1001,-4.4107,-4.4317,-4.3879,-4.292,-4.1815,-4.0596,-3.9956,-3.962,-4.0132,-4.0502,-4.0871,-4.167,-4.2564,-4.3294,-4.3116,-4.3165,-4.3686,-4.3004,-4.308,-4.3784,-4.3415,-4.3455,-4.4017,-4.4391,-4.4583,-4.4434,-4.5771,-4.6271,-4.6414,-4.7098,-4.7486,-4.7336,-4.7638,-4.6824,-4.5225,-4.6271,-4.6368,-4.5441,-4.6087,-4.6631,-4.7057,-4.8391,-4.8979,-4.8944,-5.0183,-5.0586,-4.9751,-5.0101,-4.9653,-4.8506,-4.7963,-4.7541,-4.7118,-4.4941,-4.38,0.0,0.0,0.0,0.0,0.0,0.0,0.0,0.0,0.0,0.0,0.0,-4.2888,-4.3645,-4.7253,-4.8129,-4.4876,-4.7137,-4.88,-4.9054,-4.8991,-4.9846,-5.1839,-5.1549,-5.1948,-5.37,-5.42,-5.4334,-5.4541,-5.5472,-5.5802,-5.4843,-5.6525,-5.7471,-5.6481,-5.7439,-5.8846,-5.9757,-6.0711,-6.1736,-6.2692,-6.4019,-6.5181,-6.5251,-6.4417,-6.3624,-6.3406,-6.339,-6.354,-6.3747,-6.4921,-6.6631,-6.8363,-6.8678,-6.881,-6.9807,-6.9754,-6.9571,-6.978,-7.0221,-7.0839,-4.2228,-4.1995,-4.0911,-3.9604,-3.8405,-3.8579,-3.8405,-3.7864,-3.788,-3.8171,-3.8804,-3.8777,-3.9315,-4.0022,-3.9885,-4.0209,-4.0919,-4.0748,-4.1275,-4.2456,-4.249,-4.2872,-4.3555,-4.3571,-4.375,-4.3815,-4.4545,-4.4975,-4.5266,-4.614,-4.6242,-4.5757,-4.5993,-4.4963,-4.2775,-4.4067,-4.4639,-4.4374,-4.4179,-4.4374,-4.4959,-4.6527,-4.7472,-4.7601,-4.871,-4.9525,-4.9414,-4.9066,-4.8969,-4.8707,-4.7661,-4.6997,-4.6716,-4.3435,0.0,0.0,0.0,0.0,0.0,0.0,0.0,0.0,0.0,-3.8628,-3.6057,0.0,-3.9835,0.0,-4.5201,-4.5243,-4.1851,-4.3631,0.0,0.0,-4.4654,-4.5642,-4.8753,-4.8863,-4.9779,-5.2641,-5.3609,-5.4081,-5.3973,-5.5338,-5.5396,-5.3036,-5.4658,-5.5989,-5.5621,-5.6976,-5.8141,-5.8783,-5.9874,-6.0994,-6.2087,-6.3416,-6.4329,-6.4304,-6.3377,-6.2376,-6.1915,-6.2269,-6.2742,-6.3239,-6.4409,-6.6217,-6.8337,-6.881,-6.8995,-6.8936,-6.8804,-6.8494,-6.8783,-6.9303,-7.0028,-3.9994,-3.9155,-3.6811,-3.561,-3.5239,-3.5916,-3.6069,-3.5715,-3.5699,-3.5747,-3.5779,-3.5424,-3.4695,-3.3937,-3.4267,0.0,-3.8044,-3.8717,-3.9965,-4.1691,-4.1707,-4.2107,-4.2823,-4.2839,-4.2836,-4.3026,-4.2504,-4.2672,-4.3188,-4.3807,-4.342,-4.2402,-4.1252,-4.0886,-4.1396,-4.0891,-4.1604,-4.3755,-4.3396,-4.3396,-4.3788,-4.3984,-4.4969,-4.6467,-4.6989,-4.7731,-4.8388,-4.8746,-4.8667,-4.7822,-4.6193,-4.4905,-4.406,0.0,0.0,0.0,0.0,0.0,0.0,0.0,0.0,0.0,0.0,0.0,0.0,0.0,0.0,-4.0975,-4.2925,0.0,-4.2923,-4.4089,0.0,0.0,0.0,-4.3187,-4.4093,-4.5868,-4.7565,-4.9018,0.0,0.0,-5.3002,-5.3453,-5.3206,-5.1817,-5.2509,-5.3584,-5.4383,-5.5554,-5.6976,-5.8798,-6.0796,-6.2257,-6.2766,-6.3607,-6.4133,-6.4231,-6.3377,-6.2547,-6.2538,-6.2861,-6.3418,-6.3564,-6.5146,-6.6574,-6.7989,-6.8337,-6.8157,-6.6297,-6.593,-6.6192,-6.7082,-6.7805,-6.8861,-3.6203,-3.4765,-3.4251,-3.4158,-3.4282,-3.3993,-3.4118,-3.4528,-3.3944,-3.3593,-3.3609,-3.3442,-3.3077,-3.2246,-3.2422,0.0,0.0,0.0,-3.7404,-3.8966,-3.9111,-4.0146,-4.1664,-4.1885,-4.2249,-4.227,-4.2142,-4.2141,-4.2433,-4.2761,-4.0638,-3.6731,0.0,0.0,-3.776,-3.9305,-4.0665,-4.1702,-4.2022,-4.223,-4.2822,-4.2822,-4.3222,-4.4282,-4.5253,-4.5757,-4.6226,-4.7549,-4.7581,-4.6172,-4.4925,-4.3597,0.0,0.0,0.0,0.0,0.0,0.0,0.0,0.0,0.0,0.0,0.0,-3.4764,-3.4135,0.0,0.0,0.0,-3.6738,-3.6514,-3.6264,-3.9208,0.0,0.0,0.0,0.0,0.0,0.0,0.0,-4.937,-4.997,-5.026,-5.1319,-5.1749,-5.1839,-5.1592,-5.3228,-5.4698,-5.5106,0.0,-5.7137,-5.7502,-5.9259,-6.0439,-6.0562,-6.1096,-6.2136,-6.3559,-6.2864,-6.2197,-6.2124,-6.1607,-6.1371,-6.1783,-6.305,-6.4567,-6.5664,-6.5949,-6.5459,-6.4354,-6.4479,-6.519,-6.558,-6.5836,-6.675,-3.2,0.0,0.0,0.0,0.0,-3.1701,-3.1852,-3.2222,-3.1568,-3.1125,-3.0948,-3.0773,0.0,0.0,0.0,0.0,0.0,0.0,-3.5315,-3.6834,-3.7005,-3.8394,-4.0273,-4.0641,-4.0924,-4.1285,-4.1097,-4.0953,-4.071,-4.0256,-3.7678,-3.3117,0.0,0.0,0.0,0.0,-3.8679,-3.9814,-4.0402,-4.1052,-4.1621,-4.1637,-4.1928,-4.224,-4.3676,-4.4635,-4.4838,-4.6206,-4.6253,-4.4744,-4.3094,0.0,0.0,0.0,0.0,0.0,0.0,0.0,0.0,0.0,0.0,0.0,0.0,0.0,0.0,0.0,0.0,0.0,0.0,0.0,-3.2592,-3.5409,-3.6764,0.0,0.0,0.0,0.0,0.0,0.0,0.0,0.0,0.0,-4.8369,-4.9065,-4.9627,0.0,0.0,-5.4154,-5.4313,-5.5563,-5.6545,-5.6216,-5.7304,0.0,-5.8284,-5.8808,-5.9803,-6.1614,-6.1703,-6.1568,-6.1272,-6.0853,-6.0434,-6.0469,-6.1751,-6.2741,-6.257,-6.2008,-6.1351,-6.1634,-6.1677,-6.2263,-6.3217,-6.3908,-6.4669,0.0,0.0,0.0,0.0,0.0,0.0,0.0,0.0,-2.834,-2.8026,0.0,-2.6757,0.0,0.0,0.0,0.0,0.0,-3.2667,0.0,0.0,-3.5844,-3.7038,-3.8704,-3.8802,-3.9157,-3.9444,-3.8712,-3.7996,-3.7347,-3.5705,0.0,0.0,0.0,0.0,0.0,0.0,-3.4766,-3.8512,-3.8945,-3.9406,-4.0628,-4.0659,-4.0643,-4.0734,-4.2977,-4.4241,-4.4838,-4.5083,-4.4724,-4.3758,-4.0479,0.0,0.0,0.0,0.0,0.0,0.0,0.0,0.0,0.0,0.0,0.0,0.0,0.0,0.0,0.0,0.0,0.0,0.0,0.0,0.0,-3.4403,0.0,0.0,0.0,0.0,0.0,0.0,0.0,0.0,0.0,0.0,-4.4049,-4.4903,-4.6051,-4.7423,0.0,0.0,0.0,0.0,-5.4198,-5.5658,-5.5865,-5.621,-5.7056,-5.7778,-5.825,-5.8007,0.0,0.0,-6.0286,-6.0927,-6.1354,-6.1204,-6.1676,-6.1671,-5.9006,-5.6632,-5.5722,-5.7534,-5.6679,-5.6676,-5.9615,-6.1009,-6.263,0.0,0.0,0.0,0.0,0.0,0.0,0.0,0.0,0.0,-2.6388,0.0,-2.5402,0.0,0.0,0.0,0.0,0.0,0.0,0.0,0.0,-3.2272,-3.3281,-3.3951,-3.5045,-3.5306,0.0,-3.4765,-3.4069,0.0,0.0,0.0,0.0,0.0,0.0,0.0,0.0,-3.4528,-3.6598,-3.8431,-3.9568,-4.001,-4.0427,-4.0458,-3.9995,-4.0973,-4.1704,-4.2297,-4.3773,-4.4052,0.0,0.0,0.0,0.0,0.0,0.0,0.0,0.0,0.0,0.0,0.0,0.0,0.0,0.0,0.0,0.0,0.0,0.0,0.0,0.0,0.0,0.0,0.0,-3.3601,0.0,0.0,0.0,0.0,0.0,0.0,0.0,0.0,0.0,-4.1175,-4.314,-4.4817,-4.5281,-4.7266,-4.9145,-5.073,0.0,0.0,0.0,0.0,0.0,0.0,0.0,-5.5195,-5.7313,-5.7226,-5.7254,-5.7894,-5.8115,-5.8113,-5.8042,0.0,0.0,-5.3147,-5.1448,-5.1007,-5.1777,-5.2243,-5.2578,-5.3031,-5.475,-5.6235,0.0,0.0,0.0,0.0,0.0,0.0,0.0,0.0,0.0,-2.5368,-2.4504,0.0,0.0,0.0,0.0,0.0,0.0,0.0,0.0,0.0,0.0,0.0,-3.0959,-3.2331,0.0,0.0,0.0,0.0,0.0,0.0,0.0,0.0,0.0,0.0,0.0,0.0,-3.4305,-3.5768,-3.8018,-3.9176,-3.964,-4.0087,-4.0226,-3.9979,-3.988,-4.0113,-4.0745,0.0,0.0,0.0,0.0,0.0,0.0,0.0,0.0,0.0,0.0,0.0,0.0,0.0,0.0,0.0,0.0,0.0,0.0,0.0,0.0,0.0,0.0,0.0,0.0,0.0,-3.2648,0.0,0.0,0.0,0.0,0.0,0.0,0.0,0.0,0.0,0.0,0.0,-4.2797,-4.3246,-4.5075,-4.707,-4.8756,-4.9759,-5.046,0.0,0.0,0.0,0.0,0.0,0.0,0.0,0.0,0.0,0.0,0.0,0.0,0.0,0.0,-5.395,-4.9668,-4.7687,-4.7074,-4.7761,0.0,0.0,0.0,0.0,0.0,0.0,0.0,0.0,0.0,0.0,0.0,0.0,0.0,0.0,0.0,0.0,0.0,0.0,-2.2381,0.0,0.0,0.0,0.0,0.0,0.0,0.0,0.0,0.0,0.0,0.0,0.0,0.0,0.0,0.0,0.0,0.0,0.0,0.0,0.0,0.0,0.0,-3.4017,-3.6038,-3.7103,-3.8281,-3.9516,-3.9609,-3.9933,-4.052,-3.9685,-3.9623,-4.0448,0.0,0.0,0.0,0.0,0.0,0.0,0.0,0.0,0.0,0.0,0.0,0.0,0.0,0.0,0.0,0.0,0.0,0.0,0.0,0.0,0.0,0.0,0.0,0.0,0.0,0.0,-3.1541,-3.2424,-3.3271,0.0,0.0,0.0,0.0,0.0,0.0,0.0,0.0,0.0,0.0,-4.2815,-4.4319,-4.5171,-4.724,-4.8668,-4.8384,-4.867,-4.8496,-4.7838,-4.8559,-4.9293,0.0,0.0,0.0,0.0,0.0,0.0,0.0,0.0,0.0,0.0,0.0,0.0,0.0,0.0,0.0,0.0,0.0,0.0,0.0,0.0,0.0,0.0,0.0,0.0,0.0,0.0,0.0,0.0,0.0,0.0,0.0,0.0,0.0,0.0,0.0,0.0,0.0,0.0,0.0,0.0,0.0,0.0,0.0,0.0,0.0,0.0,0.0,0.0,0.0,0.0,0.0,0.0,0.0,0.0,-3.3092,-3.4341,-3.598,-3.7354,-3.8234,-3.8698,-3.9007,-3.9192,-3.9124,-3.9487,0.0,0.0,0.0,0.0,0.0,0.0,0.0,0.0,0.0,0.0,0.0,0.0,0.0,0.0,0.0,0.0,0.0,0.0,0.0,0.0,0.0,0.0,0.0,0.0,0.0,0.0,0.0,0.0,-3.3544,-3.3799,-3.3888,0.0,0.0,0.0,0.0,0.0,0.0,0.0,0.0,0.0,0.0,-4.309,-4.5267,-4.5801,-4.6862,-4.8943,-4.8667,-4.8692,-5.0022,-4.9384,-4.9072,-5.0222,0.0,0.0,0.0,0.0,0.0,0.0,0.0,0.0,0.0,0.0,0.0,0.0,0.0,0.0,0.0,0.0,0.0,0.0,0.0,0.0,0.0,0.0,0.0,0.0,0.0,0.0,0.0,0.0,0.0,0.0,0.0,0.0,0.0,0.0,0.0,0.0,0.0,0.0,0.0,0.0,0.0,0.0,0.0,0.0,0.0,0.0,0.0,0.0,0.0,0.0,0.0,0.0,0.0,-3.2637,-3.4289,-3.5455,-3.6675,-3.7617,-3.8034,-3.8373,-3.8605,-3.8699,-3.8852,0.0,0.0,0.0,0.0,0.0,0.0,0.0,0.0,0.0,0.0,0.0,0.0,0.0,0.0,0.0,0.0,0.0,0.0,0.0,0.0,0.0,0.0,0.0,0.0,0.0,0.0,0.0,0.0,-3.2283,-3.2517,-3.2693,0.0,0.0,0.0,0.0,0.0,0.0,0.0,0.0,0.0,0.0,-4.2531,-4.4415,-4.5,0.0,0.0,-4.7393,-4.7501,-4.8647,-4.7673,-4.7211,-4.8881,-4.8272,0.0,0.0,0.0,0.0,0.0,0.0,0.0,0.0,0.0,0.0,0.0,0.0,0.0,0.0,0.0,0.0,0.0,0.0,0.0,0.0,0.0,0.0,0.0,0.0,0.0,0.0,0.0,0.0,0.0,0.0,0.0,0.0,0.0,0.0,0.0,0.0,0.0,0.0,0.0,0.0,0.0,0.0,0.0,0.0,0.0,0.0,0.0,0.0,0.0,0.0,0.0,0.0,0.0,-3.5004,-3.5365,-3.6181,-3.7524,-3.7586,-3.7864,-3.8451,-3.842,-3.7833,0.0,0.0,0.0,0.0,0.0,0.0,0.0,0.0,0.0,0.0,0.0,0.0,0.0,0.0,0.0,0.0,0.0,0.0,0.0,0.0,0.0,0.0,0.0,0.0,0.0,0.0,0.0,0.0,0.0,0.0,0.0,0.0,0.0,0.0,0.0,0.0,0.0,0.0,0.0,0.0,0.0,-4.2606,-4.3296,-4.4799,-4.5645,0.0,0.0,-4.5117,-4.4753,-4.4123,-4.4336,-4.6046,0.0,0.0,0.0,0.0,0.0,0.0,0.0,0.0,0.0,0.0,0.0,0.0,0.0,0.0,0.0,0.0,0.0,0.0,0.0,0.0,0.0,0.0,0.0,0.0,0.0,0.0,0.0,0.0,0.0,0.0,0.0,0.0,0.0,0.0,0.0,0.0,0.0,0.0,0.0,0.0,0.0,0.0,0.0,0.0,0.0,0.0,0.0,0.0,0.0,0.0,0.0,0.0,0.0,0.0,-3.419,-3.4729,-3.547,-3.6814,-3.686,-3.6937,-3.7092,-3.7856,0.0,0.0,0.0,0.0,0.0,0.0,0.0,0.0,0.0,0.0,0.0,0.0,0.0,0.0,0.0,0.0,0.0,0.0,0.0,0.0,0.0,0.0,0.0,0.0,0.0,0.0,0.0,-2.9363,0.0,0.0,0.0,0.0,0.0,0.0,0.0,0.0,0.0,0.0,0.0,0.0,0.0,0.0,-4.2755,-4.5857,-4.5093,-4.4344,0.0,0.0,-4.3718,-4.4846,-4.4262,-4.4007,0.0,0.0,0.0,0.0,0.0,0.0,0.0,0.0,0.0,0.0,0.0,0.0,0.0,0.0,0.0,0.0,0.0,0.0,0.0,0.0,0.0,0.0,0.0,0.0,0.0,0.0,0.0,0.0,0.0,0.0,0.0,0.0,0.0,0.0,0.0,0.0,0.0,0.0,0.0,0.0,0.0,0.0,0.0,0.0,0.0,0.0,0.0,0.0,0.0,0.0,0.0,0.0,0.0,0.0,-3.0903,-3.3974,-3.4235,-3.5051,-3.6536,-3.6598,-3.6598,-3.6598,-3.7524,-3.7713,0.0,0.0,0.0,0.0,0.0,0.0,0.0,0.0,0.0,0.0,0.0,0.0,0.0,0.0,0.0,0.0,0.0,0.0,0.0,0.0,0.0,0.0,0.0,0.0,0.0,0.0,0.0,0.0,0.0,0.0,0.0,0.0,0.0,0.0,0.0,0.0,0.0,0.0,0.0,0.0,0.0,0.0,-4.5077,-4.4687,0.0,0.0,0.0,-4.2685,-4.3727,0.0,0.0,0.0,0.0,0.0,0.0,0.0,0.0,0.0,0.0,0.0,0.0,0.0,0.0,0.0,0.0,0.0,0.0,0.0,0.0,0.0,0.0,0.0,0.0,0.0,0.0,0.0,0.0,0.0,0.0,0.0,0.0,0.0,0.0,0.0,0.0,0.0,0.0,0.0,0.0,0.0,0.0,0.0,0.0,0.0,0.0,0.0,0.0,0.0,0.0,0.0,0.0,0.0,0.0,0.0,0.0,0.0,-3.3731,-3.399,-3.4862,-3.6591,-3.6567,-3.6598,-3.6598,-3.7429,-3.7827,0.0,0.0,0.0,0.0,0.0,0.0,0.0,0.0,0.0,0.0,0.0,0.0,0.0,0.0,0.0,0.0,0.0,0.0,0.0,0.0,0.0,0.0,0.0,0.0,0.0,0.0,0.0,0.0,0.0,0.0,0.0,0.0,0.0,0.0,0.0,0.0,0.0,0.0,0.0,0.0,0.0,-4.2771,-4.2917,-4.4119,-4.4651,0.0,0.0,-4.1703,-4.2126,-4.1153,0.0,0.0,0.0,0.0,0.0,0.0,0.0,0.0,0.0,0.0,0.0,0.0,0.0,0.0,0.0,0.0,0.0,0.0,0.0,0.0,0.0,0.0,0.0,0.0,0.0,0.0,0.0,0.0,0.0,0.0,0.0,0.0,0.0,0.0,0.0,0.0,0.0,0.0,0.0,0.0,0.0,0.0,0.0,0.0,0.0,0.0,0.0,0.0,0.0,0.0,0.0,0.0,0.0,0.0,0.0,0.0,-3.2891,-3.3685,-3.4992,-3.6812,-3.666,-3.6777,-3.7119,-3.713,-3.7478,0.0,0.0,0.0,0.0,0.0,0.0,0.0,0.0,0.0,0.0,0.0,0.0,0.0,0.0,0.0,0.0,0.0,0.0,0.0,0.0,0.0,0.0,0.0,0.0,0.0,0.0,0.0,0.0,0.0,0.0,0.0,0.0,0.0,0.0,0.0,0.0,0.0,0.0,0.0,0.0,0.0,-4.1958,-4.4204,-4.3299,0.0,0.0,0.0,0.0,-4.0616,-4.0695,0.0,0.0,0.0,0.0,0.0,0.0,0.0,0.0,0.0,0.0,0.0,0.0,0.0,0.0,0.0,0.0,0.0,0.0,0.0,0.0,0.0,0.0,0.0,0.0,0.0,0.0,0.0,0.0,0.0,0.0,0.0,0.0,0.0,0.0,0.0,0.0,0.0,0.0,0.0,0.0,0.0,0.0,0.0,0.0,0.0,0.0,0.0,0.0,0.0,0.0,0.0,0.0,0.0,0.0,0.0,0.0,-3.2321,-3.3198,-3.4388,-3.5771,-3.5908,-3.628,-3.681,-3.6667,-3.6955,0.0,0.0,0.0,0.0,0.0,0.0,0.0,0.0,0.0,0.0,0.0,0.0,0.0,0.0,0.0,0.0,0.0,0.0,0.0,0.0,0.0,0.0,0.0,0.0,0.0,0.0,0.0,0.0,0.0,0.0,0.0,0.0,0.0,0.0,0.0,0.0,0.0,0.0,0.0,0.0,-4.0854,-4.1375,-4.2815,0.0,0.0,0.0,0.0,0.0,0.0,-4.0508,-4.0756,0.0,0.0,0.0,0.0,0.0,0.0,0.0,0.0,0.0,0.0,0.0,0.0,0.0,0.0,0.0,0.0,0.0,0.0,0.0,0.0,0.0,0.0,0.0,0.0,0.0,0.0,0.0,0.0,0.0,0.0,0.0,0.0,0.0,0.0,0.0,0.0,0.0,0.0,0.0,0.0,0.0,0.0,0.0,0.0,0.0,0.0,0.0,0.0,0.0,0.0,0.0,0.0,0.0,0.0,0.0,-3.1909,-3.2773,-3.3545,-3.4573,-3.5053,-3.5771,-3.629,-3.5964,-3.6318,-3.724,0.0,0.0,0.0,0.0,0.0,0.0,0.0,0.0,0.0,0.0,0.0,0.0,0.0,0.0,0.0,0.0,0.0,0.0,0.0,0.0,0.0,0.0,0.0,0.0,0.0,0.0,0.0,0.0,0.0,0.0,0.0,0.0,0.0,0.0,0.0,0.0,0.0,0.0,0.0,-3.9893,-4.0814,0.0,0.0,0.0,0.0,0.0,0.0,0.0,0.0,-4.1004,0.0,0.0,0.0,0.0,0.0,0.0,0.0,0.0,0.0,0.0,0.0,0.0,0.0,0.0,0.0,0.0,0.0,0.0,0.0,0.0,0.0,0.0,0.0,0.0,0.0,0.0,0.0,0.0,0.0,0.0,0.0,0.0,0.0,0.0,0.0,0.0,0.0,0.0,0.0,0.0,0.0,0.0,0.0,0.0,0.0,0.0,0.0,0.0,0.0,0.0,0.0,0.0,0.0,0.0,0.0,0.0,-3.1993,-3.3229,-3.473,-3.4695,-3.5208,-3.6069,-3.5694,-3.5693,-3.6347,0.0,0.0,0.0,0.0,0.0,0.0,0.0,0.0,0.0,0.0,0.0,0.0,0.0,0.0,0.0,0.0,0.0,0.0,0.0,0.0,0.0,0.0,0.0,0.0,0.0,0.0,0.0,0.0,0.0,0.0,0.0,0.0,0.0,0.0,0.0,0.0,0.0,0.0,-3.6962,-3.8278,0.0,0.0,0.0,0.0,0.0,0.0,0.0,0.0,-4.1475,0.0,0.0,0.0,0.0,0.0,0.0,0.0,0.0,0.0,0.0,0.0,0.0,0.0,0.0,0.0,0.0,0.0,0.0,0.0,0.0,0.0,0.0,0.0,0.0,0.0,0.0,0.0,0.0,0.0,0.0,0.0,0.0,0.0,0.0,0.0,0.0,0.0,0.0,0.0,0.0,0.0,0.0,0.0,0.0,0.0,0.0,0.0,0.0,0.0,0.0,0.0,0.0,0.0,0.0,0.0,0.0,0.0,0.0,-3.2514,-3.35,-3.3859,-3.4518,-3.548,-3.4912,-3.4956,0.0,0.0,0.0,0.0,0.0,0.0,0.0,0.0,0.0,0.0,0.0,0.0,0.0,0.0,0.0,0.0,0.0,0.0,0.0,0.0,0.0,0.0,0.0,0.0,0.0,0.0,0.0,0.0,0.0,0.0,0.0,0.0,0.0,0.0,0.0,0.0,0.0,0.0,0.0,0.0,0.0,0.0,0.0,0.0,0.0,0.0,0.0,0.0,0.0,0.0,0.0,0.0,0.0,0.0,0.0,0.0,0.0,0.0,0.0,0.0,0.0,0.0,0.0,0.0,0.0,0.0,0.0,0.0,0.0,0.0,0.0,0.0,0.0,0.0,0.0,0.0,0.0,0.0,0.0,0.0,0.0,0.0,0.0,0.0,0.0,0.0,0.0,0.0,0.0,0.0,0.0,0.0,0.0,0.0,0.0,0.0,0.0,0.0,0.0,0.0,0.0,0.0,0.0,0.0,0.0,0.0,0.0,0.0,-3.2027,-3.2377,-3.3077,-3.3844,-3.4771,-3.3997,-3.4003,0.0,0.0,0.0,0.0,0.0,0.0,0.0,0.0,0.0,0.0,0.0,0.0,0.0,0.0,0.0,0.0,0.0,0.0,0.0,0.0,0.0,0.0,0.0,0.0,0.0,0.0,0.0,0.0,0.0,0.0,0.0,0.0,0.0,0.0,0.0,0.0,0.0,0.0,0.0,0.0,0.0,0.0,0.0,0.0,0.0,0.0,0.0,0.0,-4.1575,0.0,0.0,0.0,0.0,0.0,0.0,0.0,0.0,0.0,0.0,0.0,0.0,0.0,0.0,0.0,0.0,0.0,0.0,0.0,0.0,0.0,0.0,0.0,0.0,0.0,0.0,0.0,0.0,0.0,0.0,0.0,0.0,0.0,0.0,0.0,0.0,0.0,0.0,0.0,0.0,0.0,0.0,0.0,0.0,0.0,0.0,0.0,0.0,0.0,0.0,0.0,0.0,0.0,0.0,0.0,0.0,0.0,0.0,0.0,-3.2027,-3.2521,-3.2598,-3.2948,-3.3903,-3.3304,-3.3183,0.0,0.0,0.0,0.0,0.0,0.0,0.0,0.0,0.0,0.0,0.0,0.0,0.0,0.0,0.0,0.0,0.0,0.0,0.0,0.0,0.0,0.0,0.0,0.0,0.0,0.0,0.0,0.0,0.0,0.0,0.0,0.0,0.0,0.0,0.0,0.0,0.0,0.0,0.0,0.0,0.0,0.0,0.0,0.0,0.0,0.0,0.0,0.0,0.0,0.0,0.0,0.0,0.0,0.0,0.0,0.0,0.0,0.0,0.0,0.0,0.0,0.0,0.0,0.0,0.0,0.0,0.0,0.0,0.0,0.0,0.0,0.0,0.0,0.0,0.0,0.0,0.0,0.0,0.0,0.0,0.0,0.0,0.0,0.0,0.0,0.0,0.0,0.0,0.0,0.0,0.0,0.0,0.0,0.0,0.0,0.0,0.0,0.0,0.0,0.0,0.0,0.0,0.0,0.0,0.0,0.0,0.0,0.0,-3.1378,-3.1934,-3.232,-3.2855,-3.3474,-3.2853,-3.251,0.0,0.0,0.0,0.0,0.0,0.0,0.0,0.0,0.0,0.0,0.0,0.0,0.0,0.0,0.0,0.0,0.0,0.0,0.0,0.0,0.0,0.0,0.0,0.0,0.0,0.0,0.0,0.0,0.0,0.0,0.0,0.0,0.0,0.0,0.0,0.0,0.0,0.0,0.0,0.0,0.0,0.0,0.0,0.0,0.0,0.0,0.0,0.0,0.0,0.0,0.0,0.0,0.0,0.0,0.0,0.0,0.0,0.0,0.0,0.0,0.0,0.0,0.0,0.0,0.0,0.0,0.0,0.0,0.0,0.0,0.0,0.0,0.0,0.0,0.0,0.0,0.0,0.0,0.0,0.0,0.0,0.0,0.0,0.0,0.0,0.0,0.0,0.0,0.0,0.0,0.0,0.0,0.0,0.0,0.0,0.0,0.0,0.0,0.0,0.0,0.0,0.0,0.0,0.0,0.0,0.0,0.0,0.0,0.0,-3.1347,-3.2008,-3.2603,-3.2701,-3.1821,-3.1482,0.0,0.0,0.0,0.0,0.0,0.0,0.0,0.0,0.0,0.0,0.0,0.0,0.0,0.0,0.0,0.0,0.0,0.0,0.0,0.0,0.0,0.0,0.0,0.0,0.0,0.0,0.0,0.0,0.0,0.0,0.0,0.0,0.0,0.0,0.0,0.0,0.0,0.0,0.0,0.0,0.0,0.0,0.0,0.0,0.0,0.0,0.0,0.0,0.0,0.0,0.0,0.0,0.0,0.0,0.0,0.0,0.0,0.0,0.0,0.0,0.0,0.0,0.0,0.0,0.0,0.0,0.0,0.0,0.0,0.0,0.0,0.0,0.0,0.0,0.0,0.0,0.0,0.0,0.0,0.0,0.0,0.0,0.0,0.0,0.0,0.0,0.0,0.0,0.0,0.0,0.0,0.0,0.0,0.0,0.0,0.0,0.0,0.0,0.0,0.0,0.0,0.0,0.0,0.0,0.0,0.0,0.0,0.0,0.0,-3.1008,-3.2008,-3.2197,-3.1579,-3.0415,-2.9819,0.0,0.0,0.0,0.0,0.0,0.0,0.0,0.0,0.0,0.0,0.0,0.0,0.0,0.0,0.0,0.0,0.0,0.0,0.0,0.0,0.0,0.0,0.0,0.0,0.0,0.0,0.0,0.0,0.0,0.0,0.0,0.0,0.0,0.0,0.0,0.0,0.0,0.0,0.0,0.0,0.0,0.0,0.0,0.0,0.0,0.0,0.0,0.0,0.0,0.0,0.0,0.0,0.0,0.0,0.0,0.0,0.0,0.0,0.0,0.0,0.0,0.0,0.0,0.0,0.0,0.0,0.0,0.0,0.0,0.0,0.0,0.0,0.0,0.0,0.0,0.0,0.0,0.0,0.0,0.0,0.0,0.0,0.0,0.0,0.0,0.0,0.0,0.0,0.0,0.0,0.0,0.0,0.0,0.0,0.0,0.0,0.0,0.0,0.0,0.0,0.0,0.0,0.0,0.0,0.0,0.0,0.0,0.0,0.0,-2.9374,-3.0141,-3.0717,-3.1177,-2.9626,-2.9019,-2.9571,0.0,0.0,0.0,0.0,0.0,0.0,0.0,0.0,0.0,0.0,0.0,0.0,0.0,0.0,0.0,0.0,0.0,0.0,0.0,0.0,0.0,0.0,0.0,0.0,0.0,0.0,0.0,0.0,0.0,0.0,0.0,0.0,0.0,0.0,0.0,0.0,0.0,0.0,0.0,0.0,0.0,0.0,0.0,0.0,0.0,0.0,0.0,0.0,0.0,0.0,0.0,0.0,0.0,0.0,0.0,0.0,0.0,0.0,0.0,0.0,0.0,0.0,0.0,0.0,0.0,0.0,0.0,0.0,0.0,0.0,0.0,0.0,0.0,0.0,0.0,0.0,0.0,0.0,0.0,0.0,0.0,0.0,0.0,0.0,0.0,0.0,0.0,0.0,0.0,0.0,0.0,0.0,0.0,0.0,0.0,0.0,0.0,0.0,0.0,0.0,0.0,0.0,0.0,0.0,0.0,0.0,0.0,0.0,-2.8957,-2.9164,-2.9568,-3.0035,-2.893,-2.8335,0.0,0.0,0.0,0.0,0.0,0.0,0.0,0.0,0.0,0.0,0.0,0.0,0.0,0.0,0.0,0.0,0.0,0.0,0.0,0.0,0.0,0.0,0.0,0.0,0.0,0.0,0.0,0.0,0.0,0.0,0.0,0.0,0.0,0.0,0.0,0.0,0.0,0.0,0.0,0.0,0.0,0.0,0.0,0.0,0.0,0.0,0.0,0.0,0.0,0.0,0.0,0.0,0.0,0.0,0.0,0.0,0.0,0.0,0.0,0.0,0.0,0.0,0.0,0.0,0.0,0.0,0.0,0.0,0.0,0.0,0.0,0.0,0.0,0.0,0.0,0.0,0.0,0.0,0.0,0.0,0.0,0.0,0.0,0.0,0.0,0.0,0.0,0.0,0.0,0.0,0.0,0.0,0.0,0.0,0.0,0.0,0.0,0.0,0.0,0.0,0.0,0.0,0.0,0.0,0.0,0.0,0.0,0.0,-3.0247,-3.0218,-2.9609,-2.9031,-2.8539,-2.8434,-2.7806,0.0,0.0,0.0,0.0,0.0,0.0,0.0,0.0,0.0,0.0,0.0,0.0,0.0,0.0,0.0,0.0,0.0,0.0,0.0,0.0,0.0,0.0,0.0,0.0,0.0,0.0,0.0,0.0,0.0,0.0,0.0,0.0,0.0,0.0,0.0,0.0,0.0,0.0,0.0,0.0,0.0,0.0,0.0,0.0,0.0,0.0,0.0,0.0,0.0,0.0,0.0,0.0,0.0,0.0,0.0,0.0,0.0,0.0,0.0,0.0,0.0,0.0,0.0,0.0,0.0,0.0,0.0,0.0,0.0,0.0,0.0,0.0,0.0,0.0,0.0,0.0,0.0,0.0,0.0,0.0,0.0,0.0,0.0,0.0,0.0,0.0,0.0,0.0,0.0,0.0,0.0,0.0,0.0,0.0,0.0,0.0,0.0,0.0,0.0,0.0,0.0,0.0,0.0,0.0,0.0,0.0,0.0,0.0,0.0,-2.9152,0.0,-2.8578,0.0,-2.7735,-2.691,0.0,0.0,0.0,0.0,0.0,0.0,0.0,0.0,0.0,0.0,0.0,0.0,0.0,0.0,0.0,0.0,0.0,0.0,0.0,0.0,0.0,0.0,0.0,0.0,0.0,0.0,0.0,0.0,0.0,0.0,0.0,0.0,0.0,0.0,0.0,0.0,0.0,0.0,0.0,0.0,0.0,0.0,0.0,0.0,0.0,0.0,0.0,0.0,0.0,0.0,0.0,0.0,0.0,0.0,0.0,0.0,0.0,0.0,0.0,0.0,0.0,0.0,0.0,0.0,0.0,0.0,0.0,0.0,0.0,0.0,0.0,0.0,0.0,0.0,0.0,0.0,0.0,0.0,0.0,0.0,0.0,0.0,0.0,0.0,0.0,0.0,0.0,0.0,0.0,0.0,0.0,0.0,0.0,0.0,0.0,0.0,0.0,0.0,0.0,0.0,0.0,0.0,0.0,0.0,0.0,0.0,0.0,0.0,0.0,-2.8104,-2.7754,-2.814,-2.9168,-2.7774,-2.7107,0.0,0.0,0.0,0.0,0.0,0.0,0.0,0.0,0.0,0.0,0.0,0.0,0.0,0.0,0.0,0.0,0.0,0.0,0.0,0.0,0.0,0.0,0.0,0.0,0.0,0.0,0.0,0.0,0.0,0.0,0.0,0.0,0.0,0.0,0.0,0.0,0.0,0.0,0.0,0.0,0.0,0.0,0.0,0.0,0.0,0.0,0.0,0.0,0.0,0.0,0.0,0.0,0.0,0.0,0.0,0.0,0.0,0.0,0.0,0.0,0.0,0.0,0.0,0.0,0.0,0.0,0.0,0.0,0.0,0.0,0.0,0.0,0.0,0.0,0.0,0.0,0.0,0.0,0.0,0.0,0.0,0.0,0.0,0.0,0.0,0.0,0.0,0.0,0.0,0.0,0.0,0.0,0.0,0.0,0.0,0.0,0.0,0.0,0.0,0.0,0.0,0.0,0.0,0.0,0.0,0.0,0.0,0.0,0.0,0.0,-2.7918,-2.7918,-2.7392,-2.8359,-2.8133,0.0,0.0,0.0,0.0,0.0,0.0,0.0,0.0,0.0,0.0,0.0,0.0,0.0,0.0,0.0,0.0,0.0,0.0,0.0,0.0,0.0,0.0,0.0,0.0,0.0,0.0,0.0,0.0,0.0,0.0,0.0,0.0,0.0,0.0,0.0,0.0,0.0,0.0,0.0,0.0,0.0,0.0,0.0,0.0,0.0,0.0,0.0,0.0,0.0,0.0,0.0,0.0,0.0,0.0,0.0,0.0,0.0,0.0,0.0,0.0,0.0,0.0,0.0,0.0,0.0,0.0,0.0,0.0,0.0,0.0,0.0,0.0,0.0,0.0,0.0,0.0,0.0,0.0,0.0,0.0,0.0,0.0,0.0,0.0,0.0,0.0,0.0,0.0,0.0,0.0,0.0,0.0,0.0,0.0,0.0,0.0,0.0,0.0,0.0,0.0,0.0,0.0,0.0,0.0,0.0,0.0,0.0,0.0,0.0,0.0,-2.9397,0.0,-2.8544,-2.7989,-2.7659,-2.7701,0.0,0.0,0.0,0.0,0.0,0.0,0.0,0.0,0.0,0.0,0.0,0.0,0.0,0.0,0.0,0.0,0.0,0.0,0.0,0.0,0.0,0.0,0.0,0.0,0.0,0.0,0.0,0.0,0.0,0.0,0.0,0.0,0.0,0.0,0.0,0.0,0.0,0.0,0.0,0.0,0.0,0.0,0.0,0.0,0.0,0.0,0.0,0.0,0.0,0.0,0.0,0.0,0.0,0.0,0.0,0.0,0.0,0.0,0.0,0.0,0.0,0.0,0.0,0.0,0.0,0.0,0.0,0.0,0.0,0.0,0.0,0.0,0.0,0.0,0.0,0.0,0.0,0.0,0.0,0.0,0.0,0.0,0.0,0.0,0.0,0.0,0.0,0.0,0.0,0.0,0.0,0.0,0.0,0.0,0.0,0.0,0.0,0.0,0.0,0.0,0.0,0.0,0.0,0.0,0.0,0.0,0.0,0.0,0.0,0.0,0.0,-2.8899,-2.8331,-2.7989,0.0,0.0,0.0,0.0,0.0,0.0,0.0,0.0,0.0,0.0,0.0,0.0,0.0,0.0,0.0,0.0,0.0,0.0,0.0,0.0,0.0,0.0,0.0,0.0,0.0,0.0,0.0,0.0,0.0,0.0,0.0,0.0,0.0,0.0,0.0,0.0,0.0,0.0,0.0,0.0,0.0,0.0,0.0,0.0,0.0,0.0,0.0,0.0,0.0,0.0,0.0,0.0,0.0,0.0,0.0,0.0,0.0,0.0,0.0,0.0,0.0,0.0,0.0,0.0,0.0,0.0,0.0,0.0,0.0,0.0,0.0,0.0,0.0,0.0,0.0,0.0,0.0,0.0,0.0,0.0,0.0,0.0,0.0,0.0,0.0,0.0,0.0,0.0,0.0,0.0,0.0,0.0,0.0,0.0,0.0,0.0,0.0,0.0,0.0,0.0,0.0,0.0,0.0,0.0,0.0,0.0,0.0,0.0,0.0,0.0,0.0,-2.9013,-2.897,-2.9013,0.0,-2.835,0.0,0.0,0.0,0.0,0.0,0.0,0.0,0.0,0.0,0.0,0.0,0.0,0.0,0.0,0.0,0.0,0.0,0.0,0.0,0.0,0.0,0.0,0.0,0.0,0.0,0.0,0.0,0.0,0.0,0.0,0.0,0.0,0.0,0.0,0.0,0.0,0.0,0.0,0.0,0.0,0.0,0.0,0.0,0.0,0.0,0.0,0.0,0.0,0.0,0.0,0.0,0.0,0.0,0.0,0.0,0.0,0.0,0.0,0.0,0.0,0.0,0.0,0.0,0.0,0.0,0.0,0.0,0.0,0.0,0.0,0.0,0.0,0.0,0.0,0.0,0.0,0.0,0.0,0.0,0.0,0.0,0.0,0.0,0.0,0.0,0.0,0.0,0.0,0.0,0.0,0.0,0.0,0.0,0.0,0.0,0.0,0.0,0.0,0.0,0.0,0.0,0.0,0.0,0.0,0.0,0.0,0.0,0.0,0.0,0.0,0.0,0.0,-2.8843,-2.834,-2.8191,0.0,0.0,0.0,0.0,0.0,0.0,0.0,0.0,0.0,0.0,0.0,0.0,0.0,0.0,0.0,0.0,0.0,0.0,0.0,0.0,0.0,0.0,0.0,0.0,0.0,0.0,0.0,0.0,0.0,0.0,0.0,0.0,0.0,0.0,0.0,0.0,0.0,0.0,0.0,0.0,0.0,0.0,0.0,0.0,0.0,0.0,0.0,0.0,0.0,0.0,0.0,0.0,0.0,0.0,0.0,0.0,0.0,0.0,0.0,0.0,0.0,0.0,0.0,0.0,0.0,0.0,0.0,0.0,0.0,0.0,0.0,0.0,0.0,0.0,0.0,0.0,0.0,0.0,0.0,0.0,0.0,0.0,0.0,0.0,0.0,0.0,0.0,0.0,0.0,0.0,0.0,0.0,0.0,0.0,0.0,0.0,0.0,0.0,0.0,0.0,0.0,0.0,0.0,0.0,0.0,0.0,0.0,0.0,0.0,0.0,-2.9013,-2.9938,-2.9056,-2.8402,-2.8131,0.0,0.0,0.0,0.0,0.0,0.0,0.0,0.0,0.0,0.0,0.0,0.0,0.0,0.0,0.0,0.0,0.0,0.0,0.0,0.0,0.0,0.0,0.0,0.0,0.0,0.0,0.0,0.0,0.0,0.0,0.0,0.0,0.0,0.0,0.0,0.0,0.0,0.0,0.0,0.0,0.0,0.0,0.0,0.0,0.0,0.0,0.0,0.0,0.0,0.0,0.0,0.0,0.0,0.0,0.0,0.0,0.0,0.0,0.0,0.0,0.0,0.0,0.0,0.0,0.0,0.0,0.0,0.0,0.0,0.0,0.0,0.0,0.0,0.0,0.0,0.0,0.0,0.0,0.0,0.0,0.0,0.0,0.0,0.0,0.0,0.0,0.0,0.0,0.0,0.0,0.0,0.0,0.0,0.0,0.0,0.0,0.0,0.0,0.0,0.0,0.0,0.0,0.0,0.0,0.0,0.0,0.0,0.0,0.0,0.0,0.0,0.0,0.0,0.0,-2.8146,0.0,0.0,0.0,0.0,0.0,0.0,0.0,0.0,0.0,0.0,0.0,0.0,0.0,0.0,0.0,0.0,0.0,0.0,0.0,0.0,0.0,0.0,0.0,0.0,0.0,0.0,0.0,0.0,0.0,0.0,0.0,0.0,0.0,0.0,0.0,0.0,0.0,0.0,0.0,0.0,0.0,0.0,0.0,0.0,0.0,0.0,0.0,0.0,0.0,0.0,0.0,0.0,0.0,0.0,0.0,0.0,0.0,0.0,0.0,0.0,0.0,0.0,0.0,0.0,0.0,0.0,0.0,0.0,0.0,0.0,0.0,0.0,0.0,0.0,0.0,0.0,0.0,0.0,0.0,0.0,0.0,0.0,0.0,0.0,0.0,0.0,0.0,0.0,0.0,0.0,0.0,0.0,0.0,0.0,0.0,0.0,0.0,0.0,0.0,0.0,0.0,0.0,0.0,0.0,0.0,0.0,0.0,0.0,0.0,0.0,0.0,0.0,0.0,0.0,0.0,0.0,0.0,0.0,0.0,0.0,0.0,0.0,0.0,0.0,0.0,0.0,0.0,0.0,0.0,0.0,0.0,0.0,0.0,0.0,0.0,0.0,0.0,0.0,0.0,0.0,0.0,0.0,0.0,0.0,0.0,0.0,0.0,0.0,0.0,0.0,0.0,0.0,0.0,0.0,0.0,0.0,0.0,0.0,0.0,0.0,0.0,0.0,0.0,0.0,0.0,0.0,0.0,0.0,0.0,0.0,0.0,0.0,0.0,0.0,0.0,0.0,0.0,0.0,0.0,0.0,0.0,0.0,0.0,0.0,0.0,0.0,0.0,0.0,0.0,0.0,0.0,0.0,0.0,0.0,0.0,0.0,0.0,0.0,0.0,0.0,0.0,0.0,0.0,0.0,0.0,0.0,0.0,0.0,0.0,0.0,0.0,0.0,0.0,0.0,0.0,0.0,0.0,0.0,0.0,0.0,0.0,0.0,0.0,0.0,0.0,0.0,0.0,0.0,0.0,0.0,0.0,0.0,0.0,0.0,0.0,0.0,0.0,0.0,0.0,0.0,0.0,0.0,0.0,0.0,0.0,0.0,0.0,0.0,0.0,0.0,0.0,0.0,0.0,0.0,0.0,0.0,0.0,0.0,0.0,0.0,0.0,0.0,0.0,0.0,0.0,0.0,0.0,0.0,0.0,0.0,0.0,0.0,0.0,0.0,0.0,0.0,0.0,0.0,0.0,0.0,0.0,0.0,0.0,0.0,0.0,0.0,0.0,0.0,0.0,0.0,0.0,0.0,0.0,0.0,0.0,0.0,0.0,0.0,0.0,0.0,0.0,0.0,0.0,0.0,0.0,0.0,0.0,0.0,0.0,0.0,0.0,0.0,0.0,0.0,0.0,0.0,0.0,0.0,0.0,0.0,0.0,0.0,0.0,0.0,0.0,0.0,0.0,0.0,0.0,0.0,0.0,0.0,0.0,0.0,0.0,0.0,0.0,0.0,0.0,0.0,0.0,0.0,0.0,0.0,0.0,0.0,0.0,0.0,0.0,0.0,0.0,0.0,0.0,0.0,0.0,0.0,0.0,0.0,0.0,0.0,0.0,0.0,0.0,0.0,0.0,0.0,0.0,0.0,0.0,0.0,0.0,0.0,0.0,0.0,0.0,0.0,0.0,0.0,0.0,0.0,0.0,0.0,0.0,0.0,0.0,0.0,0.0,0.0,0.0,0.0,0.0,0.0,0.0,0.0,0.0,0.0,0.0,0.0,0.0,0.0,0.0,0.0,0.0,0.0,0.0,0.0,0.0,0.0,0.0,0.0,0.0,0.0,0.0,0.0,0.0,0.0,0.0,0.0,0.0,0.0,0.0,0.0,0.0,0.0,0.0,0.0,0.0,0.0,0.0,0.0,0.0,0.0,0.0,0.0,0.0,0.0,0.0,0.0,0.0,0.0,0.0,0.0,0.0,0.0,0.0,0.0,0.0,0.0,0.0,0.0,0.0,0.0,0.0,0.0,0.0,0.0,0.0,0.0,0.0,0.0,0.0,0.0,0.0,0.0,0.0,0.0,0.0,0.0,0.0,0.0,0.0,0.0,0.0,0.0,0.0,0.0,0.0,0.0,0.0,0.0,0.0,0.0,0.0,0.0,0.0,0.0,0.0,0.0,0.0,0.0,0.0,0.0,0.0,0.0,0.0,0.0,0.0,0.0,0.0,0.0,0.0,0.0,0.0,0.0,0.0,0.0,0.0,0.0,0.0,0.0,0.0,0.0,0.0,0.0,0.0,0.0,0.0,0.0,0.0,0.0,0.0,0.0,0.0,0.0,0.0,0.0,0.0,0.0,0.0,0.0,0.0,0.0,0.0,0.0,0.0,0.0,0.0,0.0,0.0,0.0,0.0,0.0,0.0,0.0,0.0,0.0,0.0,0.0,0.0,0.0,0.0,0.0,0.0,0.0,0.0,0.0,0.0,0.0,0.0,0.0,0.0,0.0,0.0,0.0,0.0,0.0,0.0,0.0,0.0,0.0,0.0,0.0,0.0,0.0,0.0,0.0,0.0,0.0,0.0,0.0,0.0,0.0,0.0,0.0,0.0,0.0,0.0,0.0,0.0,0.0,0.0,0.0,0.0,0.0,0.0,0.0,0.0,0.0,0.0,0.0,0.0,0.0,0.0,0.0,0.0,0.0,0.0,0.0,0.0,0.0,0.0,0.0,0.0,0.0,0.0,0.0,0.0,0.0,0.0,0.0,0.0,0.0,0.0,0.0,0.0,0.0,0.0,0.0,0.0,0.0,0.0,0.0,0.0,0.0,0.0,0.0,0.0,0.0,0.0,0.0,0.0,0.0,0.0,0.0,0.0,0.0,0.0,0.0,0.0,0.0,0.0,0.0,0.0,0.0,0.0,0.0,0.0,0.0,0.0,0.0,0.0,0.0,0.0,0.0,0.0,0.0,0.0,0.0,0.0,0.0,0.0,0.0,0.0,0.0,0.0,0.0,0.0,0.0,0.0,0.0,0.0,0.0,0.0,0.0,0.0,0.0,0.0,0.0,0.0,0.0,0.0,0.0,0.0,0.0,0.0,0.0,0.0,0.0,0.0,0.0,0.0,0.0,0.0,0.0,0.0,0.0,0.0,0.0,0.0,0.0,0.0,0.0,0.0,0.0,0.0,0.0,0.0,0.0,0.0,0.0,0.0,0.0,0.0,0.0,0.0,0.0,0.0,0.0,0.0,0.0,0.0,0.0,0.0,0.0,0.0,0.0,0.0,0.0,0.0,0.0,0.0,0.0,0.0,0.0,0.0,0.0,0.0,0.0,0.0,0.0,0.0,0.0,0.0,0.0,0.0,0.0,0.0,0.0,0.0,0.0,0.0,0.0,0.0,0.0,0.0,0.0,0.0,0.0,0.0,0.0,0.0,0.0,0.0,0.0,0.0,0.0,0.0,0.0,0.0,0.0,0.0,0.0,0.0,0.0,0.0,0.0,0.0,0.0,0.0,0.0,0.0,0.0,0.0,0.0,0.0,0.0,0.0,0.0,0.0,0.0,0.0,0.0,0.0,0.0,0.0,0.0,0.0,0.0,0.0,0.0,0.0,0.0,0.0,0.0,0.0,0.0,0.0,0.0,0.0,0.0,0.0,0.0,0.0,0.0,0.0,0.0,0.0,0.0,0.0,0.0,0.0,0.0,0.0,0.0,0.0,0.0,0.0,0.0,0.0,0.0,0.0,0.0,0.0,0.0,0.0,0.0,0.0,0.0,0.0,0.0,0.0,0.0,0.0,0.0,0.0,0.0,0.0,0.0,0.0,0.0,0.0,0.0,0.0,0.0,0.0,0.0,0.0,0.0,0.0,0.0,0.0,0.0,0.0,0.0,0.0,0.0,0.0,0.0,0.0,0.0,0.0,0.0,0.0,0.0,0.0,0.0,0.0,0.0,0.0,0.0,0.0,0.0,0.0,0.0,0.0,0.0,0.0,0.0,0.0,0.0,0.0,0.0,0.0,0.0,0.0,0.0,0.0,0.0,0.0,0.0,0.0,0.0,0.0,0.0,0.0,0.0,0.0,0.0,0.0,0.0,0.0,0.0,0.0,0.0,0.0,0.0,0.0,0.0,0.0,0.0,0.0,0.0,0.0,0.0,0.0,0.0,0.0,0.0,0.0,0.0,0.0,0.0,0.0,0.0,0.0,0.0,0.0,0.0,0.0,0.0,0.0,0.0,0.0,0.0,0.0,0.0,0.0,0.0,0.0,0.0,0.0,0.0,0.0,0.0,0.0,0.0,0.0,0.0,0.0,0.0,0.0,0.0,0.0,0.0,0.0,0.0,0.0,0.0,0.0,0.0,0.0,0.0,0.0,0.0,0.0,0.0,0.0,0.0]}]]]